[[{"header":{"parameterUnit":"m.s-1","parameterCategory":1,"la1":31.0,"la2":29.5877,"lo1":-88.7671,"lo2":-86.6584,"dx":0.0162,"dy":0.0185,"nx":115,"ny":88,"refTime":"2023-02-13T06:00:00:Z","depth":0,"parameterNumber":2,"parameterNumberName":"U-component_of_WINDS"},"data":[0.0,0.0,0.0,0.0,0.0,0.0,0.0,0.0,0.0,0.0,0.0,0.0,0.0,0.0,0.0,0.0,0.0,0.0,0.0,0.0,0.0,0.0,0.0,0.0,0.0,0.0,0.0,0.0,0.0,0.0,0.0,0.0,0.0,0.0,0.0,0.0,0.0,0.0,0.0,0.0,0.0,0.0,0.0,0.0,0.0,0.0,0.0,0.0,0.0,0.0,0.0,0.0,0.0,0.0,0.0,0.0,0.0,0.0,0.0,0.0,0.0,0.0,0.0,0.0,0.0,0.0,0.0,0.0,0.0,0.0,0.0,0.0,0.0,0.0,0.0,0.0,0.0,0.0,0.0,0.0,0.0,0.0,0.0,0.0,0.0,0.0,0.0,0.0,0.0,0.0,0.0,0.0,0.0,0.0,0.0,0.0,0.0,0.0,0.0,0.0,0.0,0.0,0.0,0.0,0.0,0.0,0.0,0.0,0.0,0.0,0.0,0.0,0.0,0.0,0.0,0.0,0.0,0.0,0.0,0.0,0.0,0.0,0.0,0.0,0.0,0.0,0.0,0.0,0.0,0.0,0.0,0.0,0.0,0.0,0.0,0.0,0.0,0.0,0.0,0.0,0.0,0.0,0.0,0.0,0.0,0.0,0.0,0.0,0.0,0.0,0.0,0.0,0.0,0.0,0.0,0.0,0.0,0.0,0.0,0.0,0.0,0.0,0.0,0.0,0.0,0.0,0.0,0.0,0.0,0.0,0.0,0.0,0.0,0.0,0.0,0.0,0.0,0.0,0.0,0.0,0.0,0.0,0.0,0.0,0.0,0.0,0.0,0.0,0.0,0.0,0.0,0.0,0.0,0.0,0.0,0.0,0.0,0.0,0.0,0.0,0.0,0.0,0.0,0.0,0.0,0.0,0.0,0.0,0.0,0.0,0.0,0.0,0.0,0.0,0.0,0.0,0.0,0.0,0.0,0.0,0.0,0.0,0.0,0.0,0.0,0.0,0.0,0.0,0.0,0.0,0.0,0.0,0.0,0.0,0.0,0.0,0.0,0.0,0.0,0.0,0.0,0.0,0.0,0.0,0.0,0.0,0.0,0.0,0.0,0.0,0.0,0.0,0.0,0.0,0.0,0.0,0.0,0.0,0.0,0.0,0.0,0.0,0.0,0.0,0.0,0.0,0.0,0.0,0.0,0.0,0.0,0.0,0.0,0.0,0.0,0.0,0.0,0.0,0.0,0.0,0.0,0.0,0.0,0.0,0.0,0.0,0.0,0.0,0.0,0.0,0.0,0.0,0.0,0.0,0.0,0.0,0.0,0.0,0.0,0.0,0.0,0.0,0.0,0.0,0.0,0.0,0.0,0.0,0.0,0.0,0.0,0.0,0.0,0.0,0.0,0.0,0.0,0.0,0.0,0.0,0.0,0.0,0.0,0.0,0.0,0.0,0.0,0.0,0.0,0.0,0.0,0.0,0.0,0.0,0.0,0.0,0.0,0.0,0.0,0.0,0.0,0.0,0.0,0.0,0.0,0.0,0.0,0.0,0.0,0.0,0.0,0.0,0.0,0.0,0.0,0.0,0.0,0.0,0.0,0.0,0.0,0.0,0.0,0.0,0.0,0.0,0.0,0.0,0.0,0.0,0.0,0.0,0.0,0.0,0.0,0.0,0.0,0.0,0.0,0.0,0.0,0.0,0.0,0.0,0.0,0.0,0.0,0.0,0.0,0.0,0.0,0.0,0.0,0.0,0.0,0.0,0.0,0.0,0.0,0.0,0.0,0.0,0.0,0.0,0.0,0.0,0.0,0.0,0.0,0.0,0.0,0.0,0.0,0.0,0.0,0.0,0.0,0.0,0.0,0.0,0.0,0.0,0.0,0.0,0.0,0.0,0.0,0.0,0.0,0.0,0.0,0.0,0.0,0.0,0.0,0.0,0.0,0.0,0.0,0.0,0.0,0.0,0.0,0.0,0.0,0.0,0.0,0.0,0.0,0.0,0.0,0.0,0.0,0.0,0.0,0.0,0.0,0.0,0.0,0.0,0.0,0.0,0.0,0.0,0.0,0.0,0.0,0.0,0.0,0.0,0.0,0.0,0.0,0.0,0.0,0.0,0.0,0.0,0.0,0.0,0.0,0.0,0.0,0.0,0.0,0.0,0.0,0.0,0.0,0.0,0.0,0.0,0.0,0.0,0.0,0.0,0.0,0.0,0.0,0.0,0.0,0.0,0.0,0.0,0.0,0.0,0.0,0.0,0.0,0.0,0.0,0.0,0.0,0.0,0.0,0.0,0.0,0.0,0.0,0.0,0.0,0.0,0.0,0.0,0.0,0.0,0.0,0.0,0.0,0.0,0.0,0.0,0.0,0.0,0.0,0.0,0.0,0.0,0.0,0.0,0.0,0.0,0.0,0.0,0.0,0.0,0.0,0.0,0.0,0.0,0.0,0.0,0.0,0.0,0.0,0.0,0.0,0.0,0.0,0.0,0.0,0.0,0.0,0.0,0.0,0.0,0.0,0.0,0.0,0.0,0.0,0.0,0.0,0.0,0.0,0.0,0.0,0.0,0.0,0.0,0.0,0.0,0.0,0.0,0.0,0.0,0.0,0.0,0.0,0.0,0.0,0.0,0.0,0.0,0.0,0.0,0.0,0.0,0.0,0.0,0.0,0.0,0.0,0.0,0.0,0.0,0.0,0.0,0.0,0.0,0.0,0.0,0.0,0.0,0.0,0.0,0.0,0.0,0.0,0.0,0.0,0.0,0.0,0.0,0.0,0.0,0.0,0.0,0.0,0.0,0.0,0.0,0.0,0.0,0.0,0.0,0.0,0.0,0.0,0.0,0.0,0.0,0.0,0.0,0.0,0.0,0.0,0.0,0.0,0.0,0.0,0.0,0.0,0.0,0.0,0.0,0.0,0.0,0.0,0.0,0.0,0.0,0.0,0.0,0.0,0.0,0.0,0.0,0.0,0.0,0.0,0.0,0.0,0.0,0.0,0.0,0.0,0.0,0.0,0.0,0.0,0.0,0.0,0.0,0.0,0.0,0.0,0.0,0.0,0.0,0.0,0.0,0.0,0.0,0.0,0.0,0.0,0.0,0.0,0.0,0.0,0.0,0.0,0.0,0.0,0.0,0.0,0.0,0.0,0.0,0.0,0.0,0.0,0.0,0.0,0.0,0.0,0.0,0.0,0.0,0.0,0.0,0.0,0.0,0.0,0.0,0.0,0.0,0.0,0.0,0.0,0.0,0.0,0.0,0.0,0.0,0.0,0.0,0.0,0.0,0.0,0.0,0.0,0.0,0.0,0.0,0.0,0.0,0.0,0.0,0.0,0.0,0.0,0.0,0.0,0.0,0.0,0.0,0.0,0.0,0.0,0.0,0.0,0.0,0.0,0.0,0.0,0.0,0.0,0.0,0.0,0.0,0.0,0.0,0.0,0.0,0.0,0.0,0.0,0.0,0.0,0.0,0.0,0.0,0.0,0.0,0.0,0.0,0.0,0.0,0.0,0.0,0.0,0.0,0.0,0.0,0.0,0.0,0.0,0.0,0.0,0.0,0.0,0.0,0.0,0.0,0.0,0.0,0.0,0.0,0.0,0.0,0.0,0.0,0.0,0.0,0.0,0.0,0.0,0.0,0.0,0.0,0.0,0.0,0.0,0.0,0.0,0.0,0.0,0.0,0.0,0.0,0.0,0.0,0.0,0.0,0.0,0.0,0.0,0.0,0.0,0.0,0.0,0.0,0.0,0.0,0.0,0.0,0.0,0.0,0.0,0.0,0.0,0.0,0.0,0.0,0.0,0.0,0.0,0.0,0.0,0.0,0.0,0.0,0.0,0.0,0.0,0.0,0.0,0.0,0.0,0.0,0.0,0.0,0.0,0.0,0.0,0.0,0.0,0.0,0.0,0.0,0.0,0.0,0.0,0.0,0.0,0.0,0.0,0.0,0.0,0.0,0.0,0.0,0.0,0.0,0.0,0.0,0.0,0.0,0.0,0.0,0.0,0.0,0.0,0.0,0.0,0.0,0.0,0.0,0.0,0.0,0.0,0.0,0.0,0.0,0.0,0.0,0.0,0.0,0.0,0.0,0.0,0.0,0.0,0.0,0.0,0.0,0.0,0.0,0.0,0.0,0.0,0.0,0.0,0.0,0.0,0.0,0.0,0.0,0.0,0.0,0.0,0.0,0.0,0.0,0.0,0.0,0.0,0.0,0.0,0.0,0.0,0.0,0.0,0.0,0.0,0.0,0.0,0.0,0.0,0.0,0.0,0.0,0.0,0.0,-1.4109,0.0,0.0,0.0,0.0,0.0,0.0,0.0,0.0,0.0,0.0,0.0,0.0,0.0,0.0,0.0,0.0,0.0,0.0,0.0,0.0,0.0,0.0,0.0,0.0,0.0,0.0,0.0,0.0,0.0,0.0,0.0,0.0,0.0,0.0,0.0,0.0,0.0,0.0,0.0,0.0,0.0,0.0,0.0,0.0,0.0,0.0,0.0,0.0,0.0,0.0,0.0,0.0,0.0,0.0,0.0,0.0,0.0,0.0,0.0,0.0,0.0,0.0,0.0,0.0,0.0,0.0,0.0,0.0,0.0,0.0,0.0,0.0,0.0,0.0,0.0,0.0,0.0,0.0,0.0,0.0,0.0,0.0,0.0,0.0,0.0,0.0,0.0,0.0,0.0,0.0,0.0,0.0,0.0,0.0,0.0,0.0,0.0,0.0,0.0,0.0,0.0,0.0,0.0,0.0,0.0,0.0,0.0,0.0,0.0,0.0,-1.4884,-1.5135,-1.4979,-1.4823,-1.4636,0.0,0.0,0.0,0.0,0.0,0.0,0.0,0.0,0.0,0.0,0.0,0.0,0.0,0.0,0.0,0.0,0.0,0.0,0.0,0.0,0.0,0.0,0.0,0.0,0.0,0.0,0.0,0.0,0.0,0.0,0.0,0.0,0.0,0.0,0.0,0.0,0.0,0.0,0.0,0.0,0.0,0.0,0.0,0.0,0.0,0.0,0.0,0.0,0.0,0.0,0.0,0.0,0.0,0.0,0.0,0.0,0.0,0.0,0.0,0.0,0.0,0.0,0.0,0.0,0.0,0.0,0.0,0.0,0.0,0.0,0.0,0.0,0.0,0.0,0.0,0.0,0.0,0.0,0.0,0.0,0.0,0.0,0.0,0.0,0.0,0.0,0.0,0.0,0.0,0.0,0.0,0.0,0.0,0.0,0.0,0.0,0.0,0.0,0.0,0.0,0.0,0.0,0.0,0.0,0.0,0.0,0.0,0.0,0.0,0.0,0.0,0.0,-1.5637,-1.5437,-1.5043,0.0,0.0,0.0,0.0,0.0,0.0,0.0,0.0,0.0,0.0,0.0,0.0,0.0,0.0,0.0,0.0,0.0,0.0,0.0,0.0,0.0,0.0,0.0,0.0,0.0,0.0,0.0,0.0,0.0,0.0,0.0,0.0,0.0,0.0,0.0,0.0,0.0,0.0,0.0,0.0,0.0,0.0,0.0,0.0,0.0,0.0,0.0,0.0,0.0,0.0,0.0,0.0,0.0,0.0,0.0,0.0,0.0,0.0,0.0,0.0,0.0,0.0,0.0,0.0,0.0,0.0,0.0,0.0,0.0,0.0,0.0,0.0,0.0,0.0,0.0,0.0,0.0,0.0,0.0,0.0,0.0,0.0,0.0,0.0,0.0,0.0,0.0,0.0,0.0,0.0,0.0,0.0,0.0,0.0,0.0,0.0,0.0,0.0,0.0,0.0,0.0,0.0,0.0,0.0,0.0,0.0,0.0,0.0,0.0,0.0,-1.5723,-1.5524,-1.6028,0.0,-1.4864,0.0,0.0,0.0,0.0,0.0,0.0,0.0,0.0,0.0,0.0,0.0,0.0,0.0,0.0,0.0,0.0,0.0,0.0,0.0,0.0,0.0,0.0,0.0,0.0,0.0,0.0,0.0,0.0,0.0,0.0,0.0,0.0,0.0,0.0,0.0,0.0,0.0,0.0,0.0,0.0,0.0,0.0,0.0,0.0,0.0,0.0,0.0,0.0,0.0,0.0,0.0,0.0,0.0,0.0,0.0,0.0,0.0,0.0,0.0,0.0,0.0,0.0,0.0,0.0,0.0,0.0,0.0,0.0,0.0,0.0,0.0,0.0,0.0,0.0,0.0,0.0,0.0,0.0,0.0,0.0,0.0,0.0,0.0,0.0,0.0,0.0,0.0,0.0,0.0,0.0,0.0,0.0,0.0,0.0,0.0,0.0,0.0,0.0,0.0,0.0,0.0,0.0,0.0,0.0,0.0,0.0,0.0,0.0,0.0,0.0,-1.6382,-1.6204,-1.6255,-1.5817,0.0,0.0,0.0,0.0,0.0,0.0,0.0,0.0,0.0,0.0,0.0,0.0,0.0,0.0,0.0,0.0,0.0,0.0,0.0,0.0,0.0,0.0,0.0,0.0,0.0,0.0,0.0,0.0,0.0,0.0,0.0,0.0,0.0,0.0,0.0,0.0,0.0,0.0,0.0,0.0,0.0,0.0,0.0,0.0,0.0,0.0,0.0,0.0,0.0,0.0,0.0,0.0,0.0,0.0,0.0,0.0,0.0,0.0,0.0,0.0,0.0,0.0,0.0,0.0,0.0,0.0,0.0,0.0,0.0,0.0,0.0,0.0,0.0,0.0,0.0,0.0,0.0,0.0,0.0,0.0,0.0,0.0,0.0,0.0,0.0,0.0,0.0,0.0,0.0,0.0,0.0,0.0,0.0,0.0,0.0,0.0,0.0,0.0,0.0,0.0,0.0,0.0,0.0,0.0,0.0,0.0,0.0,0.0,0.0,0.0,-1.5919,-1.6602,-1.6586,-1.6139,-1.5504,-1.4745,0.0,0.0,0.0,0.0,0.0,0.0,0.0,0.0,0.0,0.0,0.0,0.0,0.0,0.0,0.0,0.0,0.0,0.0,0.0,0.0,0.0,0.0,0.0,0.0,0.0,0.0,0.0,0.0,0.0,0.0,0.0,0.0,0.0,0.0,0.0,0.0,0.0,0.0,0.0,0.0,0.0,0.0,0.0,0.0,0.0,0.0,0.0,0.0,0.0,0.0,0.0,0.0,0.0,0.0,0.0,0.0,0.0,0.0,0.0,0.0,0.0,0.0,0.0,0.0,0.0,0.0,0.0,0.0,0.0,0.0,0.0,0.0,0.0,0.0,0.0,0.0,0.0,0.0,0.0,0.0,0.0,0.0,0.0,0.0,0.0,0.0,0.0,0.0,0.0,0.0,0.0,0.0,0.0,0.0,0.0,0.0,0.0,0.0,0.0,0.0,0.0,0.0,0.0,0.0,0.0,0.0,0.0,0.0,-1.4637,-1.5368,-1.5964,-1.6385,-1.5547,-1.498,0.0,0.0,0.0,0.0,0.0,0.0,0.0,0.0,0.0,0.0,0.0,0.0,0.0,0.0,0.0,0.0,0.0,0.0,0.0,0.0,0.0,0.0,0.0,0.0,0.0,0.0,0.0,0.0,0.0,0.0,0.0,0.0,0.0,0.0,0.0,0.0,0.0,0.0,0.0,0.0,0.0,0.0,0.0,0.0,0.0,0.0,0.0,0.0,0.0,0.0,0.0,0.0,0.0,0.0,0.0,0.0,0.0,0.0,0.0,0.0,0.0,0.0,0.0,0.0,0.0,0.0,0.0,0.0,0.0,0.0,0.0,0.0,0.0,0.0,0.0,0.0,0.0,0.0,0.0,0.0,0.0,0.0,0.0,0.0,0.0,0.0,0.0,0.0,0.0,0.0,0.0,0.0,0.0,0.0,0.0,0.0,0.0,0.0,0.0,0.0,0.0,0.0,0.0,0.0,0.0,0.0,0.0,0.0,0.0,-1.464,-1.5239,-1.5843,-1.6351,-1.5478,-1.4945,0.0,0.0,0.0,0.0,0.0,0.0,0.0,0.0,0.0,0.0,0.0,0.0,0.0,0.0,0.0,0.0,0.0,0.0,0.0,0.0,0.0,0.0,0.0,0.0,0.0,0.0,0.0,0.0,0.0,0.0,0.0,0.0,0.0,0.0,0.0,0.0,0.0,0.0,0.0,0.0,0.0,0.0,0.0,0.0,0.0,0.0,0.0,0.0,0.0,0.0,0.0,0.0,0.0,0.0,0.0,0.0,0.0,0.0,0.0,0.0,0.0,0.0,0.0,0.0,0.0,0.0,0.0,0.0,0.0,0.0,0.0,0.0,0.0,0.0,0.0,0.0,0.0,0.0,0.0,0.0,0.0,0.0,0.0,0.0,0.0,0.0,0.0,0.0,0.0,0.0,0.0,0.0,0.0,0.0,0.0,0.0,0.0,0.0,0.0,0.0,0.0,0.0,0.0,0.0,0.0,0.0,0.0,0.0,0.0,-1.4589,0.0,-1.5292,-1.562,-1.4998,-1.4592,0.0,0.0,0.0,0.0,0.0,0.0,0.0,0.0,0.0,0.0,0.0,0.0,0.0,0.0,0.0,0.0,0.0,0.0,0.0,0.0,0.0,0.0,0.0,0.0,0.0,0.0,0.0,0.0,0.0,0.0,0.0,0.0,0.0,0.0,0.0,0.0,0.0,0.0,0.0,0.0,0.0,0.0,0.0,0.0,0.0,0.0,0.0,0.0,0.0,0.0,0.0,0.0,0.0,0.0,0.0,0.0,0.0,0.0,0.0,0.0,0.0,0.0,0.0,0.0,0.0,0.0,0.0,0.0,0.0,0.0,0.0,0.0,0.0,0.0,0.0,0.0,0.0,0.0,0.0,0.0,0.0,0.0,0.0,0.0,0.0,0.0,0.0,0.0,0.0,0.0,0.0,0.0,0.0,0.0,0.0,0.0,0.0,0.0,0.0,0.0,0.0,0.0,0.0,0.0,0.0,0.0,0.0,0.0,-1.4705,-1.4499,-1.4393,-1.4309,-1.4131,-1.4002,-1.3897,0.0,0.0,0.0,0.0,0.0,0.0,0.0,0.0,0.0,0.0,0.0,0.0,0.0,0.0,0.0,0.0,0.0,0.0,0.0,0.0,0.0,0.0,0.0,0.0,0.0,0.0,0.0,0.0,0.0,0.0,0.0,0.0,0.0,0.0,0.0,0.0,0.0,0.0,0.0,0.0,0.0,0.0,0.0,0.0,0.0,0.0,0.0,0.0,0.0,0.0,0.0,0.0,0.0,0.0,0.0,0.0,0.0,0.0,0.0,0.0,0.0,0.0,0.0,0.0,0.0,0.0,0.0,0.0,0.0,0.0,0.0,0.0,0.0,0.0,0.0,0.0,0.0,0.0,0.0,0.0,0.0,0.0,0.0,0.0,0.0,0.0,0.0,0.0,0.0,0.0,0.0,0.0,0.0,0.0,0.0,0.0,0.0,0.0,0.0,0.0,0.0,0.0,0.0,0.0,0.0,0.0,0.0,0.0,0.0,-1.4585,-1.438,-1.4232,-1.4101,-1.3959,-1.3862,0.0,0.0,0.0,0.0,0.0,0.0,0.0,0.0,0.0,0.0,0.0,0.0,0.0,0.0,0.0,0.0,0.0,0.0,0.0,0.0,0.0,0.0,0.0,0.0,0.0,0.0,0.0,0.0,0.0,0.0,0.0,0.0,0.0,0.0,0.0,0.0,0.0,0.0,0.0,0.0,0.0,0.0,0.0,0.0,0.0,0.0,0.0,0.0,0.0,0.0,0.0,0.0,0.0,0.0,0.0,0.0,0.0,0.0,0.0,0.0,0.0,0.0,0.0,0.0,0.0,0.0,0.0,0.0,0.0,0.0,0.0,0.0,0.0,0.0,0.0,0.0,0.0,0.0,0.0,0.0,0.0,0.0,0.0,0.0,0.0,0.0,0.0,0.0,0.0,0.0,0.0,0.0,0.0,0.0,0.0,0.0,0.0,0.0,0.0,0.0,0.0,0.0,0.0,0.0,0.0,0.0,0.0,0.0,0.0,-1.4643,-1.4446,-1.427,-1.411,-1.3991,-1.3927,-1.3856,0.0,0.0,0.0,0.0,0.0,0.0,0.0,0.0,0.0,0.0,0.0,0.0,0.0,0.0,0.0,0.0,0.0,0.0,0.0,0.0,0.0,0.0,0.0,0.0,0.0,0.0,0.0,0.0,0.0,0.0,0.0,0.0,0.0,0.0,0.0,0.0,0.0,0.0,0.0,0.0,0.0,0.0,0.0,0.0,0.0,0.0,0.0,0.0,0.0,0.0,0.0,0.0,0.0,0.0,0.0,0.0,0.0,0.0,0.0,0.0,0.0,0.0,0.0,0.0,0.0,0.0,0.0,0.0,0.0,0.0,0.0,0.0,0.0,0.0,0.0,0.0,0.0,0.0,0.0,0.0,0.0,0.0,0.0,0.0,0.0,0.0,0.0,0.0,0.0,0.0,0.0,0.0,0.0,0.0,0.0,0.0,0.0,0.0,0.0,0.0,0.0,0.0,0.0,0.0,0.0,0.0,0.0,0.0,-1.4707,-1.4515,-1.4325,-1.411,-1.4037,-1.3973,0.0,0.0,0.0,0.0,0.0,0.0,0.0,0.0,0.0,0.0,0.0,0.0,0.0,0.0,0.0,0.0,0.0,0.0,0.0,0.0,0.0,0.0,0.0,0.0,0.0,0.0,0.0,0.0,0.0,0.0,0.0,0.0,0.0,0.0,0.0,0.0,0.0,0.0,0.0,0.0,0.0,0.0,0.0,0.0,0.0,0.0,0.0,0.0,0.0,0.0,0.0,0.0,0.0,0.0,0.0,0.0,0.0,0.0,0.0,0.0,0.0,0.0,0.0,0.0,0.0,0.0,0.0,0.0,0.0,0.0,0.0,0.0,0.0,0.0,0.0,0.0,0.0,0.0,0.0,0.0,0.0,0.0,0.0,0.0,0.0,0.0,0.0,0.0,0.0,0.0,0.0,0.0,0.0,0.0,0.0,0.0,0.0,0.0,0.0,0.0,0.0,0.0,0.0,0.0,0.0,0.0,0.0,0.0,0.0,-1.469,-1.4549,-1.4375,-1.4185,-1.4064,-1.397,0.0,0.0,0.0,0.0,0.0,0.0,0.0,0.0,0.0,0.0,0.0,0.0,0.0,0.0,0.0,0.0,0.0,0.0,0.0,0.0,0.0,0.0,0.0,0.0,0.0,0.0,0.0,0.0,0.0,0.0,0.0,0.0,0.0,0.0,0.0,0.0,0.0,0.0,0.0,0.0,0.0,0.0,0.0,0.0,0.0,0.0,0.0,0.0,0.0,0.0,0.0,0.0,0.0,0.0,0.0,0.0,0.0,0.0,0.0,0.0,0.0,0.0,0.0,0.0,0.0,0.0,0.0,0.0,0.0,0.0,0.0,0.0,0.0,0.0,0.0,0.0,0.0,0.0,0.0,0.0,0.0,0.0,0.0,0.0,0.0,0.0,0.0,0.0,0.0,0.0,0.0,0.0,0.0,0.0,0.0,0.0,0.0,0.0,0.0,0.0,0.0,0.0,0.0,0.0,0.0,0.0,0.0,0.0,-1.4894,-1.4785,-1.4654,-1.4488,-1.4288,-1.4119,-1.3966,0.0,0.0,0.0,0.0,0.0,0.0,0.0,0.0,0.0,0.0,0.0,0.0,0.0,0.0,0.0,0.0,0.0,0.0,0.0,0.0,0.0,0.0,0.0,0.0,0.0,0.0,0.0,0.0,0.0,0.0,0.0,0.0,0.0,0.0,0.0,0.0,0.0,0.0,0.0,0.0,0.0,0.0,0.0,0.0,0.0,0.0,0.0,0.0,0.0,0.0,0.0,0.0,0.0,0.0,0.0,0.0,0.0,0.0,0.0,0.0,0.0,0.0,0.0,0.0,0.0,0.0,0.0,0.0,0.0,0.0,0.0,0.0,0.0,0.0,0.0,0.0,0.0,0.0,0.0,0.0,0.0,0.0,0.0,0.0,0.0,0.0,0.0,0.0,0.0,0.0,0.0,0.0,0.0,0.0,0.0,0.0,0.0,0.0,0.0,0.0,0.0,0.0,0.0,0.0,0.0,0.0,0.0,0.0,-1.4987,-1.4905,-1.4764,-1.4618,-1.4441,-1.4154,-1.3977,0.0,0.0,0.0,0.0,0.0,0.0,0.0,0.0,0.0,0.0,0.0,0.0,0.0,0.0,0.0,0.0,0.0,0.0,0.0,0.0,0.0,0.0,0.0,0.0,0.0,0.0,0.0,0.0,0.0,0.0,0.0,0.0,0.0,0.0,0.0,0.0,0.0,0.0,0.0,0.0,0.0,0.0,0.0,0.0,0.0,0.0,0.0,0.0,0.0,0.0,0.0,0.0,0.0,0.0,0.0,0.0,0.0,0.0,0.0,0.0,0.0,0.0,0.0,0.0,0.0,0.0,0.0,0.0,0.0,0.0,0.0,0.0,0.0,0.0,0.0,0.0,0.0,0.0,0.0,0.0,0.0,0.0,0.0,0.0,0.0,0.0,0.0,0.0,0.0,0.0,0.0,0.0,0.0,0.0,0.0,0.0,0.0,0.0,0.0,0.0,0.0,0.0,0.0,0.0,0.0,0.0,0.0,0.0,-1.5019,-1.4902,-1.4766,-1.4666,-1.4549,-1.4301,-1.4105,0.0,0.0,0.0,0.0,0.0,0.0,0.0,0.0,0.0,0.0,0.0,0.0,0.0,0.0,0.0,0.0,0.0,0.0,0.0,0.0,0.0,0.0,0.0,0.0,0.0,0.0,0.0,0.0,0.0,0.0,0.0,0.0,0.0,0.0,0.0,0.0,0.0,0.0,0.0,0.0,0.0,0.0,0.0,0.0,0.0,0.0,0.0,0.0,-0.0706,0.0,0.0,0.0,0.0,0.0,0.0,0.0,0.0,0.0,0.0,0.0,0.0,0.0,0.0,0.0,0.0,0.0,0.0,0.0,0.0,0.0,0.0,0.0,0.0,0.0,0.0,0.0,0.0,0.0,0.0,0.0,0.0,0.0,0.0,0.0,0.0,0.0,0.0,0.0,0.0,0.0,0.0,0.0,0.0,0.0,0.0,0.0,0.0,0.0,0.0,0.0,0.0,0.0,0.0,0.0,0.0,0.0,0.0,0.0,-1.5052,-1.496,-1.485,-1.4747,-1.4635,-1.4446,-1.425,0.0,0.0,0.0,0.0,0.0,0.0,0.0,0.0,0.0,0.0,0.0,0.0,0.0,0.0,0.0,0.0,0.0,0.0,0.0,0.0,0.0,0.0,0.0,0.0,0.0,0.0,0.0,0.0,0.0,0.0,0.0,0.0,0.0,0.0,0.0,0.0,0.0,0.0,0.0,0.0,0.0,0.0,0.0,0.0,0.0,0.0,0.0,0.0,0.0,0.0,0.0,0.0,0.0,0.0,0.0,0.0,0.0,0.0,0.0,0.0,0.0,0.0,0.0,0.0,0.0,0.0,0.0,0.0,0.0,0.0,0.0,0.0,0.0,0.0,0.0,0.0,0.0,0.0,0.0,0.0,0.0,0.0,0.0,0.0,0.0,0.0,0.0,0.0,0.0,0.0,0.0,0.0,0.0,0.0,0.0,0.0,0.0,0.0,0.0,0.0,0.0,0.0,0.0,0.0,0.0,0.0,0.0,-1.5158,-1.5069,-1.5023,-1.4947,-1.4869,-1.4737,-1.46,-1.4411,-1.4175,0.0,0.0,0.0,0.0,0.0,0.0,0.0,0.0,0.0,0.0,0.0,0.0,0.0,0.0,0.0,0.0,0.0,0.0,0.0,0.0,0.0,0.0,0.0,0.0,0.0,0.0,0.0,0.0,0.0,0.0,0.0,0.0,0.0,0.0,0.0,0.0,0.0,0.0,-0.4581,-0.4063,0.0,0.0,0.0,0.0,0.0,0.0,0.0,0.0,0.0822,0.0,0.0,0.0,0.0,0.0,0.0,0.0,0.0,0.0,0.0,0.0,0.0,0.0,0.0,0.0,0.0,0.0,0.0,0.0,0.0,0.0,0.0,0.0,0.0,0.0,0.0,0.0,0.0,0.0,0.0,0.0,0.0,0.0,0.0,0.0,0.0,0.0,0.0,0.0,0.0,0.0,0.0,0.0,0.0,0.0,0.0,0.0,0.0,0.0,0.0,0.0,0.0,0.0,0.0,0.0,0.0,-1.5289,-1.5204,-1.5139,-1.508,-1.5008,-1.4947,-1.4878,-1.4734,-1.4596,-1.4422,0.0,0.0,0.0,0.0,0.0,0.0,0.0,0.0,0.0,0.0,0.0,0.0,0.0,0.0,0.0,0.0,0.0,0.0,0.0,0.0,0.0,0.0,0.0,0.0,0.0,0.0,0.0,0.0,0.0,0.0,0.0,0.0,0.0,0.0,0.0,0.0,0.0,0.0,0.0,-0.4181,-0.3856,0.0,0.0,0.0,0.0,0.0,0.0,0.0,0.0,0.1659,0.0,0.0,0.0,0.0,0.0,0.0,0.0,0.0,0.0,0.0,0.0,0.0,0.0,0.0,0.0,0.0,0.0,0.0,0.0,0.0,0.0,0.0,0.0,0.0,0.0,0.0,0.0,0.0,0.0,0.0,0.0,0.0,0.0,0.0,0.0,0.0,0.0,0.0,0.0,0.0,0.0,0.0,0.0,0.0,0.0,0.0,0.0,0.0,0.0,0.0,0.0,0.0,0.0,0.0,0.0,-1.5289,-1.5251,-1.5234,-1.5158,-1.5087,-1.5008,-1.4965,-1.4822,-1.4707,0.0,0.0,0.0,0.0,0.0,0.0,0.0,0.0,0.0,0.0,0.0,0.0,0.0,0.0,0.0,0.0,0.0,0.0,0.0,0.0,0.0,0.0,0.0,0.0,0.0,0.0,0.0,0.0,0.0,0.0,0.0,0.0,0.0,0.0,0.0,0.0,0.0,0.0,0.0,0.0,-0.4573,-0.4071,-0.3697,0.0,0.0,0.0,0.0,0.0,0.0,0.3057,0.2866,0.0,0.0,0.0,0.0,0.0,0.0,0.0,0.0,0.0,0.0,0.0,0.0,0.0,0.0,0.0,0.0,0.0,0.0,0.0,0.0,0.0,0.0,0.0,0.0,0.0,0.0,0.0,0.0,0.0,0.0,0.0,0.0,0.0,0.0,0.0,0.0,0.0,0.0,0.0,0.0,0.0,0.0,0.0,0.0,0.0,0.0,0.0,0.0,0.0,0.0,0.0,0.0,0.0,0.0,0.0,-1.5327,-1.5311,-1.5284,-1.5206,-1.5139,-1.5094,-1.5027,-1.4909,-1.4813,0.0,0.0,0.0,0.0,0.0,0.0,0.0,0.0,0.0,0.0,0.0,0.0,0.0,0.0,0.0,0.0,0.0,0.0,0.0,0.0,0.0,0.0,0.0,0.0,0.0,0.0,0.0,0.0,0.0,0.0,0.0,0.0,0.0,0.0,0.0,0.0,0.0,0.0,0.0,0.0,0.0,-0.4393,-0.4099,-0.2548,0.0,0.0,0.0,0.0,0.3993,0.3989,0.0,0.0,0.0,0.0,0.0,0.0,0.0,0.0,0.0,0.0,0.0,0.0,0.0,0.0,0.0,0.0,0.0,0.0,0.0,0.0,0.0,0.0,0.0,0.0,0.0,0.0,0.0,0.0,0.0,0.0,0.0,0.0,0.0,0.0,0.0,0.0,0.0,0.0,0.0,0.0,0.0,0.0,0.0,0.0,0.0,0.0,0.0,0.0,0.0,0.0,0.0,0.0,0.0,0.0,0.0,0.0,-1.5387,-1.5316,-1.5292,-1.5293,-1.5231,-1.517,-1.5087,-1.5008,-1.4947,0.0,0.0,0.0,0.0,0.0,0.0,0.0,0.0,0.0,0.0,0.0,0.0,0.0,0.0,0.0,0.0,0.0,0.0,0.0,0.0,0.0,0.0,0.0,0.0,0.0,0.0,0.0,0.0,0.0,0.0,0.0,0.0,0.0,0.0,0.0,0.0,0.0,0.0,0.0,0.0,0.0,-0.4996,-0.4732,-0.3007,-0.1212,0.0,0.0,0.0,0.4081,0.4633,0.0,0.0,0.0,0.0,0.0,0.0,0.0,0.0,0.0,0.0,0.0,0.0,0.0,0.0,0.0,0.0,0.0,0.0,0.0,0.0,0.0,0.0,0.0,0.0,0.0,0.0,0.0,0.0,0.0,0.0,0.0,0.0,0.0,0.0,0.0,0.0,0.0,0.0,0.0,0.0,0.0,0.0,0.0,0.0,0.0,0.0,0.0,0.0,0.0,0.0,0.0,0.0,0.0,0.0,0.0,-1.5912,-1.542,-1.5373,-1.5357,-1.5352,-1.5299,-1.5231,-1.517,-1.5088,-1.5018,0.0,0.0,0.0,0.0,0.0,0.0,0.0,0.0,0.0,0.0,0.0,0.0,0.0,0.0,0.0,0.0,0.0,0.0,0.0,0.0,0.0,0.0,0.0,0.0,0.0,0.0,0.0,0.0,0.0,0.0,0.0,0.0,0.0,0.0,0.0,0.0,0.0,0.0,0.0,0.0,0.0,0.0,-0.475,-0.3418,0.0,0.0,0.0,0.2407,0.4001,0.0,0.0,0.0,0.0,0.0,0.0,0.0,0.0,0.0,0.0,0.0,0.0,0.0,0.0,0.0,0.0,0.0,0.0,0.0,0.0,0.0,0.0,0.0,0.0,0.0,0.0,0.0,0.0,0.0,0.0,0.0,0.0,0.0,0.0,0.0,0.0,0.0,0.0,0.0,0.0,0.0,0.0,0.0,0.0,0.0,0.0,0.0,0.0,0.0,0.0,0.0,0.0,0.0,0.0,0.0,0.0,0.0,-1.544,-1.5415,-1.5407,-1.5412,-1.5349,-1.5288,-1.5222,-1.5168,0.0,0.0,0.0,0.0,0.0,0.0,0.0,0.0,0.0,0.0,0.0,0.0,0.0,0.0,0.0,0.0,0.0,0.0,0.0,0.0,0.0,0.0,0.0,0.0,0.0,0.0,0.0,0.0,0.0,0.0,0.0,0.0,0.0,0.0,0.0,0.0,0.0,0.0,0.0,0.0,0.0,0.0,-0.5368,-0.4754,-0.3774,-0.2529,0.0,0.0,0.1836,0.3406,0.4835,0.5996,0.0,0.0,0.0,0.0,0.0,0.0,0.0,0.0,0.0,0.0,0.0,0.0,0.0,0.0,0.0,0.0,0.0,0.0,0.0,0.0,0.0,0.0,0.0,0.0,0.0,0.0,0.0,0.0,0.0,0.0,0.0,0.0,0.0,0.0,0.0,0.0,0.0,0.0,0.0,0.0,0.0,0.0,0.0,0.0,0.0,0.0,0.0,0.0,0.0,0.0,0.0,0.0,0.0,0.0,0.0,-1.5449,-1.5408,-1.5403,-1.5412,-1.5399,-1.5368,-1.5291,-1.5226,-1.5149,0.0,0.0,0.0,0.0,0.0,0.0,0.0,0.0,0.0,0.0,0.0,0.0,0.0,0.0,0.0,0.0,0.0,0.0,0.0,0.0,0.0,0.0,0.0,0.0,0.0,0.0,0.0,0.0,0.0,0.0,0.0,0.0,0.0,0.0,0.0,0.0,0.0,0.0,0.0,0.0,0.0,-0.5625,-0.4972,-0.402,-0.2851,0.0,0.0,0.088,0.1983,0.3956,0.5575,0.6236,0.0,0.0,0.0,0.0,0.0,0.0,0.0,0.0,0.0,0.0,0.0,0.0,0.0,0.0,0.0,0.0,0.0,0.0,0.0,0.0,0.0,0.0,0.0,0.0,0.0,0.0,0.0,0.0,0.0,0.0,0.0,0.0,0.0,0.0,0.0,0.0,0.0,0.0,0.0,0.0,0.0,0.0,0.0,0.0,0.0,0.0,0.0,0.0,0.0,0.0,0.0,0.0,0.0,-1.7068,-1.6227,-1.5663,-1.541,-1.5408,-1.5419,-1.5379,-1.5297,-1.5291,-1.5226,0.0,0.0,0.0,0.0,0.0,0.0,0.0,0.0,0.0,0.0,0.0,0.0,0.0,0.0,0.0,0.0,0.0,0.0,0.0,0.0,0.0,0.0,0.0,0.0,0.0,0.0,0.0,0.0,-0.9229,-0.9395,-0.9665,0.0,0.0,0.0,0.0,0.0,0.0,0.0,0.0,0.0,0.0,-0.5516,-0.4982,-0.4113,0.0,0.0,-0.0964,-0.0062,0.087,0.2804,0.4534,0.5462,0.7169,0.0,0.0,0.0,0.0,0.0,0.0,0.0,0.0,0.0,0.0,0.0,0.0,0.0,0.0,0.0,0.0,0.0,0.0,0.0,0.0,0.0,0.0,0.0,0.0,0.0,0.0,0.0,0.0,0.0,0.0,0.0,0.0,0.0,0.0,0.0,0.0,0.0,0.0,0.0,0.0,0.0,0.0,0.0,0.0,0.0,0.0,0.0,0.0,0.0,0.0,0.0,0.0,-1.7586,-1.6703,-1.585,-1.5406,-1.541,-1.5409,-1.5377,-1.5309,-1.531,-1.5268,0.0,0.0,0.0,0.0,0.0,0.0,0.0,0.0,0.0,0.0,0.0,0.0,0.0,0.0,0.0,0.0,0.0,0.0,0.0,0.0,0.0,0.0,0.0,0.0,0.0,0.0,0.0,0.0,-0.9495,-0.9738,-1.0205,0.0,0.0,0.0,0.0,0.0,0.0,0.0,0.0,0.0,0.0,-0.5752,-0.527,-0.4629,-0.3814,-0.2751,-0.1993,-0.1239,-0.0354,0.1406,0.315,0.4426,0.0,0.0,0.0,0.0,0.0,0.0,0.0,0.0,0.0,0.0,0.0,0.0,0.0,0.0,0.0,0.0,0.0,0.0,0.0,0.0,0.0,0.0,0.0,0.0,0.0,0.0,0.0,0.0,0.0,0.0,0.0,0.0,0.0,0.0,0.0,0.0,0.0,0.0,0.0,0.0,0.0,0.0,0.0,0.0,0.0,0.0,0.0,0.0,0.0,0.0,0.0,0.0,0.0,0.0,-1.6724,-1.5853,-1.5416,-1.5405,-1.541,-1.5406,-1.5389,-1.5338,-1.528,-1.5298,0.0,0.0,0.0,0.0,0.0,0.0,0.0,0.0,0.0,0.0,0.0,0.0,0.0,0.0,0.0,0.0,0.0,0.0,0.0,0.0,0.0,0.0,0.0,0.0,0.0,0.0,-0.9636,-0.9777,-1.0211,0.0,0.0,0.0,0.0,0.0,0.0,0.0,0.0,0.0,0.0,-0.6647,-0.6484,-0.5943,-0.5692,-0.5101,-0.4075,-0.3364,-0.266,-0.1769,-0.0239,0.1411,0.0,0.0,0.0,0.0,0.0,0.0,0.0,0.0,0.0,0.0,0.0,0.0,0.0,0.0,0.0,0.0,0.0,0.0,0.0,0.0,0.0,0.0,0.0,0.0,0.0,0.0,0.0,0.0,0.0,0.0,0.0,0.0,0.0,0.0,0.0,0.0,0.0,0.0,0.0,0.0,-2.0433,-2.0433,0.0,0.0,0.0,0.0,0.0,0.0,0.0,0.0,0.0,0.0,0.0,0.0,-1.7793,-1.7443,-1.611,-1.5403,-1.5415,-1.5406,-1.541,-1.542,-1.5383,-1.5349,-1.5302,0.0,0.0,0.0,0.0,0.0,0.0,0.0,0.0,0.0,0.0,0.0,0.0,0.0,0.0,0.0,0.0,0.0,0.0,0.0,0.0,0.0,0.0,0.0,0.0,0.0,-1.0041,0.0,0.0,0.0,0.0,0.0,0.0,0.0,0.0,0.0,0.0,0.0,-0.6858,-0.6807,-0.6503,-0.6238,-0.6111,-0.5601,-0.497,0.0,0.0,0.0,0.0,0.0,0.0,0.0,0.0,0.0,0.0,0.0,0.0,0.0,0.0,1.1132,1.223,1.2484,1.2555,1.2641,0.0,0.0,0.0,0.0,0.0,0.0,0.0,0.0,0.0,0.0,0.0,0.0,0.0,0.0,0.0,0.0,-2.2963,0.0,0.0,0.0,0.0,0.0,0.0,0.0,0.0,-2.0353,-2.0365,-2.0357,-2.0349,-2.0399,0.0,-2.0459,-2.0463,0.0,0.0,0.0,0.0,0.0,0.0,0.0,0.0,-1.7921,-1.7828,-1.6253,-1.5412,-1.5407,-1.542,-1.5409,-1.5408,-1.5413,-1.5379,-1.5323,-1.5313,-1.525,0.0,0.0,0.0,0.0,0.0,0.0,0.0,0.0,0.0,0.0,0.0,0.0,0.0,0.0,0.0,0.0,0.0,0.0,0.0,0.0,0.0,0.0,0.0,-1.0328,0.0,0.0,0.0,0.0,0.0,0.0,0.0,0.0,0.0,-0.7362,-0.7155,-0.7039,-0.7042,-0.6738,-0.6525,-0.6525,0.0,0.0,0.0,0.0,0.0,0.0,0.0,-0.0916,0.0661,0.2516,0.4561,0.6829,0.8417,0.9496,0.9751,0.0,0.0,1.1469,1.1706,1.1731,1.1828,1.1408,1.1047,1.1054,1.0595,1.0144,0.0,0.0,0.0,0.0,0.0,0.0,0.0,0.0,-2.3876,-2.3765,0.0,0.0,0.0,0.0,0.0,0.0,0.0,0.0,0.0,0.0,-2.0315,-2.0292,-2.0294,-2.0295,-2.0341,-2.0385,-2.039,-2.0396,-2.0413,-2.0463,0.0,0.0,0.0,0.0,0.0,0.0,-1.7873,-1.7831,-1.624,-1.5404,-1.5403,-1.5416,-1.5406,-1.541,-1.5413,-1.5421,-1.5397,-1.5323,-1.5265,-1.5206,-1.5201,0.0,0.0,0.0,0.0,0.0,0.0,0.0,0.0,0.0,0.0,0.0,0.0,0.0,0.0,0.0,0.0,0.0,0.0,0.0,0.0,-1.0112,0.0,0.0,0.0,0.0,0.0,0.0,0.0,0.0,0.0,0.0,-0.7511,-0.7371,-0.731,-0.7314,0.0,0.0,0.0,0.0,-0.663,-0.6153,-0.5638,-0.503,-0.4232,-0.3206,-0.1995,-0.0487,0.0,0.0,0.6772,0.8038,0.8775,0.9235,0.9429,0.9668,1.0,1.0135,1.0195,1.0234,1.0269,1.0198,1.0195,1.0177,1.0047,-2.6054,0.0,0.0,0.0,0.0,-2.536,-2.5134,-2.4701,-2.4894,-2.4838,-2.461,-2.461,0.0,0.0,0.0,0.0,0.0,0.0,-2.1146,-2.1126,-2.0502,-2.0257,-2.0289,-2.0296,-2.0318,-2.034,-2.0379,-2.0392,-2.0398,-2.0418,-2.0434,-2.0429,0.0,0.0,0.0,0.0,-1.7732,-1.7267,-1.6059,-1.5418,-1.5409,-1.5409,-1.5405,-1.541,-1.542,-1.542,-1.5402,-1.5349,-1.5268,-1.5197,-1.5193,0.0,0.0,0.0,0.0,0.0,0.0,0.0,0.0,0.0,0.0,0.0,0.0,0.0,0.0,0.0,0.0,0.0,0.0,0.0,-1.0167,-1.0137,-1.0631,0.0,0.0,0.0,0.0,0.0,0.0,0.0,0.0,0.0,-0.8415,-0.7894,-0.7513,0.0,0.0,-0.7392,-0.7292,-0.7053,-0.671,-0.6236,0.0,0.0,0.0,-0.3687,-0.2678,-0.1525,0.0875,0.3308,0.527,0.645,0.7335,0.7934,0.8337,0.8688,0.8934,0.9518,0.9923,0.9969,0.9989,0.9978,0.9997,0.9934,0.9876,-2.7226,-2.6401,-2.5743,-2.5456,-2.5451,-2.5397,-2.5361,-2.5341,-2.5293,-2.5253,-2.5262,-2.5241,-2.5231,-2.5203,-2.4875,0.0,0.0,0.0,-2.1943,-2.1905,-2.1062,-2.0706,-2.0704,-2.0403,-2.0262,-2.0292,-2.0339,-2.036,-2.0354,-2.0359,-2.0371,-2.039,0.0,0.0,-1.9854,-1.8552,-1.7568,-1.6885,-1.5912,-1.5413,-1.5404,-1.5407,-1.5404,-1.541,-1.5408,-1.5419,-1.5407,-1.536,-1.5303,-1.524,-1.5236,-1.5193,0.0,0.0,0.0,0.0,0.0,0.0,0.0,0.0,0.0,0.0,0.0,-1.3749,0.0,0.0,0.0,0.0,-1.0483,-1.0195,-1.0164,-1.0394,0.0,0.0,0.0,0.0,0.0,0.0,0.0,-1.0992,-1.011,-0.9478,-0.9314,-0.8853,-0.8473,-0.8391,-0.834,-0.8237,-0.8045,0.0,-0.7412,-0.6945,-0.6453,-0.592,-0.5359,-0.453,-0.3444,-0.1844,0.0424,0.2501,0.3826,0.4875,0.5761,0.6532,0.7102,0.75,0.7803,0.8393,0.9026,0.9444,0.9549,0.9588,0.961,0.9584,0.954,-2.87,-2.7834,-2.6265,-2.559,-2.5572,-2.5447,-2.5379,-2.5367,-2.5252,-2.5184,-2.5176,-2.5106,-2.5087,-2.5046,-2.4266,0.0,0.0,-2.3061,-2.271,-2.2672,-2.1855,-2.1445,-2.135,-2.0638,-2.0288,-2.0292,-2.0289,-2.0299,-2.0302,-2.0302,-2.0334,-2.0379,-2.0379,-1.9953,-1.907,-1.8285,-1.7442,-1.6508,-1.5769,-1.5404,-1.5404,-1.541,-1.5402,-1.5405,-1.541,-1.5409,-1.5403,-1.5405,-1.5363,-1.5313,-1.5295,-1.5284,-1.5217,0.0,0.0,0.0,0.0,0.0,0.0,0.0,0.0,0.0,0.0,0.0,0.0,0.0,0.0,0.0,-1.02,0.0,-1.0078,-1.0741,0.0,0.0,0.0,-1.2957,-1.3339,-1.2623,-1.1925,-1.1566,0.0,0.0,0.0,0.0,-0.9935,-0.978,-0.9609,-0.9428,-0.9141,-0.8772,-0.8448,-0.7925,-0.7452,-0.6921,-0.6304,-0.5465,-0.4081,-0.1929,-0.0091,0.1293,0.2405,0.3273,0.4154,0.5048,0.5663,0.6168,0.6616,0.6898,0.7405,0.8483,0.8864,0.9001,0.9071,0.9098,0.9041,-2.8919,-2.8631,-2.7534,-2.7106,-2.7102,-2.6424,-2.6159,-2.6084,-2.5411,-2.5113,-2.512,-2.5114,-2.5082,-2.5088,-2.4885,-2.4778,-2.474,-2.3914,-2.3545,-2.353,-2.2702,-2.2008,-2.1407,-2.1215,-2.0802,-2.0257,-2.0265,-2.0296,-2.0299,-2.0295,-2.0308,-2.0328,-2.0379,-1.9863,-1.8813,-1.8188,-1.7147,-1.5622,-1.5454,-1.5407,-1.5409,-1.5405,-1.5416,-1.5403,-1.5407,-1.541,-1.5409,-1.5419,-1.5381,-1.5382,-1.5316,-1.5299,-1.5268,-1.5288,0.0,0.0,0.0,0.0,0.0,0.0,0.0,0.0,0.0,-1.3665,-1.2851,0.0,-1.1128,0.0,-1.0155,-1.0075,-0.9943,-1.0608,0.0,0.0,-1.2376,-1.2871,-1.3293,-1.299,-1.2465,-1.1665,-1.1349,-1.1114,-1.0897,-1.0822,-1.0905,-1.1154,-1.0259,-0.9471,-0.922,-0.8907,-0.8552,-0.8187,-0.7724,-0.7152,-0.6643,-0.5507,-0.423,-0.2739,-0.1595,-0.0444,0.0828,0.1724,0.2481,0.3187,0.3937,0.4566,0.5056,0.5472,0.5918,0.6524,0.7424,0.8213,0.833,0.8358,0.8347,-2.9836,-2.9459,-2.8921,-2.8717,-2.863,-2.7465,-2.6943,-2.686,-2.6028,-2.5621,-2.5627,-2.524,-2.505,-2.5063,-2.5063,-2.505,-2.5025,-2.4563,-2.4366,-2.434,-2.3538,-2.2931,-2.2486,-2.1761,-2.1158,-2.0734,-2.0422,-2.0273,-2.0289,-2.0299,-2.0288,-2.0289,-2.0334,-1.9851,-1.889,-1.8227,-1.7249,-1.5917,-1.592,-1.5952,-1.6005,-1.6349,-1.6555,-1.6545,-1.618,-1.5971,-1.5975,-1.5605,-1.5404,-1.5416,-1.5364,-1.5353,-1.5353,-1.5353,-1.534,0.0,0.0,0.0,0.0,0.0,0.0,0.0,0.0,0.0,0.0,0.0,-1.1713,0.0,0.0,0.0,-1.0889,-1.15,-1.2028,-1.224,-1.2785,-1.3201,-1.3278,-1.3139,-1.2795,-1.2205,-1.2061,-1.1911,-1.1691,-1.1629,-1.1627,-1.1781,-1.1047,-1.0386,-1.0052,-0.9714,-0.9367,-0.9012,-0.8537,-0.7885,-0.7078,-0.5897,-0.4751,-0.37,-0.2549,-0.1412,-0.042,0.0426,0.1197,0.1837,0.2515,0.3126,0.3651,0.4199,0.4659,0.5164,0.5969,0.6777,0.7326,0.7446,0.7489,-3.0963,-3.0251,-3.0125,-3.0038,-2.9893,-2.8474,-2.7842,-2.768,-2.6816,-2.6365,-2.6233,-2.547,-2.5091,-2.4996,-2.4996,-2.4996,-2.4991,-2.4999,-2.4993,-2.4955,-2.4333,-2.3995,-2.3816,-2.2295,-2.1503,-2.135,-2.0581,-2.023,-2.0285,-2.0289,-2.0299,-2.0295,-2.0302,-1.9941,-1.9258,-1.8459,-1.7622,-1.6788,-1.6763,-1.6781,-1.6853,-1.7582,-1.7981,-1.7952,-1.7238,-1.6815,-1.6745,-1.6089,-1.5761,-1.582,-1.5663,-1.5563,-1.5565,-1.5466,-1.539,0.0,-1.5387,0.0,0.0,0.0,0.0,0.0,0.0,0.0,0.0,-1.301,-1.2452,-1.2387,-1.2301,-1.2209,-1.2077,-1.2683,-1.3022,-1.2833,-1.3334,-1.3605,-1.3346,-1.319,-1.303,-1.2829,-1.2694,-1.2538,-1.2388,-1.2293,-1.2133,-1.1912,-1.1659,-1.1344,-1.108,-1.0685,-1.0294,-1.0008,-0.9475,-0.8579,-0.7511,-0.6496,-0.5512,-0.4527,-0.3321,-0.2136,-0.1441,-0.0642,0.0113,0.0742,0.1311,0.1873,0.238,0.2993,0.356,0.4038,0.4574,0.5244,0.623,0.6588,0.6629,-3.1217,-3.0991,-3.026,-2.994,-2.9886,-2.9599,-2.9087,-2.8442,-2.7562,-2.6794,-2.614,-2.597,-2.5513,-2.4936,-2.4931,-2.4931,-2.501,-2.4991,-2.4985,-2.4993,-2.4854,-2.4473,-2.3854,-2.2855,-2.2036,-2.1388,-2.0584,-2.0208,-2.023,-2.0265,-2.0289,-2.0299,-2.0295,-2.0212,0.0,0.0,0.0,0.0,-1.7665,-1.7676,-1.7676,-1.7842,-1.7907,-1.7913,-1.7758,0.0,-1.7056,-1.7298,-1.7655,-1.8091,-1.7081,0.0,0.0,0.0,0.0,0.0,0.0,0.0,0.0,0.0,0.0,0.0,-1.5483,-1.5148,-1.3851,-1.2828,-1.2258,-1.2238,-1.2114,-1.2031,-1.196,-1.2588,-1.2931,-1.2776,-1.331,-1.3624,-1.3413,-1.3224,-1.3048,-1.2901,-1.2697,-1.2542,-1.2419,-1.2277,-1.2133,-1.1912,-1.1733,-1.1511,-1.1285,-1.092,-1.0559,-1.0249,-0.9475,-0.8668,-0.7964,-0.7086,-0.6198,-0.5319,-0.4371,-0.3288,-0.2235,-0.1486,-0.0907,-0.0416,0.0349,0.0979,0.1345,0.1866,0.2461,0.2863,0.3277,0.4044,0.5539,0.5999,0.6104,-3.2003,0.0,-3.0703,-3.0234,0.0,0.0,-2.9631,-2.9196,-2.8364,-2.75,-2.6679,-2.628,-2.588,-2.546,-2.5045,-2.4903,-2.4964,-2.4931,-2.4959,-2.4985,-2.4999,-2.4797,-2.4416,-2.3633,-2.3026,-2.259,-2.1397,-2.0794,-2.0783,-2.0433,-2.0265,-2.0308,-2.0299,-2.0288,-2.0289,-1.9926,-1.9144,-1.7929,-1.8321,-1.8543,-1.8551,-1.8959,-1.9177,-1.9169,0.0,0.0,0.0,0.0,0.0,0.0,0.0,0.0,0.0,0.0,0.0,-1.6482,-1.6493,-1.6472,-1.6375,-1.6359,-1.6303,-1.6202,-1.6419,-1.6175,-1.5337,-1.4775,-1.4453,-1.4421,-1.4338,-1.4252,-1.418,-1.4417,-1.4376,-1.3926,-1.4049,-1.4006,-1.3498,-1.3225,-1.3048,-1.2906,-1.2735,-1.2562,-1.2459,-1.2282,-1.2138,-1.197,-1.1798,-1.1601,-1.1399,-1.1038,-1.0656,-1.0161,-0.9502,-0.8816,-0.8248,-0.7521,-0.6776,-0.5984,-0.5079,-0.4147,-0.3256,-0.2496,-0.1842,-0.1318,-0.064,-0.0025,0.0366,0.0973,0.1566,0.1926,0.2345,0.2921,0.4077,0.4718,0.5086,-3.2899,-3.1521,-3.1219,-3.0655,-2.9996,-2.9864,-2.9771,-2.9715,0.0,0.0,0.0,-2.6814,-2.6434,-2.6246,-2.5397,-2.5035,-2.5111,-2.4979,-2.4931,-2.4996,-2.4985,-2.4993,-2.4955,-2.4238,-2.3893,-2.3816,-2.2333,-2.1541,-2.1369,-2.0753,-2.0365,-2.0304,-2.0289,-2.0299,-2.0328,-2.0371,-1.9726,-1.8449,-1.9055,-1.9429,-1.9441,-2.0137,-2.0511,-2.05,-1.9799,-1.943,-1.9391,-1.8722,-1.8325,-1.8341,-1.8196,-1.8105,-1.8092,-1.7907,-1.7758,-1.769,-1.7676,-1.7646,-1.7587,-1.7509,-1.7462,-1.7468,-1.7287,-1.7085,-1.6912,-1.6812,-1.6761,-1.666,-1.6589,-1.6512,-1.6465,-1.6285,-1.5939,-1.5241,-1.4899,-1.4384,-1.3701,-1.3275,-1.3066,-1.2924,-1.2738,-1.2581,-1.2499,-1.2343,-1.2143,-1.1997,-1.1826,-1.163,-1.1407,-1.1062,-1.0594,-1.0059,-0.9528,-0.9069,-0.8523,-0.7878,-0.7207,-0.6584,-0.5702,-0.4896,-0.4234,-0.3456,-0.2717,-0.2147,-0.1599,-0.1059,-0.0596,0.0029,0.0642,0.102,0.1415,0.1866,0.2401,0.3112,0.3682,-3.3488,-3.3129,-3.1637,-3.0958,-3.0789,-3.0091,-2.9771,-2.9698,-2.9585,-2.9042,-2.8237,-2.8124,-2.7746,-2.7083,-2.6217,-2.5872,-2.5899,-2.5225,-2.4898,0.0,-2.4959,-2.4985,-2.4955,-2.4195,-2.385,-2.3835,-2.2895,-2.2086,-2.1464,-2.1283,-2.0889,-2.0307,-2.0285,-2.033,-2.0379,-2.0379,-2.0272,-2.007,-2.0211,-2.0313,-2.0318,-2.043,-2.0512,-2.0493,-2.0376,-2.0294,-2.0211,-2.0095,-2.0041,-2.0034,-1.9345,-1.8902,-1.8834,-1.8217,-1.7754,-1.7627,-1.7608,-1.7589,-1.751,-1.7395,-1.7558,-1.8003,-1.7927,-1.7566,-1.688,-1.6755,-1.6649,-1.6558,-1.6552,-1.6401,-1.6336,-1.6306,-1.6186,-1.5854,-1.5159,-1.4606,-1.4295,-1.3612,-1.3102,-1.2908,-1.2759,-1.2623,-1.2518,-1.2343,-1.2164,-1.2012,-1.1826,-1.1571,-1.1262,-1.0849,-1.0472,-1.0046,-0.9686,-0.9262,-0.8745,-0.8213,-0.7598,-0.7008,-0.6295,-0.5557,-0.4934,-0.416,-0.3457,-0.3001,-0.2409,-0.1892,-0.1461,-0.1093,-0.0588,-0.0128,0.036,0.0762,0.1125,0.1515,0.2004,-3.3998,-3.3467,-3.2693,-3.2071,-3.1544,-3.0735,-3.0114,-2.9701,-2.9682,-2.9476,-2.9082,-2.8613,-2.8218,-2.7841,-2.7031,-2.6691,-2.672,-2.5869,-2.5521,-2.5527,-2.5139,-2.4959,-2.4966,-2.4658,-2.4511,-2.4498,-2.3705,-2.3097,-2.2745,-2.2325,-2.1675,-2.086,-2.048,-2.0315,-2.0334,-2.0379,-2.0385,-2.0394,-2.0434,-2.0464,-2.0507,-2.0507,-2.0507,-2.0507,-2.0507,-2.0464,-2.0381,-2.038,-2.0383,-2.0398,-1.9967,-1.974,-1.9706,-1.9289,-1.9022,-1.8952,-1.8935,-1.8868,-1.8806,-1.865,-1.8639,-1.8826,-1.8727,-1.8474,-1.8084,-1.795,-1.7869,-1.7803,-1.7683,-1.7577,-1.7542,-1.7397,-1.7163,-1.669,-1.5848,-1.5102,-1.4568,-1.3747,-1.3136,-1.2961,-1.2813,-1.2662,-1.2574,-1.2343,-1.2164,-1.2054,-1.182,-1.1519,-1.1247,-1.0944,-1.0594,-1.016,-0.9764,-0.9369,-0.8949,-0.8477,-0.7927,-0.7412,-0.6837,-0.626,-0.5665,-0.4963,-0.4415,-0.3879,-0.3325,-0.2789,-0.2276,-0.1863,-0.1439,-0.0935,-0.0658,-0.035,-0.0,0.0287,0.0872,-3.445,-3.3765,-3.3556,-3.2953,-3.2048,-3.1221,-3.0546,-2.9964,-2.9795,-2.9701,-2.9589,-2.8988,-2.8688,-2.8595,-2.7843,-2.7503,-2.7443,-2.6688,-2.6305,-2.6291,-2.5546,-2.5196,-2.5237,-2.5158,-2.5082,-2.5044,-2.4445,-2.4099,-2.3842,-2.3252,-2.2421,-2.1455,-2.0828,-2.05,-2.0299,-2.036,-2.0386,-2.0385,-2.0394,-2.0415,-2.0483,-2.0488,-2.0507,-2.0507,-2.0488,-2.0444,-2.041,-2.0383,-2.0392,-2.0373,-2.033,-2.0304,-2.0288,-2.0153,-2.0098,-2.0078,-2.0026,-1.9949,-1.9868,-1.9705,-1.9541,-1.9405,-1.9264,-1.9186,-1.912,-1.8983,-1.8896,-1.8861,-1.8626,-1.8532,-1.8495,-1.8358,-1.8046,-1.7491,-1.6643,-1.5788,-1.4927,-1.4053,-1.3339,-1.3097,-1.2869,-1.2719,-1.2581,-1.2403,-1.2205,-1.2054,-1.182,-1.1556,-1.1353,-1.1099,-1.0777,-1.0348,-0.988,-0.9502,-0.919,-0.8712,-0.8223,-0.7724,-0.7255,-0.6755,-0.6199,-0.5727,-0.5244,-0.4688,-0.4247,-0.3663,-0.3021,-0.2589,-0.2148,-0.1638,-0.1405,-0.124,-0.0894,-0.0627,-0.0062,-3.4711,-3.4461,-3.3759,-3.2912,-3.2067,-3.1278,-3.0922,-3.0715,-3.0039,-2.9701,-2.972,-2.9608,-2.957,-2.9457,-2.8688,-2.8294,-2.8256,-2.7501,-2.7175,-2.7107,-2.6348,-2.6034,-2.5996,-2.5359,-2.5057,-2.5082,-2.4986,-2.4572,-2.3984,-2.3823,-2.2974,-2.1589,-2.1393,-2.1004,-2.0396,-2.0301,-2.0354,-2.0386,-2.0385,-2.0408,-2.042,-2.0464,-2.0507,-2.0507,-2.0439,-2.041,-2.0399,-2.0385,-2.0373,-2.032,-2.0296,-2.028,-2.0209,-2.0145,-2.006,-2.0009,-1.9936,-1.9847,-1.9725,-1.967,-1.9541,-1.9405,-1.9282,-1.9166,-1.9117,-1.9052,-1.8949,-1.8807,-1.8678,-1.8603,-1.8581,-1.8426,-1.8258,-1.8101,-1.7337,-1.6544,-1.5678,-1.4873,-1.407,-1.3168,-1.301,-1.2799,-1.2662,-1.2503,-1.2323,-1.2054,-1.1848,-1.163,-1.1429,-1.1224,-1.0982,-1.0583,-1.0148,-0.9738,-0.9328,-0.8894,-0.8421,-0.7956,-0.7491,-0.7047,-0.6626,-0.616,-0.5727,-0.5345,-0.4966,-0.4428,-0.3796,-0.3368,-0.2876,-0.2321,-0.2023,-0.1863,-0.1639,-0.1396,-0.0834,-3.4747,-3.4607,-3.4247,-3.3625,-3.2874,-3.2518,-3.2086,-3.1579,-3.126,-3.0865,-3.0434,-3.0415,-3.0133,-2.9664,-2.9326,-2.9176,-2.9119,-2.8349,-2.797,-2.7997,-2.7201,-2.6605,-2.6171,-2.591,-2.5538,-2.5076,-2.5082,-2.4936,-2.4591,-2.4137,-2.3528,-2.2823,-2.1943,-2.1289,-2.0996,-2.0527,-2.0313,-2.0334,-2.0386,-2.0385,-2.0388,-2.0424,-2.0448,-2.0448,-2.0429,-2.0374,-2.0377,-2.0347,-2.0314,-2.0299,-2.0265,-2.0216,-2.0155,-2.0089,-2.002,-1.9996,-1.9881,-1.9806,-1.9699,-1.9638,-1.9573,-1.9487,-1.9329,-1.9216,-1.9168,-1.9104,-1.9001,-1.8896,-1.8788,-1.8677,-1.8601,-1.8487,-1.8388,-1.8223,-1.753,-1.6824,-1.645,-1.5282,-1.429,-1.3822,-1.3314,-1.2906,-1.2738,-1.2506,-1.2323,-1.2112,-1.1912,-1.1696,-1.1527,-1.1339,-1.1123,-1.0801,-1.0436,-0.9995,-0.9514,-0.9112,-0.8662,-0.8223,-0.7821,-0.7432,-0.7008,-0.6665,-0.6299,-0.5882,-0.5508,-0.4979,-0.4205,-0.3828,-0.3411,-0.2843,-0.246,-0.2274,-0.2253,-0.2091,-0.1674,-3.4708,-3.4623,-3.4602,-3.4264,-3.3719,-3.3494,-3.3043,-3.2461,-3.2217,-3.1767,-3.1241,-3.0996,-3.0603,-3.0058,-2.9795,-2.9701,-2.9608,-2.9044,-2.8816,-2.8829,-2.8053,-2.7365,-2.6892,-2.6408,-2.5961,-2.5411,-2.5152,-2.5082,-2.5031,-2.4541,-2.4118,-2.3758,-2.2679,-2.1867,-2.1451,-2.0872,-2.0508,-2.032,-2.034,-2.0379,-2.0359,-2.0371,-2.0383,-2.0394,-2.0388,-2.0383,-2.0379,-2.0334,-2.0301,-2.0296,-2.0241,-2.0182,-2.0108,-2.005,-1.999,-1.9971,-1.9873,-1.977,-1.9699,-1.9638,-1.9555,-1.9483,-1.9393,-1.9282,-1.92,-1.9135,-1.9034,-1.8913,-1.8861,-1.877,-1.8604,-1.8544,-1.8445,-1.8258,-1.7688,-1.728,-1.6887,-1.5799,-1.5056,-1.4651,-1.3937,-1.3193,-1.2843,-1.2562,-1.2323,-1.2221,-1.2033,-1.1841,-1.1681,-1.1497,-1.1285,-1.1029,-1.0681,-1.0248,-0.9712,-0.9328,-0.8921,-0.8505,-0.8138,-0.7763,-0.7403,-0.7095,-0.6811,-0.6352,-0.6006,-0.5567,-0.4871,-0.4401,-0.3783,-0.3128,-0.2753,-0.2672,-0.2745,-0.2605,-0.2448,-3.4666,-3.4623,-3.4602,-3.4545,-3.4489,-3.3757,-3.34,-3.3287,-3.2536,-3.2105,-3.1973,-3.1316,-3.0884,-3.0772,-3.0077,-2.972,-2.9683,-2.9608,-2.9606,-2.9583,-2.8921,-2.8558,-2.8468,-2.6986,-2.6219,-2.6056,-2.5354,-2.5038,-2.5082,-2.5044,-2.465,-2.3931,-2.3717,-2.2955,-2.1752,-2.1451,-2.1043,-2.0462,-2.0357,-2.0308,-2.0289,-2.0308,-2.0334,-2.0383,-2.0377,-2.0379,-2.0379,-2.0334,-2.0299,-2.0292,-2.0252,-2.0153,-2.0098,-2.003,-1.9969,-1.9908,-1.9844,-1.9763,-1.9718,-1.9638,-1.9573,-1.9516,-1.9372,-1.9277,-1.9219,-1.915,-1.9049,-1.8913,-1.8895,-1.8807,-1.8641,-1.8563,-1.8448,-1.831,-1.8266,-1.7821,-1.7116,-1.6815,-1.6393,-1.5612,-1.4685,-1.3812,-1.2962,-1.26,-1.2439,-1.2318,-1.2159,-1.2012,-1.1805,-1.1667,-1.1466,-1.1192,-1.0873,-1.0485,-0.9982,-0.954,-0.9139,-0.8756,-0.8404,-0.8072,-0.7763,-0.7432,-0.7116,-0.6794,-0.646,-0.6027,-0.552,-0.4866,-0.4128,-0.3534,-0.3146,-0.3053,-0.304,-0.3078,-0.2918,-3.4666,-3.4602,-3.4602,-3.4602,-3.4564,-3.4282,-3.417,-3.4151,-3.3832,-3.34,-3.2949,-3.263,-3.1916,-3.0865,-3.0621,-3.019,-2.972,-2.9701,-2.9738,-2.9753,-2.9506,-2.9125,-2.86,-2.7536,-2.6716,-2.6181,-2.5403,-2.4999,-2.5025,-2.507,-2.4968,-2.4631,-2.414,-2.3553,-2.2917,-2.1943,-2.1299,-2.1043,-2.0597,-2.0292,-2.0301,-2.0288,-2.0295,-2.0334,-2.0341,-2.0341,-2.0334,-2.0313,-2.0277,-2.0238,-2.0214,-2.0134,-2.004,-1.9977,-1.9922,-1.9896,-1.9794,-1.9738,-1.9718,-1.9638,-1.9587,-1.9497,-1.942,-1.9311,-1.9216,-1.9168,-1.9119,-1.8983,-1.8913,-1.8843,-1.8752,-1.8639,-1.8506,-1.8406,-1.8307,-1.8159,-1.7742,-1.7267,-1.672,-1.6191,-1.5121,-1.4043,-1.3573,-1.297,-1.2522,-1.2383,-1.2257,-1.2091,-1.1891,-1.1718,-1.1519,-1.127,-1.1015,-1.0681,-1.0236,-0.9762,-0.9366,-0.9015,-0.8684,-0.8375,-0.8052,-0.7715,-0.7423,-0.7077,-0.6794,-0.6318,-0.5751,-0.4937,-0.4242,-0.3689,-0.3326,-0.3249,-0.3268,-0.3212,-0.3123,-3.4645,-3.4602,-3.4602,-3.4602,-3.4602,-3.4602,-3.4602,-3.4602,-3.4602,-3.4282,-3.3813,-3.3531,-3.2762,-3.1729,-3.1166,-3.064,-3.0077,-2.9833,-2.9738,-2.9771,-2.9789,-2.954,-2.9036,-2.8275,-2.7441,-2.6531,-2.5503,-2.4991,-2.4999,-2.5044,-2.5057,-2.5013,-2.4505,-2.4129,-2.3744,-2.2764,-2.202,-2.15,-2.0933,-2.0592,-2.0349,-2.0292,-2.0299,-2.0294,-2.0308,-2.0288,-2.0288,-2.0292,-2.0273,-2.0203,-2.0197,-2.0144,-2.0011,-1.9934,-1.9884,-1.9884,-1.977,-1.9725,-1.9705,-1.9638,-1.9555,-1.9516,-1.9453,-1.9378,-1.9251,-1.92,-1.9153,-1.9035,-1.8948,-1.886,-1.8788,-1.8697,-1.8584,-1.8445,-1.8348,-1.8287,-1.8215,-1.7662,-1.7143,-1.6559,-1.5473,-1.4579,-1.4045,-1.3216,-1.2707,-1.2467,-1.2323,-1.2159,-1.1991,-1.1783,-1.1586,-1.1399,-1.1108,-1.0801,-1.0436,-1.0034,-0.9593,-0.922,-0.8894,-0.8589,-0.8308,-0.8003,-0.7715,-0.7393,-0.6969,-0.6493,-0.583,-0.5035,-0.4375,-0.3779,-0.3481,-0.3376,-0.336,-0.3295,-0.3173,-3.4602,-3.4602,-3.4602,-3.4602,-3.4602,-3.4602,-3.4602,-3.4602,-3.4602,-3.4545,-3.4358,-3.3794,-3.34,-3.2987,-3.1785,-3.0997,-3.0677,-3.0114,-2.9813,-2.979,-2.9789,-2.9823,-2.9737,-2.8941,-2.8066,-2.7191,-2.5749,-2.501,-2.4991,-2.501,-2.5004,-2.5012,-2.4955,-2.4575,-2.395,-2.3725,-2.2993,-2.1914,-2.1512,-2.1088,-2.0419,-2.0331,-2.0289,-2.0299,-2.0292,-2.0284,-2.0304,-2.0281,-2.0257,-2.0216,-2.0209,-2.0117,-2.0001,-1.9945,-1.9884,-1.9892,-1.9776,-1.9718,-1.9686,-1.9638,-1.9573,-1.9497,-1.9501,-1.9424,-1.9314,-1.9235,-1.9152,-1.9086,-1.8983,-1.886,-1.8807,-1.8734,-1.8658,-1.8506,-1.8388,-1.8307,-1.826,-1.8113,-1.7628,-1.6787,-1.5841,-1.5074,-1.4278,-1.338,-1.277,-1.2588,-1.2412,-1.2241,-1.2075,-1.1869,-1.1674,-1.1489,-1.1239,-1.0944,-1.0632,-1.0336,-0.9867,-0.9434,-0.9101,-0.8773,-0.8523,-0.8231,-0.7956,-0.7637,-0.7225,-0.6725,-0.5869,-0.51,-0.4633,-0.4119,-0.3835,-0.3516,-0.3462,-0.3389,-0.3246,-3.4602,-3.4602,-3.4602,-3.4602,-3.4602,-3.4602,-3.4602,-3.4602,-3.4602,-3.4602,-3.4545,-3.432,-3.3926,-3.34,-3.2799,-3.1992,-3.0941,-3.0621,-3.0246,-2.983,-2.979,-2.9842,-2.9742,-2.9074,-2.7972,-2.6626,-2.5522,-2.4991,-2.4991,-2.4991,-2.4991,-2.5004,-2.4999,-2.4892,-2.4613,-2.4124,-2.3492,-2.3078,-2.198,-2.1302,-2.1069,-2.0521,-2.023,-2.0235,-2.0235,-2.0254,-2.03,-2.0246,-2.0203,-2.0205,-2.019,-2.0145,-2.002,-1.9934,-1.9896,-1.9892,-1.9763,-1.9705,-1.9705,-1.9638,-1.9569,-1.9508,-1.9497,-1.9438,-1.9326,-1.9248,-1.9184,-1.9101,-1.9017,-1.8949,-1.8878,-1.8807,-1.8732,-1.8598,-1.8485,-1.8388,-1.8284,-1.8134,-1.7837,-1.7388,-1.629,-1.5382,-1.4815,-1.3812,-1.2827,-1.2646,-1.2467,-1.2302,-1.2117,-1.1955,-1.1762,-1.1578,-1.133,-1.1099,-1.0777,-1.051,-1.0161,-0.9724,-0.9343,-0.8992,-0.8717,-0.8439,-0.8184,-0.7811,-0.7403,-0.678,-0.5943,-0.5307,-0.4846,-0.4342,-0.3908,-0.3702,-0.3575,-0.3431,-0.33,-3.509,-3.5052,-3.4714,-3.4602,-3.4602,-3.4602,-3.4602,-3.4602,-3.4602,-3.4602,-3.4602,-3.4583,-3.4339,-3.3851,-3.355,-3.2837,-3.1804,-3.1241,-3.064,-3.0133,-2.9848,-2.9844,-2.9763,-2.9058,-2.8048,-2.6759,-2.5844,-2.5275,-2.4991,-2.4991,-2.4991,-2.4991,-2.5004,-2.498,-2.4974,-2.4506,-2.4181,-2.374,-2.2855,-2.2066,-2.1464,-2.0918,-2.0495,-2.0252,-2.0195,-2.0222,-2.0249,-2.0233,-2.0205,-2.0197,-2.0153,-2.0079,-2.0001,-1.9934,-1.9884,-1.9873,-1.977,-1.9712,-1.9705,-1.9633,-1.9564,-1.9536,-1.9493,-1.9468,-1.9357,-1.928,-1.92,-1.9134,-1.9086,-1.9019,-1.8949,-1.8861,-1.8788,-1.8694,-1.8561,-1.8426,-1.8284,-1.8155,-1.8005,-1.7555,-1.6488,-1.5698,-1.5108,-1.3988,-1.295,-1.2738,-1.2581,-1.2399,-1.22,-1.2018,-1.1841,-1.1645,-1.1444,-1.1178,-1.092,-1.0656,-1.0399,-1.0034,-0.9646,-0.9274,-0.8949,-0.8662,-0.841,-0.7956,-0.752,-0.6878,-0.6083,-0.5609,-0.5127,-0.4586,-0.4003,-0.3794,-0.3623,-0.3432,-0.3257,-3.5953,-3.5859,-3.5033,-3.4733,-3.4714,-3.4639,-3.4602,-3.4602,-3.4602,-3.4602,-3.4602,-3.4602,-3.4583,-3.4395,-3.3869,-3.3419,-3.3118,-3.1728,-3.0978,-3.064,-3.0169,-2.9842,-2.978,-2.9074,-2.8275,-2.7536,-2.6569,-2.5792,-2.5237,-2.5067,-2.4991,-2.4991,-2.4991,-2.5004,-2.498,-2.4974,-2.4588,-2.4055,-2.3812,-2.2996,-2.175,-2.1502,-2.1091,-2.0399,-2.0361,-2.0312,-2.0216,-2.019,-2.0182,-2.0171,-2.0079,-2.0011,-2.0,-1.9934,-1.9884,-1.9884,-1.9763,-1.9719,-1.9699,-1.9647,-1.9569,-1.9532,-1.9508,-1.9487,-1.9424,-1.9329,-1.9266,-1.92,-1.9137,-1.907,-1.9019,-1.8949,-1.8861,-1.8788,-1.8601,-1.8423,-1.8236,-1.8194,-1.8108,-1.7705,-1.6618,-1.5576,-1.5429,-1.4036,-1.3176,-1.2867,-1.2729,-1.2503,-1.2323,-1.2123,-1.1891,-1.1718,-1.1541,-1.1353,-1.1108,-1.0873,-1.0608,-1.0311,-0.9919,-0.9555,-0.9139,-0.8855,-0.8523,-0.808,-0.7646,-0.6961,-0.6348,-0.5874,-0.5266,-0.459,-0.4165,-0.3885,-0.3682,-0.3514,-0.3342,-3.6761,-3.6686,-3.5897,-3.5559,-3.5465,-3.4902,-3.4602,-3.4602,-3.4602,-3.4602,-3.4602,-3.4602,-3.4602,-3.4564,-3.4376,-3.3982,-3.3287,-3.2292,-3.141,-3.0847,-3.0132,-2.9861,-2.9739,-2.9093,-2.8616,-2.818,-2.7005,-2.6091,-2.583,-2.5332,-2.5048,-2.4991,-2.4991,-2.4991,-2.4991,-2.5004,-2.4904,-2.4626,-2.4068,-2.3693,-2.3134,-2.252,-2.1883,-2.1177,-2.1082,-2.0746,-2.0276,-2.0144,-2.0136,-2.0117,-2.004,-1.9981,-1.999,-1.9922,-1.9896,-1.9884,-1.9794,-1.9713,-1.9707,-1.9655,-1.9601,-1.9587,-1.9536,-1.9493,-1.9487,-1.9357,-1.9295,-1.9248,-1.9168,-1.9084,-1.9052,-1.9019,-1.8932,-1.8806,-1.862,-1.8445,-1.8322,-1.8236,-1.8151,-1.7915,-1.6595,-1.5784,-1.5233,-1.4193,-1.3081,-1.2922,-1.2738,-1.2565,-1.2403,-1.2241,-1.2054,-1.1869,-1.1696,-1.1519,-1.1293,-1.1062,-1.0825,-1.0545,-1.0223,-0.988,-0.941,-0.8965,-0.8589,-0.8176,-0.7869,-0.7289,-0.6674,-0.6135,-0.5394,-0.4767,-0.4405,-0.4168,-0.3886,-0.3703,-0.3505,-3.7606,-3.753,-3.6742,-3.6216,-3.5859,-3.5353,-3.494,-3.4639,-3.4602,-3.4602,-3.4602,-3.4602,-3.4602,-3.4602,-3.4583,-3.4358,-3.3832,-3.3025,-3.2198,-3.1317,-3.0301,-2.988,-2.9758,-2.9339,-2.9036,-2.8619,-2.7725,-2.691,-2.6261,-2.5712,-2.537,-2.5048,-2.4991,-2.4991,-2.4991,-2.4991,-2.4991,-2.491,-2.4505,-2.417,-2.3776,-2.3362,-2.2718,-2.1977,-2.1597,-2.0967,-2.0269,-2.0127,-2.0108,-2.0088,-2.002,-1.999,-1.9988,-1.9934,-1.9896,-1.9896,-1.9806,-1.9738,-1.9701,-1.9668,-1.9628,-1.9601,-1.9546,-1.9522,-1.9483,-1.9405,-1.9344,-1.9282,-1.9216,-1.9168,-1.9084,-1.9018,-1.8932,-1.8806,-1.8639,-1.8505,-1.8388,-1.8304,-1.8236,-1.779,-1.6795,-1.5671,-1.5561,-1.4147,-1.33,-1.2942,-1.2797,-1.2642,-1.2503,-1.2359,-1.2216,-1.2018,-1.1848,-1.1674,-1.1511,-1.127,-1.0991,-1.0715,-1.0348,-1.0046,-0.9621,-0.9101,-0.8756,-0.8421,-0.807,-0.7654,-0.7006,-0.6429,-0.5865,-0.5314,-0.4859,-0.454,-0.432,-0.4017,-0.3783,-3.845,-3.8375,-3.7549,-3.6798,-3.6235,-3.5972,-3.5446,-3.4827,-3.4658,-3.4602,-3.4602,-3.4602,-3.4602,-3.4602,-3.4602,-3.4583,-3.4508,-3.3625,-3.2724,-3.1712,-3.0658,-3.0012,-2.9872,-2.9813,-2.9453,-2.896,-2.879,-2.7877,-2.6892,-2.6418,-2.5825,-2.5338,-2.5124,-2.4991,-2.4991,-2.4991,-2.4991,-2.4991,-2.4929,-2.4581,-2.4176,-2.3935,-2.3534,-2.2718,-2.1729,-2.1081,-2.047,-2.0193,-2.0088,-2.0088,-2.0019,-1.9998,-1.9988,-1.9934,-1.99,-1.9896,-1.983,-1.9763,-1.9726,-1.9707,-1.9686,-1.9614,-1.9541,-1.9504,-1.9479,-1.9453,-1.9393,-1.9347,-1.9335,-1.9235,-1.9099,-1.8999,-1.8913,-1.8807,-1.8715,-1.8601,-1.8487,-1.8388,-1.8284,-1.8111,-1.6789,-1.5919,-1.5276,-1.4318,-1.3137,-1.3066,-1.2904,-1.2738,-1.26,-1.2479,-1.2323,-1.2179,-1.1997,-1.1848,-1.1652,-1.1466,-1.1178,-1.0873,-1.046,-1.0097,-0.9738,-0.9316,-0.9003,-0.8673,-0.8326,-0.7891,-0.7316,-0.6774,-0.6295,-0.5831,-0.534,-0.5133,-0.4938,-0.4533,-0.424,-3.9295,-3.9239,-3.8413,-3.7943,-3.7587,-3.646,-3.5803,-3.5522,-3.4846,-3.4602,-3.4602,-3.4602,-3.4602,-3.4602,-3.4602,-3.4602,-3.4489,-3.3719,-3.2669,-3.128,-3.0997,-3.039,-3.0063,-2.9948,-2.9813,-2.9491,-2.896,-2.8502,-2.7934,-2.691,-2.6133,-2.592,-2.5338,-2.4991,-2.4991,-2.4991,-2.4991,-2.4991,-2.4991,-2.4929,-2.4758,-2.4632,-2.4277,-2.3438,-2.2206,-2.1406,-2.1024,-2.047,-2.0107,-2.0049,-2.0019,-1.9988,-1.9985,-1.9941,-1.9908,-1.9896,-1.9842,-1.9794,-1.9757,-1.9732,-1.9675,-1.9673,-1.9596,-1.956,-1.9504,-1.9497,-1.9453,-1.9393,-1.9347,-1.9248,-1.9115,-1.9034,-1.8966,-1.8896,-1.8807,-1.8696,-1.8584,-1.841,-1.8325,-1.7945,-1.6861,-1.5803,-1.5663,-1.4223,-1.3409,-1.3204,-1.3012,-1.2848,-1.2716,-1.2581,-1.2443,-1.2302,-1.2179,-1.2012,-1.182,-1.1601,-1.1285,-1.0968,-1.0583,-1.0236,-0.988,-0.9567,-0.9247,-0.8921,-0.8561,-0.8105,-0.7627,-0.7173,-0.6683,-0.6251,-0.5864,-0.5628,-0.536,-0.4973,-0.4686,-3.962,-3.9564,-3.9089,-3.845,-3.7662,-3.6817,-3.601,-3.5296,-3.4827,-3.4602,-3.4602,-3.4602,-3.4602,-3.4602,-3.4602,-3.4602,-3.4414,-3.3776,-3.2987,-3.2182,-3.177,-3.1129,-3.0541,-3.0368,-3.0307,-2.9926,-2.951,-2.9112,-2.8487,-2.782,-2.7024,-2.6242,-2.5754,-2.5356,-2.5048,-2.5029,-2.4991,-2.4991,-2.4991,-2.4991,-2.4991,-2.498,-2.4639,-2.3964,-2.298,-2.2295,-2.1358,-2.0928,-2.045,-2.0115,-1.9991,-1.9998,-1.9974,-1.9952,-1.9949,-1.9896,-1.9873,-1.9837,-1.9788,-1.9745,-1.9719,-1.9699,-1.9628,-1.9555,-1.9513,-1.9489,-1.9483,-1.9405,-1.936,-1.9298,-1.915,-1.9086,-1.9018,-1.8913,-1.8843,-1.8751,-1.8622,-1.8487,-1.8368,-1.8026,-1.6851,-1.6102,-1.5306,-1.4192,-1.3495,-1.3206,-1.3118,-1.294,-1.2794,-1.2678,-1.2597,-1.2459,-1.2338,-1.2195,-1.1991,-1.1711,-1.1353,-1.1038,-1.0705,-1.0386,-1.0097,-0.9802,-0.9514,-0.9166,-0.8811,-0.8477,-0.8032,-0.756,-0.7148,-0.6821,-0.6451,-0.6116,-0.5794,-0.551,-0.5222,-3.962,-3.962,-3.962,-3.8694,-3.738,-3.7117,-3.6235,-3.4977,-3.4639,-3.4602,-3.4602,-3.4602,-3.4602,-3.4602,-3.4602,-3.4602,-3.4433,-3.402,-3.3475,-3.31,-3.2596,-3.1939,-3.1336,-3.1013,-3.0708,-3.0116,-2.9869,-2.9472,-2.9055,-2.8692,-2.7877,-2.6797,-2.6451,-2.6072,-2.5446,-2.52,-2.5181,-2.5048,-2.4991,-2.5004,-2.5004,-2.5012,-2.4689,-2.4281,-2.3801,-2.3002,-2.1922,-2.1339,-2.089,-2.0097,-2.0011,-2.0,-1.9977,-1.9993,-1.9971,-1.9896,-1.9884,-1.988,-1.9801,-1.9745,-1.9719,-1.9699,-1.9641,-1.9587,-1.9546,-1.9499,-1.9475,-1.945,-1.939,-1.9311,-1.9235,-1.9135,-1.9052,-1.8966,-1.8878,-1.8788,-1.8658,-1.8582,-1.8467,-1.8101,-1.6978,-1.5985,-1.5308,-1.4432,-1.3783,-1.3224,-1.3137,-1.3066,-1.2904,-1.2792,-1.2697,-1.262,-1.2503,-1.2282,-1.2081,-1.1841,-1.1466,-1.1169,-1.0825,-1.0559,-1.0299,-1.0046,-0.975,-0.9381,-0.9031,-0.8728,-0.8393,-0.7968,-0.7607,-0.7334,-0.6975,-0.6557,-0.6282,-0.6019,-0.5728,-3.962,-3.962,-3.962,-3.8995,-3.8056,-3.738,-3.6498,-3.5653,-3.4846,-3.4602,-3.4602,-3.4602,-3.4602,-3.4602,-3.4602,-3.4602,-3.4545,-3.4301,-3.4001,-3.3588,-3.3235,-3.2786,-3.2071,-3.1581,-3.1126,-3.0765,-3.0345,-2.9869,-2.951,-2.9017,-2.8544,-2.8142,-2.7574,-2.6925,-2.6394,-2.6072,-2.5598,-2.52,-2.5042,-2.4999,-2.5012,-2.5038,-2.5038,-2.4712,-2.4328,-2.3509,-2.2593,-2.1761,-2.0986,-2.0203,-2.0098,-2.005,-2.002,-2.0009,-1.9966,-1.993,-1.9896,-1.9873,-1.9806,-1.9788,-1.9745,-1.9719,-1.9681,-1.9641,-1.9587,-1.9527,-1.9485,-1.9442,-1.9402,-1.9326,-1.9282,-1.9184,-1.9119,-1.9052,-1.9002,-1.8896,-1.8806,-1.8696,-1.8565,-1.8266,-1.7016,-1.5831,-1.5311,-1.4605,-1.3752,-1.3294,-1.3225,-1.3155,-1.3048,-1.2957,-1.2864,-1.2738,-1.2646,-1.2412,-1.2149,-1.1912,-1.1608,-1.1353,-1.1038,-1.0767,-1.0523,-1.0299,-0.9995,-0.9646,-0.9301,-0.8976,-0.8645,-0.828,-0.7927,-0.7608,-0.7285,-0.6966,-0.6678,-0.6372,-0.6126,-3.962,-3.9564,-3.9126,-3.8432,-3.7624,-3.6817,-3.601,-3.524,-3.4771,-3.4602,-3.4602,-3.4602,-3.4602,-3.4602,-3.4602,-3.4602,-3.4602,-3.4602,-3.4358,-3.4038,-3.3984,-3.3612,-3.2898,-3.2392,-3.1769,-3.1239,-3.0671,-3.0232,-2.9907,-2.9547,-2.9093,-2.8638,-2.8256,-2.7763,-2.7058,-2.6432,-2.6105,-2.5649,-2.5297,-2.5025,-2.5038,-2.5082,-2.5113,-2.4996,-2.4771,-2.4173,-2.3389,-2.2527,-2.1704,-2.0947,-2.0402,-2.0184,-2.0069,-2.0059,-2.0019,-1.9963,-1.9908,-1.9873,-1.98,-1.9801,-1.9776,-1.9713,-1.9707,-1.9668,-1.9628,-1.9574,-1.9527,-1.9485,-1.9413,-1.9341,-1.9311,-1.9248,-1.9184,-1.9119,-1.9069,-1.8984,-1.8878,-1.8788,-1.8622,-1.8307,-1.7005,-1.6061,-1.5623,-1.4795,-1.3769,-1.3379,-1.3294,-1.3225,-1.3189,-1.3084,-1.2993,-1.2848,-1.2722,-1.2526,-1.2271,-1.2024,-1.1762,-1.1519,-1.1247,-1.0982,-1.0718,-1.0498,-1.0236,-0.9919,-0.9581,-0.9274,-0.8894,-0.8533,-0.8184,-0.784,-0.7559,-0.7264,-0.7005,-0.6734,-0.6482,-3.9333,-3.9258,-3.8413,-3.7587,-3.6817,-3.6197,-3.5428,-3.4714,-3.4602,-3.4602,-3.4602,-3.4602,-3.4602,-3.4602,-3.4602,-3.4602,-3.4602,-3.4602,-3.4564,-3.4526,-3.4529,-3.4172,-3.378,-3.3332,-3.275,-3.1902,-3.1107,-3.0671,-3.004,-2.9832,-2.9491,-2.9169,-2.896,-2.8673,-2.8025,-2.7395,-2.6878,-2.6417,-2.5779,-2.5317,-2.5165,-2.5132,-2.513,-2.5187,-2.5198,-2.4769,-2.3918,-2.3323,-2.2403,-2.1559,-2.0868,-2.0391,-2.0174,-2.0117,-2.0069,-2.0017,-1.996,-1.9896,-1.983,-1.9813,-1.9788,-1.9745,-1.9713,-1.9675,-1.9636,-1.9596,-1.9555,-1.9499,-1.946,-1.9402,-1.9372,-1.9311,-1.9264,-1.9182,-1.9135,-1.907,-1.8967,-1.8861,-1.8752,-1.809,-1.6941,-1.6255,-1.5817,-1.4762,-1.3664,-1.3496,-1.343,-1.3346,-1.3294,-1.3208,-1.3103,-1.294,-1.2776,-1.262,-1.2388,-1.2169,-1.1918,-1.1696,-1.1429,-1.1178,-1.092,-1.0656,-1.0398,-1.0173,-0.9919,-0.9581,-0.9182,-0.8773,-0.841,-0.807,-0.7821,-0.7569,-0.7273,-0.7005,-0.6764,-3.845,-3.8375,-3.7587,-3.6779,-3.6104,-3.5916,-3.539,-3.4658,-3.4602,-3.4602,-3.4602,-3.4602,-3.4602,-3.4602,-3.4602,-3.4602,-3.4602,-3.4602,-3.4602,-3.4602,-3.4583,-3.4526,-3.4323,-3.3688,-3.3388,-3.2712,-3.1751,-3.0708,-3.0156,-2.9983,-2.9869,-2.968,-2.962,-2.962,-2.9235,-2.8453,-2.8388,-2.7942,-2.686,-2.5888,-2.5352,-2.5222,-2.5176,-2.5198,-2.5163,-2.4896,-2.4255,-2.3813,-2.3141,-2.194,-2.1528,-2.0973,-2.0372,-2.0135,-2.0117,-2.0069,-2.0028,-1.996,-1.9896,-1.9849,-1.9813,-1.977,-1.9745,-1.9682,-1.9656,-1.9623,-1.9569,-1.9499,-1.9471,-1.9475,-1.9431,-1.9372,-1.9308,-1.9261,-1.9214,-1.9152,-1.9052,-1.8949,-1.8861,-1.8396,-1.74,-1.6607,-1.5993,-1.4742,-1.3657,-1.361,-1.3529,-1.3463,-1.3379,-1.3311,-1.3191,-1.3015,-1.2887,-1.2735,-1.2542,-1.2327,-1.2107,-1.1854,-1.163,-1.1384,-1.1132,-1.0897,-1.0656,-1.0398,-1.0148,-0.9766,-0.9267,-0.8882,-0.8563,-0.8336,-0.808,-0.7802,-0.7519,-0.7273,-0.7017,-3.7211,-3.753,-3.6761,-3.6216,-3.5841,-3.5371,-3.4958,-3.4658,-3.4602,-3.4602,-3.4602,-3.4602,-3.4602,-3.4602,-3.4602,-3.4602,-3.4602,-3.4602,-3.4602,-3.4602,-3.4602,-3.4602,-3.4529,-3.4229,-3.3949,-3.3351,-3.2693,-3.1788,-3.0897,-3.0135,-2.9907,-2.9907,-2.9907,-2.9867,-2.9861,-2.9156,-2.8787,-2.8203,-2.7262,-2.6331,-2.5907,-2.5497,-2.522,-2.5241,-2.5243,-2.5033,-2.4736,-2.4215,-2.4098,-2.3328,-2.2934,-2.1823,-2.1171,-2.0868,-2.0737,-2.0108,-2.0079,-2.0028,-1.996,-1.9854,-1.9818,-1.9794,-1.977,-1.9726,-1.9701,-1.9649,-1.9601,-1.9574,-1.9513,-1.9504,-1.9508,-1.945,-1.9387,-1.9357,-1.9292,-1.9232,-1.9152,-1.9069,-1.8893,-1.8394,-1.7878,-1.7116,-1.6202,-1.4908,-1.3953,-1.3702,-1.3641,-1.3577,-1.3496,-1.3413,-1.326,-1.3086,-1.2979,-1.285,-1.2662,-1.2487,-1.2271,-1.2045,-1.1848,-1.1608,-1.1362,-1.1132,-1.0873,-1.0608,-1.0323,-0.9894,-0.9365,-0.9015,-0.877,-0.8535,-0.8336,-0.7978,-0.7633,-0.756,-0.7259,-3.6122,-3.6385,-3.5822,-3.5578,-3.5522,-3.4864,-3.4602,-3.4602,-3.4602,-3.4602,-3.4602,-3.4602,-3.4602,-3.4602,-3.4602,-3.4602,-3.4602,-3.4602,-3.4602,-3.4602,-3.4602,-3.4602,-3.4583,-3.451,-3.4266,-3.3744,-3.3388,-3.2561,-3.1542,-3.0688,-3.0175,-2.9926,-2.9907,-2.9924,-2.9788,-2.9494,-2.914,-2.8717,-2.7561,-2.6799,-2.6362,-2.5625,-2.5348,-2.5273,-2.5303,-2.5332,-2.5225,-2.4838,-2.4836,-2.4411,-2.3777,-2.2722,-2.1993,-2.1507,-2.1165,-2.0594,-2.0346,-2.0069,-2.0017,-1.9941,-1.9854,-1.983,-1.9794,-1.977,-1.9682,-1.9649,-1.9628,-1.9647,-1.9574,-1.9546,-1.9532,-1.9508,-1.946,-1.9416,-1.9372,-1.9311,-1.9232,-1.9152,-1.9033,-1.8712,-1.8194,-1.7586,-1.6542,-1.517,-1.4335,-1.3909,-1.3746,-1.3686,-1.3609,-1.3512,-1.3362,-1.3209,-1.3087,-1.2997,-1.2832,-1.2642,-1.2431,-1.2246,-1.2039,-1.1826,-1.1586,-1.1339,-1.1099,-1.0825,-1.0481,-0.9936,-0.934,-0.9141,-0.8911,-0.8372,-0.7921,-0.7866,-0.7694,-0.7597,-0.7281,-3.5446,-3.4771,-3.4733,-3.4714,-3.4733,-3.4639,-3.4602,-3.4602,-3.4602,-3.4602,-3.4602,-3.4602,-3.4602,-3.4602,-3.4602,-3.4602,-3.4602,-3.4602,-3.4602,-3.4602,-3.4602,-3.4602,-3.4602,-3.4583,-3.4548,-3.4323,-3.3913,-3.3107,-3.2204,-3.1371,-3.065,-3.0021,-2.9926,-2.994,-2.9969,-2.9863,-2.9556,-2.9052,-2.8044,-2.7225,-2.6576,-2.5838,-2.5321,-2.5313,-2.5361,-2.5388,-2.5387,-2.5241,-2.4979,-2.4555,-2.4218,-2.3623,-2.2835,-2.2233,-2.1803,-2.1376,-2.0852,-2.0604,-2.0498,-2.0169,-1.996,-1.9896,-1.983,-1.9794,-1.9726,-1.9713,-1.9707,-1.9686,-1.9614,-1.9601,-1.9587,-1.9546,-1.9518,-1.9475,-1.9431,-1.9353,-1.9311,-1.9232,-1.9097,-1.8922,-1.8529,-1.8007,-1.7271,-1.5992,-1.4908,-1.4462,-1.3886,-1.3826,-1.3686,-1.3592,-1.3496,-1.3362,-1.3261,-1.3123,-1.2997,-1.2832,-1.2662,-1.2467,-1.2282,-1.2039,-1.1811,-1.1564,-1.1293,-1.0875,-1.0494,-0.9924,-0.9341,-0.8905,-0.8406,-0.7842,-0.7528,-0.7602,-0.7407,-0.7138,-0.6761,-3.4902,-3.4602,-3.4602,-3.4602,-3.4602,-3.4602,-3.4602,-3.4602,-3.4602,-3.4602,-3.4602,-3.4602,-3.4602,-3.4602,-3.4602,-3.4602,-3.4602,-3.4602,-3.4602,-3.4602,-3.4602,-3.4602,-3.4602,-3.4602,-3.4583,-3.4548,-3.4214,-3.3427,-3.2317,-3.1939,-3.1009,-3.0326,-2.9981,-2.994,-3.0022,-3.0117,-2.997,-2.9526,-2.856,-2.7585,-2.7245,-2.6034,-2.5361,-2.536,-2.5367,-2.5395,-2.5393,-2.544,-2.5236,-2.5023,-2.4891,-2.4362,-2.3774,-2.321,-2.2761,-2.235,-2.1807,-2.1626,-2.1264,-2.0688,-1.9974,-1.9919,-1.9866,-1.983,-1.9782,-1.977,-1.9745,-1.9725,-1.9686,-1.9673,-1.9641,-1.9601,-1.956,-1.955,-1.9508,-1.9431,-1.9372,-1.9311,-1.923,-1.9075,-1.8879,-1.8554,-1.7775,-1.6911,-1.5904,-1.5013,-1.4435,-1.393,-1.3793,-1.3702,-1.3608,-1.3511,-1.3412,-1.3278,-1.3157,-1.3015,-1.2887,-1.2697,-1.2483,-1.2246,-1.2003,-1.1768,-1.1475,-1.1019,-1.0439,-0.9791,-0.9161,-0.8499,-0.7988,-0.7583,-0.7449,-0.7496,-0.7172,-0.6707,-0.634,-3.4602,-3.4602,-3.4602,-3.4602,-3.4602,-3.4602,-3.4602,-3.4602,-3.4602,-3.4602,-3.4602,-3.4602,-3.4602,-3.4602,-3.4602,-3.4602,-3.4602,-3.4602,-3.4602,-3.4602,-3.4602,-3.4602,-3.4602,-3.4623,-3.4623,-3.4645,-3.4572,-3.3937,-3.2827,-3.2524,-3.1614,-3.0682,-3.0054,-2.9991,-3.0053,-3.0157,-3.0253,-2.9941,-2.9106,-2.8044,-2.7758,-2.6622,-2.5571,-2.5511,-2.5393,-2.5401,-2.5429,-2.5484,-2.5484,-2.5426,-2.534,-2.51,-2.4667,-2.4246,-2.3805,-2.3356,-2.2964,-2.2822,-2.2336,-2.1434,-2.0397,-2.0437,-2.0025,-1.9945,-1.9861,-1.9825,-1.977,-1.9738,-1.9719,-1.9712,-1.9694,-1.9655,-1.9633,-1.9606,-1.955,-1.9508,-1.9464,-1.942,-1.9341,-1.9243,-1.9081,-1.8922,-1.8273,-1.7387,-1.6008,-1.5084,-1.4413,-1.3998,-1.393,-1.3838,-1.3746,-1.3671,-1.3576,-1.3445,-1.3295,-1.3158,-1.3033,-1.2832,-1.2604,-1.2423,-1.2185,-1.194,-1.1652,-1.1233,-1.0583,-0.971,-0.8934,-0.826,-0.7815,-0.7441,-0.7277,-0.707,-0.6713,-0.6255,-0.6071,-3.4602,-3.4602,-3.4602,-3.4602,-3.4602,-3.4602,-3.4602,-3.4602,-3.4602,-3.4602,-3.4602,-3.4602,-3.4602,-3.4602,-3.4602,-3.4602,-3.4602,-3.4602,-3.4602,-3.4602,-3.4602,-3.4602,-3.4602,-3.4623,-3.4645,-3.4687,-3.4632,-3.4298,-3.345,-3.275,-3.1896,-3.1111,-3.0402,-3.0038,-3.0117,-3.0245,-3.0337,-3.0263,-2.9478,-2.8702,-2.7865,-2.6968,-2.6195,-2.5575,-2.5401,-2.5437,-2.5464,-2.5484,-2.5511,-2.5503,-2.5503,-2.536,-2.5216,-2.4637,-2.4273,-2.4094,-2.3383,-2.303,-2.2803,-2.1857,-2.1433,-2.1083,-2.0538,-2.0134,-1.9957,-1.9854,-1.9818,-1.9806,-1.977,-1.9713,-1.9701,-1.9694,-1.9686,-1.966,-1.9606,-1.9564,-1.9555,-1.953,-1.9435,-1.9387,-1.9323,-1.9167,-1.8627,-1.7781,-1.6191,-1.5112,-1.441,-1.4096,-1.4026,-1.397,-1.3894,-1.3806,-1.3733,-1.3606,-1.3461,-1.3295,-1.314,-1.2944,-1.2741,-1.2549,-1.2347,-1.2102,-1.1788,-1.1454,-1.0714,-0.984,-0.8905,-0.8018,-0.7562,-0.7125,-0.6724,-0.6441,-0.6102,-0.5909,-0.5795,-3.4602,-3.4602,-3.4602,-3.4602,-3.4602,-3.4602,-3.4602,-3.4602,-3.4602,-3.4602,-3.4602,-3.4602,-3.4602,-3.4602,-3.4602,-3.4602,-3.4602,-3.4602,-3.4602,-3.4602,-3.4602,-3.4602,-3.4623,-3.4645,-3.4666,-3.4727,-3.4711,-3.4413,-3.3564,-3.2938,-3.2101,-3.1279,-3.0559,-3.02,-3.0171,-3.0253,-3.0349,-3.0244,-2.9586,-2.8781,-2.7971,-2.7131,-2.6309,-2.5514,-2.5456,-2.5464,-2.5492,-2.5511,-2.5511,-2.5511,-2.5511,-2.5484,-2.5456,-2.5012,-2.4985,-2.493,-2.4508,-2.4557,-2.433,-2.3669,-2.2566,-2.1798,-2.105,-2.0541,-2.0115,-1.996,-1.9908,-1.9854,-1.98,-1.9775,-1.9782,-1.9713,-1.9707,-1.9675,-1.9636,-1.9614,-1.9606,-1.9583,-1.9541,-1.9479,-1.9431,-1.907,-1.8585,-1.8229,-1.6904,-1.5699,-1.5002,-1.4373,-1.4168,-1.4096,-1.4023,-1.3938,-1.3851,-1.3761,-1.3638,-1.3461,-1.3295,-1.3105,-1.2909,-1.2706,-1.2491,-1.2266,-1.2003,-1.1709,-1.0831,-0.9945,-0.8997,-0.8095,-0.7309,-0.6778,-0.6547,-0.6337,-0.6169,-0.596,-0.5729,-3.4602,-3.4602,-3.4602,-3.4602,-3.4602,-3.4602,-3.4602,-3.4602,-3.4602,-3.4602,-3.4602,-3.4602,-3.4602,-3.4602,-3.4602,-3.4602,-3.4602,-3.4602,-3.4602,-3.4602,-3.4602,-3.4623,-3.4645,-3.4687,-3.4728,-3.4768,-3.4791,-3.4566,-3.415,-3.3352,-3.2414,-3.1416,-3.0596,-3.0289,-3.0234,-3.0286,-3.0355,-3.0183,-2.9629,-2.8801,-2.7971,-2.7157,-2.6326,-2.5735,-2.5511,-2.5511,-2.5511,-2.5511,-2.5511,-2.5511,-2.5511,-2.5511,-2.5511,-2.5503,-2.5484,-2.5456,-2.5401,-2.5365,-2.5097,-2.4917,-2.3765,-2.2681,-2.1847,-2.11,-2.0505,-2.0226,-2.0031,-1.9911,-1.9877,-1.9854,-1.983,-1.9782,-1.9751,-1.9751,-1.9732,-1.9694,-1.9686,-1.9665,-1.9625,-1.9578,-1.9495,-1.9059,-1.8717,-1.8301,-1.767,-1.6623,-1.5618,-1.5018,-1.4389,-1.4234,-1.4145,-1.4078,-1.398,-1.388,-1.3746,-1.3606,-1.3445,-1.3278,-1.3087,-1.2855,-1.2665,-1.2447,-1.219,-1.1885,-1.1081,-1.0201,-0.9119,-0.8208,-0.7563,-0.7039,-0.6689,-0.6465,-0.6266,-0.6032,-0.5774,-3.4602,-3.4602,-3.4602,-3.4602,-3.4602,-3.4602,-3.4602,-3.4602,-3.4602,-3.4602,-3.4602,-3.4602,-3.4602,-3.4602,-3.4602,-3.4602,-3.4602,-3.4602,-3.4602,-3.4602,-3.4602,-3.4645,-3.4666,-3.4708,-3.4769,-3.4868,-3.4907,-3.487,-3.4831,-3.3728,-3.2597,-3.1531,-3.0614,-3.0343,-3.0267,-3.0304,-3.0371,-3.0216,-2.962,-2.8811,-2.7989,-2.7147,-2.6334,-2.5762,-2.5511,-2.5511,-2.5511,-2.5511,-2.5511,-2.5511,-2.5511,-2.5511,-2.5511,-2.5511,-2.5511,-2.5484,-2.5429,-2.5421,-2.5374,-2.5241,-2.4934,-2.382,-2.2565,-2.1799,-2.1149,-2.0622,-2.0323,-2.0072,-1.9952,-1.9919,-1.9915,-1.9884,-1.9873,-1.9849,-1.9813,-1.9788,-1.9795,-1.9757,-1.9699,-1.9641,-1.9614,-1.9396,-1.9263,-1.8864,-1.8406,-1.7649,-1.6651,-1.5741,-1.5105,-1.4367,-1.4281,-1.4216,-1.4123,-1.398,-1.3865,-1.3763,-1.3591,-1.3412,-1.3226,-1.3016,-1.2832,-1.2639,-1.2388,-1.1999,-1.1358,-1.0505,-0.9629,-0.8743,-0.792,-0.7458,-0.7027,-0.6604,-0.642,-0.6129,-0.5863,-3.4602,-3.4602,-3.4602,-3.4602,-3.4602,-3.4602,-3.4602,-3.4602,-3.4602,-3.4602,-3.4602,-3.4602,-3.4602,-3.4602,-3.4602,-3.4602,-3.4602,-3.4602,-3.4602,-3.4602,-3.4623,-3.4645,-3.4706,-3.4768,-3.481,-3.4888,-3.4946,-3.4964,-3.4677,-3.3798,-3.2588,-3.1475,-3.0655,-3.0382,-3.0292,-3.0348,-3.0414,-3.0188,-2.9553,-2.8763,-2.7939,-2.7078,-2.6285,-2.5704,-2.5511,-2.5511,-2.5511,-2.5511,-2.5511,-2.5511,-2.5511,-2.5511,-2.5511,-2.5511,-2.5511,-2.5511,-2.5484,-2.5484,-2.5456,-2.5421,-2.5239,-2.4883,-2.3857,-2.263,-2.1847,-2.1235,-2.0775,-2.0449,-2.0207,-2.0186,-2.0039,-1.9941,-1.9911,-1.9889,-1.9884,-1.9873,-1.9849,-1.9825,-1.977,-1.9745,-1.9701,-1.9662,-1.9561,-1.9479,-1.9,-1.8458,-1.772,-1.6762,-1.5833,-1.5105,-1.4417,-1.4355,-1.4224,-1.4119,-1.4026,-1.3897,-1.3731,-1.3557,-1.3362,-1.3192,-1.2979,-1.2776,-1.2581,-1.2175,-1.158,-1.0972,-1.0293,-0.9418,-0.857,-0.7889,-0.7427,-0.6954,-0.6525,-0.6242,-0.5961,-3.4602,-3.4602,-3.4602,-3.4602,-3.4602,-3.4602,-3.4602,-3.4602,-3.4602,-3.4602,-3.4602,-3.4602,-3.4602,-3.4602,-3.4602,-3.4602,-3.4602,-3.4602,-3.4602,-3.4623,-3.4623,-3.4687,-3.4747,-3.4848,-3.4907,-3.4946,-3.5001,-3.5075,-3.4651,-3.3538,-3.2301,-3.1536,-3.0733,-3.0426,-3.0355,-3.0379,-3.0414,-3.0004,-2.938,-2.8579,-2.7776,-2.6904,-2.6033,-2.5646,-2.553,-2.5511,-2.5511,-2.5511,-2.5511,-2.5511,-2.5511,-2.5511,-2.5511,-2.5511,-2.5511,-2.5511,-2.5511,-2.5511,-2.5492,-2.5453,-2.5426,-2.5302,-2.4919,-2.4025,-2.3011,-2.2305,-2.1579,-2.0977,-2.0718,-2.0458,-2.0199,-1.9977,-1.9955,-1.9926,-1.9934,-1.9922,-1.9911,-1.9889,-1.9866,-1.9835,-1.98,-1.9782,-1.9745,-1.9751,-1.9619,-1.9082,-1.854,-1.7863,-1.6855,-1.5901,-1.5038,-1.449,-1.4374,-1.4232,-1.4145,-1.404,-1.3897,-1.3731,-1.3557,-1.3362,-1.3157,-1.2924,-1.2719,-1.2337,-1.1871,-1.1298,-1.0782,-1.0083,-0.9308,-0.8612,-0.7899,-0.7354,-0.6854,-0.6383,-0.6081,-3.4602,-3.4602,-3.4602,-3.4623,-3.4604,-3.4623,-3.4623,-3.4623,-3.4623,-3.4602,-3.4602,-3.4602,-3.4602,-3.4602,-3.4602,-3.4602,-3.4623,-3.4623,-3.4623,-3.4623,-3.4687,-3.4747,-3.4827,-3.4907,-3.4965,-3.502,-3.5037,-3.5013,-3.4568,-3.3394,-3.2096,-3.1577,-3.074,-3.0355,-3.0379,-3.0398,-3.0383,-3.0166,-2.908,-2.801,-2.7583,-2.6613,-2.5511,-2.553,-2.5511,-2.5511,-2.5519,-2.5519,-2.5511,-2.5511,-2.5519,-2.5519,-2.5519,-2.5511,-2.5511,-2.5519,-2.5519,-2.5507,-2.5515,-2.5503,-2.5495,-2.5495,-2.5468,-2.4904,-2.4099,-2.3262,-2.2478,-2.1808,-2.1512,-2.1072,-2.0775,-2.0527,-2.0411,-2.0181,-2.0019,-2.0009,-1.9998,-1.9977,-1.9955,-1.9934,-1.9889,-1.9854,-1.9849,-1.9844,-1.9788,-1.9482,-1.9214,-1.8678,-1.7901,-1.6861,-1.5937,-1.5018,-1.4788,-1.4654,-1.4257,-1.4159,-1.4054,-1.3912,-1.3731,-1.3542,-1.3329,-1.3087,-1.285,-1.2508,-1.214,-1.1739,-1.1223,-1.0579,-0.9928,-0.9218,-0.8502,-0.7828,-0.7253,-0.6712,-0.6242,-3.4602,-3.4623,-3.4645,-3.4685,-3.4687,-3.4747,-3.4747,-3.4747,-3.4687,-3.4645,-3.4623,-3.4602,-3.4602,-3.4602,-3.4602,-3.4602,-3.4623,-3.4663,-3.4666,-3.4687,-3.4747,-3.4809,-3.4868,-3.4927,-3.5002,-3.5075,-3.507,-3.474,-3.391,-3.2713,-3.178,-3.1488,-3.0746,-3.0367,-3.0398,-3.0398,-3.0344,-3.029,-2.8877,-2.7981,-2.7739,-2.6586,-2.5511,-2.5507,-2.5507,-2.5522,-2.551,-2.5517,-2.5517,-2.5517,-2.5517,-2.5517,-2.5517,-2.5522,-2.5522,-2.551,-2.5522,-2.551,-2.5517,-2.5524,-2.5505,-2.5505,-2.5498,-2.5386,-2.495,-2.421,-2.3503,-2.2842,-2.2296,-2.1818,-2.1302,-2.1063,-2.0776,-2.0413,-2.0089,-2.0089,-2.0089,-2.0059,-2.0039,-1.9998,-1.9966,-1.9952,-1.9938,-1.9903,-1.9849,-1.9788,-1.9719,-1.9338,-1.877,-1.7905,-1.7076,-1.6207,-1.5545,-1.5221,-1.4726,-1.4257,-1.4145,-1.404,-1.3897,-1.3698,-1.3492,-1.3227,-1.2961,-1.2738,-1.2427,-1.2077,-1.1697,-1.1162,-1.0505,-0.9826,-0.917,-0.853,-0.7784,-0.7197,-0.6636,-3.4602,-3.4604,-3.4666,-3.4727,-3.4747,-3.4788,-3.4788,-3.4788,-3.4768,-3.4708,-3.4666,-3.4645,-3.4602,-3.4602,-3.4602,-3.4645,-3.4645,-3.4685,-3.4727,-3.4747,-3.4809,-3.4868,-3.4907,-3.4983,-3.5057,-3.5108,-3.4647,-3.4082,-3.3,-3.2244,-3.1519,-3.1079,-3.0508,-3.0367,-3.0398,-3.041,-3.039,-3.0317,-2.8751,-2.8068,-2.7798,-2.6511,-2.5577,-2.5515,-2.5522,-2.5517,-2.5505,-2.5511,-2.5511,-2.5511,-2.5511,-2.5511,-2.5511,-2.5517,-2.5524,-2.5505,-2.5505,-2.5524,-2.5538,-2.5544,-2.5525,-2.5544,-2.5544,-2.5473,-2.542,-2.473,-2.435,-2.3739,-2.3407,-2.2948,-2.1769,-2.1252,-2.0812,-2.0411,-2.023,-2.0144,-2.0144,-2.0135,-2.0108,-2.005,-2.002,-2.0009,-1.9996,-1.9963,-1.9911,-1.9908,-1.9877,-1.9835,-1.9322,-1.8922,-1.809,-1.7272,-1.6527,-1.5833,-1.527,-1.4708,-1.4263,-1.4145,-1.404,-1.3789,-1.3539,-1.3312,-1.3085,-1.2887,-1.2716,-1.251,-1.2097,-1.1651,-1.1147,-1.052,-0.9903,-0.9265,-0.8488,-0.7685,-0.7123,-3.4623,-3.4604,-3.4687,-3.4768,-3.4809,-3.4809,-3.4829,-3.4809,-3.4827,-3.4827,-3.4807,-3.4706,-3.4645,-3.4623,-3.4645,-3.4666,-3.4727,-3.4747,-3.4768,-3.4809,-3.4887,-3.4927,-3.4964,-3.5038,-3.4996,-3.4647,-3.4143,-3.3028,-3.1842,-3.1339,-3.0938,-3.0439,-3.0367,-3.0398,-3.0398,-3.0398,-3.039,-3.0056,-2.9107,-2.8203,-2.7344,-2.6395,-2.577,-2.5515,-2.5503,-2.5517,-2.5511,-2.5518,-2.5518,-2.5525,-2.5525,-2.5544,-2.5525,-2.5525,-2.5525,-2.5525,-2.5538,-2.5544,-2.5577,-2.5602,-2.5602,-2.5602,-2.5602,-2.557,-2.5518,-2.5304,-2.4926,-2.4683,-2.4353,-2.3645,-2.2444,-2.16,-2.1133,-2.0444,-2.031,-2.0225,-2.0216,-2.0216,-2.0171,-2.0116,-2.0088,-2.0079,-2.0059,-2.0019,-1.9998,-1.9996,-1.9993,-1.9952,-1.9836,-1.9568,-1.9051,-1.8148,-1.7281,-1.6581,-1.5802,-1.5001,-1.435,-1.4263,-1.4132,-1.3859,-1.3617,-1.3461,-1.3278,-1.3103,-1.2922,-1.2754,-1.2562,-1.2175,-1.1671,-1.1202,-1.0578,-0.9916,-0.9054,-0.8296,-0.7656,-3.4623,-3.4687,-3.4747,-3.4827,-3.4887,-3.4888,-3.4889,-3.487,-3.4868,-3.4887,-3.4868,-3.4827,-3.4768,-3.4768,-3.4768,-3.4768,-3.4788,-3.4809,-3.4868,-3.4906,-3.4946,-3.4964,-3.4963,-3.492,-3.4723,-3.4143,-3.3375,-3.245,-3.1377,-3.0816,-3.0548,-3.0386,-3.0379,-3.0398,-3.0398,-3.0398,-3.0352,-3.0017,-2.9473,-2.8589,-2.7557,-2.6646,-2.572,-2.551,-2.5511,-2.5551,-2.5564,-2.557,-2.5595,-2.5595,-2.557,-2.557,-2.557,-2.557,-2.557,-2.557,-2.5564,-2.5583,-2.5595,-2.5615,-2.5615,-2.5615,-2.5609,-2.5609,-2.5577,-2.557,-2.5311,-2.5277,-2.4853,-2.4196,-2.3226,-2.2639,-2.2084,-2.0862,-2.0277,-2.0262,-2.0273,-2.0257,-2.0241,-2.0208,-2.0182,-2.0164,-2.0145,-2.0127,-2.0069,-2.0069,-2.0068,-2.0029,-1.999,-1.992,-1.985,-1.8982,-1.8022,-1.6967,-1.6005,-1.506,-1.4453,-1.435,-1.4237,-1.4005,-1.3786,-1.3634,-1.3461,-1.3312,-1.3156,-1.2993,-1.2776,-1.2569,-1.2313,-1.1843,-1.1239,-1.055,-0.9658,-0.8891,-0.826]},{"header":{"parameterUnit":"m.s-1","parameterCategory":1,"la1":31.0,"la2":29.5877,"lo1":-88.7671,"lo2":-86.6584,"dx":0.0162,"dy":0.0185,"nx":115,"ny":88,"refTime":"2023-02-13T06:00:00:Z","depth":0,"parameterNumber":3,"parameterNumberName":"V-component_of_WINDS"},"data":[0.0,0.0,0.0,0.0,0.0,0.0,0.0,0.0,0.0,0.0,0.0,0.0,0.0,0.0,0.0,0.0,0.0,0.0,0.0,0.0,0.0,0.0,0.0,0.0,0.0,0.0,0.0,0.0,0.0,0.0,0.0,0.0,0.0,0.0,0.0,0.0,0.0,0.0,0.0,0.0,0.0,0.0,0.0,0.0,0.0,0.0,0.0,0.0,0.0,0.0,0.0,0.0,0.0,0.0,0.0,0.0,0.0,0.0,0.0,0.0,0.0,0.0,0.0,0.0,0.0,0.0,0.0,0.0,0.0,0.0,0.0,0.0,0.0,0.0,0.0,0.0,0.0,0.0,0.0,0.0,0.0,0.0,0.0,0.0,0.0,0.0,0.0,0.0,0.0,0.0,0.0,0.0,0.0,0.0,0.0,0.0,0.0,0.0,0.0,0.0,0.0,0.0,0.0,0.0,0.0,0.0,0.0,0.0,0.0,0.0,0.0,0.0,0.0,0.0,0.0,0.0,0.0,0.0,0.0,0.0,0.0,0.0,0.0,0.0,0.0,0.0,0.0,0.0,0.0,0.0,0.0,0.0,0.0,0.0,0.0,0.0,0.0,0.0,0.0,0.0,0.0,0.0,0.0,0.0,0.0,0.0,0.0,0.0,0.0,0.0,0.0,0.0,0.0,0.0,0.0,0.0,0.0,0.0,0.0,0.0,0.0,0.0,0.0,0.0,0.0,0.0,0.0,0.0,0.0,0.0,0.0,0.0,0.0,0.0,0.0,0.0,0.0,0.0,0.0,0.0,0.0,0.0,0.0,0.0,0.0,0.0,0.0,0.0,0.0,0.0,0.0,0.0,0.0,0.0,0.0,0.0,0.0,0.0,0.0,0.0,0.0,0.0,0.0,0.0,0.0,0.0,0.0,0.0,0.0,0.0,0.0,0.0,0.0,0.0,0.0,0.0,0.0,0.0,0.0,0.0,0.0,0.0,0.0,0.0,0.0,0.0,0.0,0.0,0.0,0.0,0.0,0.0,0.0,0.0,0.0,0.0,0.0,0.0,0.0,0.0,0.0,0.0,0.0,0.0,0.0,0.0,0.0,0.0,0.0,0.0,0.0,0.0,0.0,0.0,0.0,0.0,0.0,0.0,0.0,0.0,0.0,0.0,0.0,0.0,0.0,0.0,0.0,0.0,0.0,0.0,0.0,0.0,0.0,0.0,0.0,0.0,0.0,0.0,0.0,0.0,0.0,0.0,0.0,0.0,0.0,0.0,0.0,0.0,0.0,0.0,0.0,0.0,0.0,0.0,0.0,0.0,0.0,0.0,0.0,0.0,0.0,0.0,0.0,0.0,0.0,0.0,0.0,0.0,0.0,0.0,0.0,0.0,0.0,0.0,0.0,0.0,0.0,0.0,0.0,0.0,0.0,0.0,0.0,0.0,0.0,0.0,0.0,0.0,0.0,0.0,0.0,0.0,0.0,0.0,0.0,0.0,0.0,0.0,0.0,0.0,0.0,0.0,0.0,0.0,0.0,0.0,0.0,0.0,0.0,0.0,0.0,0.0,0.0,0.0,0.0,0.0,0.0,0.0,0.0,0.0,0.0,0.0,0.0,0.0,0.0,0.0,0.0,0.0,0.0,0.0,0.0,0.0,0.0,0.0,0.0,0.0,0.0,0.0,0.0,0.0,0.0,0.0,0.0,0.0,0.0,0.0,0.0,0.0,0.0,0.0,0.0,0.0,0.0,0.0,0.0,0.0,0.0,0.0,0.0,0.0,0.0,0.0,0.0,0.0,0.0,0.0,0.0,0.0,0.0,0.0,0.0,0.0,0.0,0.0,0.0,0.0,0.0,0.0,0.0,0.0,0.0,0.0,0.0,0.0,0.0,0.0,0.0,0.0,0.0,0.0,0.0,0.0,0.0,0.0,0.0,0.0,0.0,0.0,0.0,0.0,0.0,0.0,0.0,0.0,0.0,0.0,0.0,0.0,0.0,0.0,0.0,0.0,0.0,0.0,0.0,0.0,0.0,0.0,0.0,0.0,0.0,0.0,0.0,0.0,0.0,0.0,0.0,0.0,0.0,0.0,0.0,0.0,0.0,0.0,0.0,0.0,0.0,0.0,0.0,0.0,0.0,0.0,0.0,0.0,0.0,0.0,0.0,0.0,0.0,0.0,0.0,0.0,0.0,0.0,0.0,0.0,0.0,0.0,0.0,0.0,0.0,0.0,0.0,0.0,0.0,0.0,0.0,0.0,0.0,0.0,0.0,0.0,0.0,0.0,0.0,0.0,0.0,0.0,0.0,0.0,0.0,0.0,0.0,0.0,0.0,0.0,0.0,0.0,0.0,0.0,0.0,0.0,0.0,0.0,0.0,0.0,0.0,0.0,0.0,0.0,0.0,0.0,0.0,0.0,0.0,0.0,0.0,0.0,0.0,0.0,0.0,0.0,0.0,0.0,0.0,0.0,0.0,0.0,0.0,0.0,0.0,0.0,0.0,0.0,0.0,0.0,0.0,0.0,0.0,0.0,0.0,0.0,0.0,0.0,0.0,0.0,0.0,0.0,0.0,0.0,0.0,0.0,0.0,0.0,0.0,0.0,0.0,0.0,0.0,0.0,0.0,0.0,0.0,0.0,0.0,0.0,0.0,0.0,0.0,0.0,0.0,0.0,0.0,0.0,0.0,0.0,0.0,0.0,0.0,0.0,0.0,0.0,0.0,0.0,0.0,0.0,0.0,0.0,0.0,0.0,0.0,0.0,0.0,0.0,0.0,0.0,0.0,0.0,0.0,0.0,0.0,0.0,0.0,0.0,0.0,0.0,0.0,0.0,0.0,0.0,0.0,0.0,0.0,0.0,0.0,0.0,0.0,0.0,0.0,0.0,0.0,0.0,0.0,0.0,0.0,0.0,0.0,0.0,0.0,0.0,0.0,0.0,0.0,0.0,0.0,0.0,0.0,0.0,0.0,0.0,0.0,0.0,0.0,0.0,0.0,0.0,0.0,0.0,0.0,0.0,0.0,0.0,0.0,0.0,0.0,0.0,0.0,0.0,0.0,0.0,0.0,0.0,0.0,0.0,0.0,0.0,0.0,0.0,0.0,0.0,0.0,0.0,0.0,0.0,0.0,0.0,0.0,0.0,0.0,0.0,0.0,0.0,0.0,0.0,0.0,0.0,0.0,0.0,0.0,0.0,0.0,0.0,0.0,0.0,0.0,0.0,0.0,0.0,0.0,0.0,0.0,0.0,0.0,0.0,0.0,0.0,0.0,0.0,0.0,0.0,0.0,0.0,0.0,0.0,0.0,0.0,0.0,0.0,0.0,0.0,0.0,0.0,0.0,0.0,0.0,0.0,0.0,0.0,0.0,0.0,0.0,0.0,0.0,0.0,0.0,0.0,0.0,0.0,0.0,0.0,0.0,0.0,0.0,0.0,0.0,0.0,0.0,0.0,0.0,0.0,0.0,0.0,0.0,0.0,0.0,0.0,0.0,0.0,0.0,0.0,0.0,0.0,0.0,0.0,0.0,0.0,0.0,0.0,0.0,0.0,0.0,0.0,0.0,0.0,0.0,0.0,0.0,0.0,0.0,0.0,0.0,0.0,0.0,0.0,0.0,0.0,0.0,0.0,0.0,0.0,0.0,0.0,0.0,0.0,0.0,0.0,0.0,0.0,0.0,0.0,0.0,0.0,0.0,0.0,0.0,0.0,0.0,0.0,0.0,0.0,0.0,0.0,0.0,0.0,0.0,0.0,0.0,0.0,0.0,0.0,0.0,0.0,0.0,0.0,0.0,0.0,0.0,0.0,0.0,0.0,0.0,0.0,0.0,0.0,0.0,0.0,0.0,0.0,0.0,0.0,0.0,0.0,0.0,0.0,0.0,0.0,0.0,0.0,0.0,0.0,0.0,0.0,0.0,0.0,0.0,0.0,0.0,0.0,0.0,0.0,0.0,0.0,0.0,0.0,0.0,0.0,0.0,0.0,0.0,0.0,0.0,0.0,0.0,0.0,0.0,0.0,0.0,0.0,0.0,0.0,0.0,0.0,0.0,0.0,0.0,0.0,0.0,0.0,0.0,0.0,0.0,0.0,0.0,0.0,0.0,0.0,0.0,0.0,0.0,0.0,0.0,0.0,0.0,0.0,0.0,0.0,0.0,0.0,0.0,0.0,0.0,0.0,0.0,0.0,0.0,0.0,0.0,0.0,0.0,0.0,0.0,0.0,0.0,0.0,0.0,0.0,0.0,0.0,0.0,0.0,0.0,0.0,0.0,0.0,0.0,0.0,0.6245,0.0,0.0,0.0,0.0,0.0,0.0,0.0,0.0,0.0,0.0,0.0,0.0,0.0,0.0,0.0,0.0,0.0,0.0,0.0,0.0,0.0,0.0,0.0,0.0,0.0,0.0,0.0,0.0,0.0,0.0,0.0,0.0,0.0,0.0,0.0,0.0,0.0,0.0,0.0,0.0,0.0,0.0,0.0,0.0,0.0,0.0,0.0,0.0,0.0,0.0,0.0,0.0,0.0,0.0,0.0,0.0,0.0,0.0,0.0,0.0,0.0,0.0,0.0,0.0,0.0,0.0,0.0,0.0,0.0,0.0,0.0,0.0,0.0,0.0,0.0,0.0,0.0,0.0,0.0,0.0,0.0,0.0,0.0,0.0,0.0,0.0,0.0,0.0,0.0,0.0,0.0,0.0,0.0,0.0,0.0,0.0,0.0,0.0,0.0,0.0,0.0,0.0,0.0,0.0,0.0,0.0,0.0,0.0,0.0,0.0,0.4944,0.5471,0.5938,0.6368,0.6786,0.0,0.0,0.0,0.0,0.0,0.0,0.0,0.0,0.0,0.0,0.0,0.0,0.0,0.0,0.0,0.0,0.0,0.0,0.0,0.0,0.0,0.0,0.0,0.0,0.0,0.0,0.0,0.0,0.0,0.0,0.0,0.0,0.0,0.0,0.0,0.0,0.0,0.0,0.0,0.0,0.0,0.0,0.0,0.0,0.0,0.0,0.0,0.0,0.0,0.0,0.0,0.0,0.0,0.0,0.0,0.0,0.0,0.0,0.0,0.0,0.0,0.0,0.0,0.0,0.0,0.0,0.0,0.0,0.0,0.0,0.0,0.0,0.0,0.0,0.0,0.0,0.0,0.0,0.0,0.0,0.0,0.0,0.0,0.0,0.0,0.0,0.0,0.0,0.0,0.0,0.0,0.0,0.0,0.0,0.0,0.0,0.0,0.0,0.0,0.0,0.0,0.0,0.0,0.0,0.0,0.0,0.0,0.0,0.0,0.0,0.0,0.0,0.6397,0.6913,0.7296,0.0,0.0,0.0,0.0,0.0,0.0,0.0,0.0,0.0,0.0,0.0,0.0,0.0,0.0,0.0,0.0,0.0,0.0,0.0,0.0,0.0,0.0,0.0,0.0,0.0,0.0,0.0,0.0,0.0,0.0,0.0,0.0,0.0,0.0,0.0,0.0,0.0,0.0,0.0,0.0,0.0,0.0,0.0,0.0,0.0,0.0,0.0,0.0,0.0,0.0,0.0,0.0,0.0,0.0,0.0,0.0,0.0,0.0,0.0,0.0,0.0,0.0,0.0,0.0,0.0,0.0,0.0,0.0,0.0,0.0,0.0,0.0,0.0,0.0,0.0,0.0,0.0,0.0,0.0,0.0,0.0,0.0,0.0,0.0,0.0,0.0,0.0,0.0,0.0,0.0,0.0,0.0,0.0,0.0,0.0,0.0,0.0,0.0,0.0,0.0,0.0,0.0,0.0,0.0,0.0,0.0,0.0,0.0,0.0,0.0,0.5684,0.6154,0.6928,0.0,0.7696,0.0,0.0,0.0,0.0,0.0,0.0,0.0,0.0,0.0,0.0,0.0,0.0,0.0,0.0,0.0,0.0,0.0,0.0,0.0,0.0,0.0,0.0,0.0,0.0,0.0,0.0,0.0,0.0,0.0,0.0,0.0,0.0,0.0,0.0,0.0,0.0,0.0,0.0,0.0,0.0,0.0,0.0,0.0,0.0,0.0,0.0,0.0,0.0,0.0,0.0,0.0,0.0,0.0,0.0,0.0,0.0,0.0,0.0,0.0,0.0,0.0,0.0,0.0,0.0,0.0,0.0,0.0,0.0,0.0,0.0,0.0,0.0,0.0,0.0,0.0,0.0,0.0,0.0,0.0,0.0,0.0,0.0,0.0,0.0,0.0,0.0,0.0,0.0,0.0,0.0,0.0,0.0,0.0,0.0,0.0,0.0,0.0,0.0,0.0,0.0,0.0,0.0,0.0,0.0,0.0,0.0,0.0,0.0,0.0,0.0,0.6044,0.6506,0.7237,0.7714,0.0,0.0,0.0,0.0,0.0,0.0,0.0,0.0,0.0,0.0,0.0,0.0,0.0,0.0,0.0,0.0,0.0,0.0,0.0,0.0,0.0,0.0,0.0,0.0,0.0,0.0,0.0,0.0,0.0,0.0,0.0,0.0,0.0,0.0,0.0,0.0,0.0,0.0,0.0,0.0,0.0,0.0,0.0,0.0,0.0,0.0,0.0,0.0,0.0,0.0,0.0,0.0,0.0,0.0,0.0,0.0,0.0,0.0,0.0,0.0,0.0,0.0,0.0,0.0,0.0,0.0,0.0,0.0,0.0,0.0,0.0,0.0,0.0,0.0,0.0,0.0,0.0,0.0,0.0,0.0,0.0,0.0,0.0,0.0,0.0,0.0,0.0,0.0,0.0,0.0,0.0,0.0,0.0,0.0,0.0,0.0,0.0,0.0,0.0,0.0,0.0,0.0,0.0,0.0,0.0,0.0,0.0,0.0,0.0,0.0,0.5598,0.629,0.6913,0.7398,0.773,0.7923,0.0,0.0,0.0,0.0,0.0,0.0,0.0,0.0,0.0,0.0,0.0,0.0,0.0,0.0,0.0,0.0,0.0,0.0,0.0,0.0,0.0,0.0,0.0,0.0,0.0,0.0,0.0,0.0,0.0,0.0,0.0,0.0,0.0,0.0,0.0,0.0,0.0,0.0,0.0,0.0,0.0,0.0,0.0,0.0,0.0,0.0,0.0,0.0,0.0,0.0,0.0,0.0,0.0,0.0,0.0,0.0,0.0,0.0,0.0,0.0,0.0,0.0,0.0,0.0,0.0,0.0,0.0,0.0,0.0,0.0,0.0,0.0,0.0,0.0,0.0,0.0,0.0,0.0,0.0,0.0,0.0,0.0,0.0,0.0,0.0,0.0,0.0,0.0,0.0,0.0,0.0,0.0,0.0,0.0,0.0,0.0,0.0,0.0,0.0,0.0,0.0,0.0,0.0,0.0,0.0,0.0,0.0,0.0,0.5004,0.5518,0.6369,0.7424,0.7374,0.7469,0.0,0.0,0.0,0.0,0.0,0.0,0.0,0.0,0.0,0.0,0.0,0.0,0.0,0.0,0.0,0.0,0.0,0.0,0.0,0.0,0.0,0.0,0.0,0.0,0.0,0.0,0.0,0.0,0.0,0.0,0.0,0.0,0.0,0.0,0.0,0.0,0.0,0.0,0.0,0.0,0.0,0.0,0.0,0.0,0.0,0.0,0.0,0.0,0.0,0.0,0.0,0.0,0.0,0.0,0.0,0.0,0.0,0.0,0.0,0.0,0.0,0.0,0.0,0.0,0.0,0.0,0.0,0.0,0.0,0.0,0.0,0.0,0.0,0.0,0.0,0.0,0.0,0.0,0.0,0.0,0.0,0.0,0.0,0.0,0.0,0.0,0.0,0.0,0.0,0.0,0.0,0.0,0.0,0.0,0.0,0.0,0.0,0.0,0.0,0.0,0.0,0.0,0.0,0.0,0.0,0.0,0.0,0.0,0.0,0.4934,0.5698,0.6562,0.7452,0.7383,0.7451,0.0,0.0,0.0,0.0,0.0,0.0,0.0,0.0,0.0,0.0,0.0,0.0,0.0,0.0,0.0,0.0,0.0,0.0,0.0,0.0,0.0,0.0,0.0,0.0,0.0,0.0,0.0,0.0,0.0,0.0,0.0,0.0,0.0,0.0,0.0,0.0,0.0,0.0,0.0,0.0,0.0,0.0,0.0,0.0,0.0,0.0,0.0,0.0,0.0,0.0,0.0,0.0,0.0,0.0,0.0,0.0,0.0,0.0,0.0,0.0,0.0,0.0,0.0,0.0,0.0,0.0,0.0,0.0,0.0,0.0,0.0,0.0,0.0,0.0,0.0,0.0,0.0,0.0,0.0,0.0,0.0,0.0,0.0,0.0,0.0,0.0,0.0,0.0,0.0,0.0,0.0,0.0,0.0,0.0,0.0,0.0,0.0,0.0,0.0,0.0,0.0,0.0,0.0,0.0,0.0,0.0,0.0,0.0,0.0,0.5023,0.0,0.6412,0.7077,0.7073,0.7196,0.0,0.0,0.0,0.0,0.0,0.0,0.0,0.0,0.0,0.0,0.0,0.0,0.0,0.0,0.0,0.0,0.0,0.0,0.0,0.0,0.0,0.0,0.0,0.0,0.0,0.0,0.0,0.0,0.0,0.0,0.0,0.0,0.0,0.0,0.0,0.0,0.0,0.0,0.0,0.0,0.0,0.0,0.0,0.0,0.0,0.0,0.0,0.0,0.0,0.0,0.0,0.0,0.0,0.0,0.0,0.0,0.0,0.0,0.0,0.0,0.0,0.0,0.0,0.0,0.0,0.0,0.0,0.0,0.0,0.0,0.0,0.0,0.0,0.0,0.0,0.0,0.0,0.0,0.0,0.0,0.0,0.0,0.0,0.0,0.0,0.0,0.0,0.0,0.0,0.0,0.0,0.0,0.0,0.0,0.0,0.0,0.0,0.0,0.0,0.0,0.0,0.0,0.0,0.0,0.0,0.0,0.0,0.0,0.4672,0.5277,0.5561,0.5927,0.6292,0.6529,0.6703,0.0,0.0,0.0,0.0,0.0,0.0,0.0,0.0,0.0,0.0,0.0,0.0,0.0,0.0,0.0,0.0,0.0,0.0,0.0,0.0,0.0,0.0,0.0,0.0,0.0,0.0,0.0,0.0,0.0,0.0,0.0,0.0,0.0,0.0,0.0,0.0,0.0,0.0,0.0,0.0,0.0,0.0,0.0,0.0,0.0,0.0,0.0,0.0,0.0,0.0,0.0,0.0,0.0,0.0,0.0,0.0,0.0,0.0,0.0,0.0,0.0,0.0,0.0,0.0,0.0,0.0,0.0,0.0,0.0,0.0,0.0,0.0,0.0,0.0,0.0,0.0,0.0,0.0,0.0,0.0,0.0,0.0,0.0,0.0,0.0,0.0,0.0,0.0,0.0,0.0,0.0,0.0,0.0,0.0,0.0,0.0,0.0,0.0,0.0,0.0,0.0,0.0,0.0,0.0,0.0,0.0,0.0,0.0,0.0,0.5093,0.5484,0.5859,0.6168,0.6435,0.6686,0.0,0.0,0.0,0.0,0.0,0.0,0.0,0.0,0.0,0.0,0.0,0.0,0.0,0.0,0.0,0.0,0.0,0.0,0.0,0.0,0.0,0.0,0.0,0.0,0.0,0.0,0.0,0.0,0.0,0.0,0.0,0.0,0.0,0.0,0.0,0.0,0.0,0.0,0.0,0.0,0.0,0.0,0.0,0.0,0.0,0.0,0.0,0.0,0.0,0.0,0.0,0.0,0.0,0.0,0.0,0.0,0.0,0.0,0.0,0.0,0.0,0.0,0.0,0.0,0.0,0.0,0.0,0.0,0.0,0.0,0.0,0.0,0.0,0.0,0.0,0.0,0.0,0.0,0.0,0.0,0.0,0.0,0.0,0.0,0.0,0.0,0.0,0.0,0.0,0.0,0.0,0.0,0.0,0.0,0.0,0.0,0.0,0.0,0.0,0.0,0.0,0.0,0.0,0.0,0.0,0.0,0.0,0.0,0.0,0.4864,0.5365,0.5765,0.6098,0.6413,0.6643,0.6833,0.0,0.0,0.0,0.0,0.0,0.0,0.0,0.0,0.0,0.0,0.0,0.0,0.0,0.0,0.0,0.0,0.0,0.0,0.0,0.0,0.0,0.0,0.0,0.0,0.0,0.0,0.0,0.0,0.0,0.0,0.0,0.0,0.0,0.0,0.0,0.0,0.0,0.0,0.0,0.0,0.0,0.0,0.0,0.0,0.0,0.0,0.0,0.0,0.0,0.0,0.0,0.0,0.0,0.0,0.0,0.0,0.0,0.0,0.0,0.0,0.0,0.0,0.0,0.0,0.0,0.0,0.0,0.0,0.0,0.0,0.0,0.0,0.0,0.0,0.0,0.0,0.0,0.0,0.0,0.0,0.0,0.0,0.0,0.0,0.0,0.0,0.0,0.0,0.0,0.0,0.0,0.0,0.0,0.0,0.0,0.0,0.0,0.0,0.0,0.0,0.0,0.0,0.0,0.0,0.0,0.0,0.0,0.0,0.4602,0.5176,0.5679,0.6098,0.636,0.659,0.0,0.0,0.0,0.0,0.0,0.0,0.0,0.0,0.0,0.0,0.0,0.0,0.0,0.0,0.0,0.0,0.0,0.0,0.0,0.0,0.0,0.0,0.0,0.0,0.0,0.0,0.0,0.0,0.0,0.0,0.0,0.0,0.0,0.0,0.0,0.0,0.0,0.0,0.0,0.0,0.0,0.0,0.0,0.0,0.0,0.0,0.0,0.0,0.0,0.0,0.0,0.0,0.0,0.0,0.0,0.0,0.0,0.0,0.0,0.0,0.0,0.0,0.0,0.0,0.0,0.0,0.0,0.0,0.0,0.0,0.0,0.0,0.0,0.0,0.0,0.0,0.0,0.0,0.0,0.0,0.0,0.0,0.0,0.0,0.0,0.0,0.0,0.0,0.0,0.0,0.0,0.0,0.0,0.0,0.0,0.0,0.0,0.0,0.0,0.0,0.0,0.0,0.0,0.0,0.0,0.0,0.0,0.0,0.0,0.4526,0.5081,0.5554,0.6021,0.6299,0.6551,0.0,0.0,0.0,0.0,0.0,0.0,0.0,0.0,0.0,0.0,0.0,0.0,0.0,0.0,0.0,0.0,0.0,0.0,0.0,0.0,0.0,0.0,0.0,0.0,0.0,0.0,0.0,0.0,0.0,0.0,0.0,0.0,0.0,0.0,0.0,0.0,0.0,0.0,0.0,0.0,0.0,0.0,0.0,0.0,0.0,0.0,0.0,0.0,0.0,0.0,0.0,0.0,0.0,0.0,0.0,0.0,0.0,0.0,0.0,0.0,0.0,0.0,0.0,0.0,0.0,0.0,0.0,0.0,0.0,0.0,0.0,0.0,0.0,0.0,0.0,0.0,0.0,0.0,0.0,0.0,0.0,0.0,0.0,0.0,0.0,0.0,0.0,0.0,0.0,0.0,0.0,0.0,0.0,0.0,0.0,0.0,0.0,0.0,0.0,0.0,0.0,0.0,0.0,0.0,0.0,0.0,0.0,0.0,0.3956,0.4344,0.4832,0.5309,0.5773,0.6176,0.6513,0.0,0.0,0.0,0.0,0.0,0.0,0.0,0.0,0.0,0.0,0.0,0.0,0.0,0.0,0.0,0.0,0.0,0.0,0.0,0.0,0.0,0.0,0.0,0.0,0.0,0.0,0.0,0.0,0.0,0.0,0.0,0.0,0.0,0.0,0.0,0.0,0.0,0.0,0.0,0.0,0.0,0.0,0.0,0.0,0.0,0.0,0.0,0.0,0.0,0.0,0.0,0.0,0.0,0.0,0.0,0.0,0.0,0.0,0.0,0.0,0.0,0.0,0.0,0.0,0.0,0.0,0.0,0.0,0.0,0.0,0.0,0.0,0.0,0.0,0.0,0.0,0.0,0.0,0.0,0.0,0.0,0.0,0.0,0.0,0.0,0.0,0.0,0.0,0.0,0.0,0.0,0.0,0.0,0.0,0.0,0.0,0.0,0.0,0.0,0.0,0.0,0.0,0.0,0.0,0.0,0.0,0.0,0.0,0.3667,0.4064,0.4549,0.4998,0.5435,0.6044,0.6443,0.0,0.0,0.0,0.0,0.0,0.0,0.0,0.0,0.0,0.0,0.0,0.0,0.0,0.0,0.0,0.0,0.0,0.0,0.0,0.0,0.0,0.0,0.0,0.0,0.0,0.0,0.0,0.0,0.0,0.0,0.0,0.0,0.0,0.0,0.0,0.0,0.0,0.0,0.0,0.0,0.0,0.0,0.0,0.0,0.0,0.0,0.0,0.0,0.0,0.0,0.0,0.0,0.0,0.0,0.0,0.0,0.0,0.0,0.0,0.0,0.0,0.0,0.0,0.0,0.0,0.0,0.0,0.0,0.0,0.0,0.0,0.0,0.0,0.0,0.0,0.0,0.0,0.0,0.0,0.0,0.0,0.0,0.0,0.0,0.0,0.0,0.0,0.0,0.0,0.0,0.0,0.0,0.0,0.0,0.0,0.0,0.0,0.0,0.0,0.0,0.0,0.0,0.0,0.0,0.0,0.0,0.0,0.0,0.3536,0.3923,0.4339,0.473,0.5081,0.5742,0.6206,0.0,0.0,0.0,0.0,0.0,0.0,0.0,0.0,0.0,0.0,0.0,0.0,0.0,0.0,0.0,0.0,0.0,0.0,0.0,0.0,0.0,0.0,0.0,0.0,0.0,0.0,0.0,0.0,0.0,0.0,0.0,0.0,0.0,0.0,0.0,0.0,0.0,0.0,0.0,0.0,0.0,0.0,0.0,0.0,0.0,0.0,0.0,0.0,0.9505,0.0,0.0,0.0,0.0,0.0,0.0,0.0,0.0,0.0,0.0,0.0,0.0,0.0,0.0,0.0,0.0,0.0,0.0,0.0,0.0,0.0,0.0,0.0,0.0,0.0,0.0,0.0,0.0,0.0,0.0,0.0,0.0,0.0,0.0,0.0,0.0,0.0,0.0,0.0,0.0,0.0,0.0,0.0,0.0,0.0,0.0,0.0,0.0,0.0,0.0,0.0,0.0,0.0,0.0,0.0,0.0,0.0,0.0,0.0,0.3303,0.3695,0.4118,0.4473,0.4826,0.5365,0.5866,0.0,0.0,0.0,0.0,0.0,0.0,0.0,0.0,0.0,0.0,0.0,0.0,0.0,0.0,0.0,0.0,0.0,0.0,0.0,0.0,0.0,0.0,0.0,0.0,0.0,0.0,0.0,0.0,0.0,0.0,0.0,0.0,0.0,0.0,0.0,0.0,0.0,0.0,0.0,0.0,0.0,0.0,0.0,0.0,0.0,0.0,0.0,0.0,0.0,0.0,0.0,0.0,0.0,0.0,0.0,0.0,0.0,0.0,0.0,0.0,0.0,0.0,0.0,0.0,0.0,0.0,0.0,0.0,0.0,0.0,0.0,0.0,0.0,0.0,0.0,0.0,0.0,0.0,0.0,0.0,0.0,0.0,0.0,0.0,0.0,0.0,0.0,0.0,0.0,0.0,0.0,0.0,0.0,0.0,0.0,0.0,0.0,0.0,0.0,0.0,0.0,0.0,0.0,0.0,0.0,0.0,0.0,0.2775,0.3032,0.3434,0.3831,0.4194,0.4505,0.4992,0.546,0.5944,0.0,0.0,0.0,0.0,0.0,0.0,0.0,0.0,0.0,0.0,0.0,0.0,0.0,0.0,0.0,0.0,0.0,0.0,0.0,0.0,0.0,0.0,0.0,0.0,0.0,0.0,0.0,0.0,0.0,0.0,0.0,0.0,0.0,0.0,0.0,0.0,0.0,0.0,0.1747,0.2601,0.0,0.0,0.0,0.0,0.0,0.0,0.0,0.0,0.9398,0.0,0.0,0.0,0.0,0.0,0.0,0.0,0.0,0.0,0.0,0.0,0.0,0.0,0.0,0.0,0.0,0.0,0.0,0.0,0.0,0.0,0.0,0.0,0.0,0.0,0.0,0.0,0.0,0.0,0.0,0.0,0.0,0.0,0.0,0.0,0.0,0.0,0.0,0.0,0.0,0.0,0.0,0.0,0.0,0.0,0.0,0.0,0.0,0.0,0.0,0.0,0.0,0.0,0.0,0.0,0.0,0.2353,0.251,0.2772,0.3171,0.3499,0.3831,0.4161,0.4646,0.5062,0.5428,0.0,0.0,0.0,0.0,0.0,0.0,0.0,0.0,0.0,0.0,0.0,0.0,0.0,0.0,0.0,0.0,0.0,0.0,0.0,0.0,0.0,0.0,0.0,0.0,0.0,0.0,0.0,0.0,0.0,0.0,0.0,0.0,0.0,0.0,0.0,0.0,0.0,0.0,0.0,0.1894,0.2932,0.0,0.0,0.0,0.0,0.0,0.0,0.0,0.0,0.8949,0.0,0.0,0.0,0.0,0.0,0.0,0.0,0.0,0.0,0.0,0.0,0.0,0.0,0.0,0.0,0.0,0.0,0.0,0.0,0.0,0.0,0.0,0.0,0.0,0.0,0.0,0.0,0.0,0.0,0.0,0.0,0.0,0.0,0.0,0.0,0.0,0.0,0.0,0.0,0.0,0.0,0.0,0.0,0.0,0.0,0.0,0.0,0.0,0.0,0.0,0.0,0.0,0.0,0.0,0.0,0.2081,0.2211,0.2447,0.2775,0.3138,0.3499,0.3836,0.4215,0.4602,0.0,0.0,0.0,0.0,0.0,0.0,0.0,0.0,0.0,0.0,0.0,0.0,0.0,0.0,0.0,0.0,0.0,0.0,0.0,0.0,0.0,0.0,0.0,0.0,0.0,0.0,0.0,0.0,0.0,0.0,0.0,0.0,0.0,0.0,0.0,0.0,0.0,0.0,0.0,0.0,0.0714,0.1655,0.3007,0.0,0.0,0.0,0.0,0.0,0.0,0.776,0.7874,0.0,0.0,0.0,0.0,0.0,0.0,0.0,0.0,0.0,0.0,0.0,0.0,0.0,0.0,0.0,0.0,0.0,0.0,0.0,0.0,0.0,0.0,0.0,0.0,0.0,0.0,0.0,0.0,0.0,0.0,0.0,0.0,0.0,0.0,0.0,0.0,0.0,0.0,0.0,0.0,0.0,0.0,0.0,0.0,0.0,0.0,0.0,0.0,0.0,0.0,0.0,0.0,0.0,0.0,0.0,0.178,0.1914,0.2114,0.2374,0.2772,0.3105,0.3504,0.3821,0.4178,0.0,0.0,0.0,0.0,0.0,0.0,0.0,0.0,0.0,0.0,0.0,0.0,0.0,0.0,0.0,0.0,0.0,0.0,0.0,0.0,0.0,0.0,0.0,0.0,0.0,0.0,0.0,0.0,0.0,0.0,0.0,0.0,0.0,0.0,0.0,0.0,0.0,0.0,0.0,0.0,0.0,0.0105,0.1079,0.1486,0.0,0.0,0.0,0.0,0.5976,0.6026,0.0,0.0,0.0,0.0,0.0,0.0,0.0,0.0,0.0,0.0,0.0,0.0,0.0,0.0,0.0,0.0,0.0,0.0,0.0,0.0,0.0,0.0,0.0,0.0,0.0,0.0,0.0,0.0,0.0,0.0,0.0,0.0,0.0,0.0,0.0,0.0,0.0,0.0,0.0,0.0,0.0,0.0,0.0,0.0,0.0,0.0,0.0,0.0,0.0,0.0,0.0,0.0,0.0,0.0,0.0,0.0,0.138,0.1509,0.1742,0.2047,0.2344,0.2709,0.3138,0.3499,0.3831,0.0,0.0,0.0,0.0,0.0,0.0,0.0,0.0,0.0,0.0,0.0,0.0,0.0,0.0,0.0,0.0,0.0,0.0,0.0,0.0,0.0,0.0,0.0,0.0,0.0,0.0,0.0,0.0,0.0,0.0,0.0,0.0,0.0,0.0,0.0,0.0,0.0,0.0,0.0,0.0,0.0,-0.1918,-0.1424,-0.0052,0.1017,0.0,0.0,0.0,0.4473,0.4396,0.0,0.0,0.0,0.0,0.0,0.0,0.0,0.0,0.0,0.0,0.0,0.0,0.0,0.0,0.0,0.0,0.0,0.0,0.0,0.0,0.0,0.0,0.0,0.0,0.0,0.0,0.0,0.0,0.0,0.0,0.0,0.0,0.0,0.0,0.0,0.0,0.0,0.0,0.0,0.0,0.0,0.0,0.0,0.0,0.0,0.0,0.0,0.0,0.0,0.0,0.0,0.0,0.0,0.0,0.0,0.0904,0.0943,0.1075,0.1276,0.1546,0.1845,0.2208,0.2709,0.3035,0.3364,0.0,0.0,0.0,0.0,0.0,0.0,0.0,0.0,0.0,0.0,0.0,0.0,0.0,0.0,0.0,0.0,0.0,0.0,0.0,0.0,0.0,0.0,0.0,0.0,0.0,0.0,0.0,0.0,0.0,0.0,0.0,0.0,0.0,0.0,0.0,0.0,0.0,0.0,0.0,0.0,0.0,0.0,-0.3295,-0.2731,0.0,0.0,0.0,-0.0269,0.1456,0.0,0.0,0.0,0.0,0.0,0.0,0.0,0.0,0.0,0.0,0.0,0.0,0.0,0.0,0.0,0.0,0.0,0.0,0.0,0.0,0.0,0.0,0.0,0.0,0.0,0.0,0.0,0.0,0.0,0.0,0.0,0.0,0.0,0.0,0.0,0.0,0.0,0.0,0.0,0.0,0.0,0.0,0.0,0.0,0.0,0.0,0.0,0.0,0.0,0.0,0.0,0.0,0.0,0.0,0.0,0.0,0.0,0.0539,0.0673,0.0841,0.1078,0.1377,0.1776,0.2275,0.2606,0.0,0.0,0.0,0.0,0.0,0.0,0.0,0.0,0.0,0.0,0.0,0.0,0.0,0.0,0.0,0.0,0.0,0.0,0.0,0.0,0.0,0.0,0.0,0.0,0.0,0.0,0.0,0.0,0.0,0.0,0.0,0.0,0.0,0.0,0.0,0.0,0.0,0.0,0.0,0.0,0.0,0.0,-0.5321,-0.4775,-0.4809,-0.4516,0.0,0.0,-0.2883,-0.1661,-0.0918,-0.0,0.0,0.0,0.0,0.0,0.0,0.0,0.0,0.0,0.0,0.0,0.0,0.0,0.0,0.0,0.0,0.0,0.0,0.0,0.0,0.0,0.0,0.0,0.0,0.0,0.0,0.0,0.0,0.0,0.0,0.0,0.0,0.0,0.0,0.0,0.0,0.0,0.0,0.0,0.0,0.0,0.0,0.0,0.0,0.0,0.0,0.0,0.0,0.0,0.0,0.0,0.0,0.0,0.0,0.0,0.0,0.0135,0.0269,0.0471,0.074,0.0976,0.1378,0.1911,0.2242,0.2603,0.0,0.0,0.0,0.0,0.0,0.0,0.0,0.0,0.0,0.0,0.0,0.0,0.0,0.0,0.0,0.0,0.0,0.0,0.0,0.0,0.0,0.0,0.0,0.0,0.0,0.0,0.0,0.0,0.0,0.0,0.0,0.0,0.0,0.0,0.0,0.0,0.0,0.0,0.0,0.0,0.0,-0.6471,-0.5873,-0.5432,-0.4962,0.0,0.0,-0.4186,-0.4376,-0.3546,-0.2555,-0.1627,0.0,0.0,0.0,0.0,0.0,0.0,0.0,0.0,0.0,0.0,0.0,0.0,0.0,0.0,0.0,0.0,0.0,0.0,0.0,0.0,0.0,0.0,0.0,0.0,0.0,0.0,0.0,0.0,0.0,0.0,0.0,0.0,0.0,0.0,0.0,0.0,0.0,0.0,0.0,0.0,0.0,0.0,0.0,0.0,0.0,0.0,0.0,0.0,0.0,0.0,0.0,0.0,0.0,-0.0261,-0.0319,-0.0137,0.0034,0.0269,0.0572,0.0974,0.1507,0.1911,0.2242,0.0,0.0,0.0,0.0,0.0,0.0,0.0,0.0,0.0,0.0,0.0,0.0,0.0,0.0,0.0,0.0,0.0,0.0,0.0,0.0,0.0,0.0,0.0,0.0,0.0,0.0,0.0,0.0,0.4377,0.3701,0.241,0.0,0.0,0.0,0.0,0.0,0.0,0.0,0.0,0.0,0.0,-0.6691,-0.6043,-0.5533,0.0,0.0,-0.4487,-0.4726,-0.534,-0.5033,-0.4554,-0.4078,-0.3154,0.0,0.0,0.0,0.0,0.0,0.0,0.0,0.0,0.0,0.0,0.0,0.0,0.0,0.0,0.0,0.0,0.0,0.0,0.0,0.0,0.0,0.0,0.0,0.0,0.0,0.0,0.0,0.0,0.0,0.0,0.0,0.0,0.0,0.0,0.0,0.0,0.0,0.0,0.0,0.0,0.0,0.0,0.0,0.0,0.0,0.0,0.0,0.0,0.0,0.0,0.0,0.0,-0.0653,-0.0729,-0.0553,-0.037,-0.0101,0.0202,0.0638,0.1138,0.1575,0.1942,0.0,0.0,0.0,0.0,0.0,0.0,0.0,0.0,0.0,0.0,0.0,0.0,0.0,0.0,0.0,0.0,0.0,0.0,0.0,0.0,0.0,0.0,0.0,0.0,0.0,0.0,0.0,0.0,0.355,0.2518,0.0781,0.0,0.0,0.0,0.0,0.0,0.0,0.0,0.0,0.0,0.0,-0.6978,-0.6337,-0.5951,-0.5602,-0.5174,-0.526,-0.5587,-0.624,-0.641,-0.6352,-0.5982,0.0,0.0,0.0,0.0,0.0,0.0,0.0,0.0,0.0,0.0,0.0,0.0,0.0,0.0,0.0,0.0,0.0,0.0,0.0,0.0,0.0,0.0,0.0,0.0,0.0,0.0,0.0,0.0,0.0,0.0,0.0,0.0,0.0,0.0,0.0,0.0,0.0,0.0,0.0,0.0,0.0,0.0,0.0,0.0,0.0,0.0,0.0,0.0,0.0,0.0,0.0,0.0,0.0,0.0,-0.106,-0.09,-0.0639,-0.0403,-0.0067,0.0336,0.0807,0.1274,0.1673,0.2014,0.0,0.0,0.0,0.0,0.0,0.0,0.0,0.0,0.0,0.0,0.0,0.0,0.0,0.0,0.0,0.0,0.0,0.0,0.0,0.0,0.0,0.0,0.0,0.0,0.0,0.0,0.3389,0.228,0.0938,0.0,0.0,0.0,0.0,0.0,0.0,0.0,0.0,0.0,0.0,-0.7782,-0.7459,-0.6867,-0.6875,-0.677,-0.6459,-0.6638,-0.6929,-0.7228,-0.7809,-0.8002,0.0,0.0,0.0,0.0,0.0,0.0,0.0,0.0,0.0,0.0,0.0,0.0,0.0,0.0,0.0,0.0,0.0,0.0,0.0,0.0,0.0,0.0,0.0,0.0,0.0,0.0,0.0,0.0,0.0,0.0,0.0,0.0,0.0,0.0,0.0,0.0,0.0,0.0,0.0,0.0,-0.1967,-0.1967,0.0,0.0,0.0,0.0,0.0,0.0,0.0,0.0,0.0,0.0,0.0,0.0,-0.1439,-0.1411,-0.1162,-0.0908,-0.0673,-0.0336,0.0067,0.0538,0.0907,0.1377,0.1981,0.0,0.0,0.0,0.0,0.0,0.0,0.0,0.0,0.0,0.0,0.0,0.0,0.0,0.0,0.0,0.0,0.0,0.0,0.0,0.0,0.0,0.0,0.0,0.0,0.0,0.2597,0.0,0.0,0.0,0.0,0.0,0.0,0.0,0.0,0.0,0.0,0.0,-0.765,-0.7694,-0.7286,-0.6867,-0.6639,-0.6415,-0.6304,0.0,0.0,0.0,0.0,0.0,0.0,0.0,0.0,0.0,0.0,0.0,0.0,0.0,0.0,0.1988,0.2852,0.2796,0.2554,0.2314,0.0,0.0,0.0,0.0,0.0,0.0,0.0,0.0,0.0,0.0,0.0,0.0,0.0,0.0,0.0,0.0,-0.2566,0.0,0.0,0.0,0.0,0.0,0.0,0.0,0.0,-0.2815,-0.2726,-0.2635,-0.2544,-0.246,0.0,-0.2286,-0.2061,0.0,0.0,0.0,0.0,0.0,0.0,0.0,0.0,-0.1765,-0.1717,-0.135,-0.1078,-0.0841,-0.0538,-0.0168,0.0269,0.0707,0.1244,0.1814,0.205,0.2347,0.0,0.0,0.0,0.0,0.0,0.0,0.0,0.0,0.0,0.0,0.0,0.0,0.0,0.0,0.0,0.0,0.0,0.0,0.0,0.0,0.0,0.0,0.0,0.1452,0.0,0.0,0.0,0.0,0.0,0.0,0.0,0.0,0.0,-0.7109,-0.7345,-0.7483,-0.7453,-0.7069,-0.6786,-0.6786,0.0,0.0,0.0,0.0,0.0,0.0,0.0,-0.9095,-0.945,-0.8848,-0.7899,-0.6537,-0.4128,-0.2105,-0.1349,0.0,0.0,0.1612,0.1749,0.157,0.1426,0.0923,0.041,0.0096,-0.0463,-0.1021,0.0,0.0,0.0,0.0,0.0,0.0,0.0,0.0,-0.3143,-0.3234,0.0,0.0,0.0,0.0,0.0,0.0,0.0,0.0,0.0,0.0,-0.3445,-0.335,-0.3214,-0.3078,-0.2904,-0.2729,-0.2684,-0.264,-0.2506,-0.2061,0.0,0.0,0.0,0.0,0.0,0.0,-0.2036,-0.1874,-0.1492,-0.1179,-0.0908,-0.0639,-0.0336,0.0,0.0707,0.1214,0.1483,0.1814,0.2111,0.2374,0.2646,0.0,0.0,0.0,0.0,0.0,0.0,0.0,0.0,0.0,0.0,0.0,0.0,0.0,0.0,0.0,0.0,0.0,0.0,0.0,0.0,0.0951,0.0,0.0,0.0,0.0,0.0,0.0,0.0,0.0,0.0,0.0,-0.7066,-0.7212,-0.7246,-0.7187,0.0,0.0,0.0,0.0,-0.7797,-0.8129,-0.8518,-0.8891,-0.9233,-0.9513,-0.9699,-0.9695,0.0,0.0,-0.6483,-0.4901,-0.377,-0.3407,-0.2615,-0.151,-0.0087,0.0177,0.0111,-0.0089,-0.0291,-0.0579,-0.0892,-0.125,-0.1614,-0.3199,0.0,0.0,0.0,0.0,-0.3677,-0.3868,-0.3857,-0.3887,-0.3989,-0.4173,-0.4173,0.0,0.0,0.0,0.0,0.0,0.0,-0.4015,-0.4011,-0.3846,-0.3663,-0.3486,-0.3442,-0.3309,-0.304,-0.2909,-0.2821,-0.2776,-0.2462,-0.2328,-0.2373,0.0,0.0,0.0,0.0,-0.206,-0.2005,-0.1546,-0.1247,-0.1111,-0.0808,-0.0403,0.0067,0.0538,0.0943,0.1212,0.1579,0.1942,0.2305,0.2577,0.0,0.0,0.0,0.0,0.0,0.0,0.0,0.0,0.0,0.0,0.0,0.0,0.0,0.0,0.0,0.0,0.0,0.0,0.0,0.0422,-0.0044,-0.0837,0.0,0.0,0.0,0.0,0.0,0.0,0.0,0.0,0.0,-0.7348,-0.717,-0.7006,0.0,0.0,-0.7107,-0.7292,-0.7497,-0.7753,-0.809,0.0,0.0,0.0,-0.9421,-0.9655,-0.9764,-0.9295,-0.8563,-0.7492,-0.6422,-0.5552,-0.503,-0.4456,-0.3823,-0.3208,-0.2002,-0.124,-0.118,-0.1337,-0.167,-0.2193,-0.2293,-0.2371,-0.4008,-0.371,-0.3618,-0.3691,-0.386,-0.4079,-0.4301,-0.4411,-0.4574,-0.468,-0.4739,-0.4849,-0.4904,-0.4842,-0.4892,0.0,0.0,0.0,-0.4514,-0.4506,-0.4237,-0.4025,-0.3931,-0.3735,-0.3527,-0.335,-0.3176,-0.3043,-0.2951,-0.2771,-0.2682,-0.2684,0.0,0.0,-0.257,-0.2278,-0.2118,-0.2073,-0.1637,-0.1315,-0.1179,-0.0841,-0.0437,-0.0101,0.0269,0.0572,0.0841,0.1243,0.1642,0.2006,0.2311,0.2577,0.0,0.0,0.0,0.0,0.0,0.0,0.0,0.0,0.0,0.0,0.0,0.2332,0.0,0.0,0.0,0.0,0.032,-0.0089,-0.0488,-0.107,0.0,0.0,0.0,0.0,0.0,0.0,0.0,-0.7661,-0.7549,-0.7505,-0.7678,-0.7528,-0.7431,-0.7522,-0.7609,-0.7748,-0.7975,0.0,-0.8489,-0.885,-0.9215,-0.9566,-0.987,-1.0234,-1.0443,-1.0325,-0.9717,-0.9096,-0.8494,-0.7801,-0.7147,-0.6561,-0.612,-0.5755,-0.5439,-0.4392,-0.3352,-0.2775,-0.2693,-0.2909,-0.3286,-0.33,-0.3308,-0.4932,-0.4783,-0.4219,-0.411,-0.4337,-0.4487,-0.4646,-0.4816,-0.5195,-0.5238,-0.5179,-0.5508,-0.5504,-0.5324,-0.5324,0.0,0.0,-0.5165,-0.5035,-0.5026,-0.4646,-0.4412,-0.4392,-0.3965,-0.3714,-0.3578,-0.3486,-0.3306,-0.3034,-0.3034,-0.2948,-0.2909,-0.2773,-0.2715,-0.268,-0.2367,-0.218,-0.21,-0.1692,-0.1415,-0.1179,-0.0774,-0.0504,-0.0403,-0.0101,0.0202,0.0471,0.0875,0.1209,0.1542,0.1878,0.2114,0.2308,0.0,0.0,0.0,0.0,0.0,0.0,0.0,0.0,0.0,0.0,0.0,0.0,0.0,0.0,0.0,-0.0557,0.0,-0.126,-0.2064,0.0,0.0,0.0,-0.618,-0.7318,-0.751,-0.7744,-0.8136,0.0,0.0,0.0,0.0,-0.8336,-0.8577,-0.8652,-0.8791,-0.9061,-0.9285,-0.9633,-0.9918,-1.0399,-1.0759,-1.0974,-1.1394,-1.1525,-1.1083,-1.0429,-0.9818,-0.9384,-0.8993,-0.847,-0.7923,-0.7618,-0.7318,-0.6942,-0.6662,-0.6186,-0.4799,-0.4371,-0.4221,-0.4254,-0.4291,-0.4409,-0.5687,-0.563,-0.5539,-0.5392,-0.5207,-0.5316,-0.5441,-0.5604,-0.5575,-0.5567,-0.5626,-0.574,-0.5791,-0.5677,-0.5688,-0.572,-0.5712,-0.5466,-0.5328,-0.5217,-0.4981,-0.4678,-0.4404,-0.4268,-0.4044,-0.3663,-0.3619,-0.3442,-0.3306,-0.3078,-0.299,-0.2993,-0.2909,-0.2792,-0.2686,-0.2354,-0.2181,-0.2091,-0.1693,-0.1382,-0.1111,-0.0875,-0.0639,-0.0471,-0.0303,-0.0067,0.0168,0.0572,0.0941,0.1211,0.1509,0.1676,0.1773,0.1776,0.0,0.0,0.0,0.0,0.0,0.0,0.0,0.0,0.0,0.0447,0.0084,0.0,-0.0729,0.0,-0.1269,-0.1686,-0.2068,-0.2743,0.0,0.0,-0.5575,-0.6488,-0.7521,-0.7921,-0.8095,-0.813,-0.817,-0.8261,-0.8513,-0.8608,-0.891,-0.9526,-0.9037,-0.8716,-0.8981,-0.9264,-0.954,-0.9932,-1.0344,-1.0654,-1.1001,-1.1482,-1.17,-1.1193,-1.0998,-1.0694,-0.9966,-0.9652,-0.9425,-0.9127,-0.8894,-0.8632,-0.8332,-0.8112,-0.7817,-0.7214,-0.6285,-0.5462,-0.5462,-0.5454,-0.5472,-0.6274,-0.6262,-0.6346,-0.6366,-0.6216,-0.5963,-0.5973,-0.6078,-0.5949,-0.5974,-0.6034,-0.606,-0.6014,-0.5959,-0.5959,-0.6014,-0.595,-0.5784,-0.5681,-0.5619,-0.5272,-0.5031,-0.478,-0.4526,-0.4257,-0.3983,-0.3739,-0.3575,-0.3486,-0.3306,-0.3123,-0.2987,-0.2948,-0.2878,-0.2697,-0.2359,-0.2156,-0.2096,-0.1744,-0.1431,-0.126,-0.1107,-0.094,-0.0759,-0.06,-0.0418,-0.0244,0.0136,0.0437,0.0639,0.0906,0.1074,0.1074,0.1074,0.0972,0.0,0.0,0.0,0.0,0.0,0.0,0.0,0.0,0.0,0.0,0.0,-0.1829,0.0,0.0,0.0,-0.3122,-0.3792,-0.4527,-0.5354,-0.6132,-0.6872,-0.7666,-0.8052,-0.8269,-0.831,-0.8484,-0.8694,-0.889,-0.9004,-0.929,-0.9842,-0.9561,-0.9393,-0.975,-1.0059,-1.0357,-1.0693,-1.1076,-1.1526,-1.2016,-1.2226,-1.2298,-1.2103,-1.1618,-1.1102,-1.0695,-1.0265,-0.9928,-0.979,-0.9638,-0.9478,-0.9268,-0.9376,-0.9396,-0.9174,-0.8766,-0.8005,-0.6892,-0.6617,-0.6597,-0.6793,-0.6845,-0.6955,-0.7073,-0.7177,-0.6639,-0.6428,-0.6518,-0.6438,-0.6391,-0.6358,-0.635,-0.6256,-0.6232,-0.6232,-0.6232,-0.6173,-0.6059,-0.6,-0.5991,-0.5562,-0.5375,-0.528,-0.4739,-0.4424,-0.4392,-0.3954,-0.3704,-0.3622,-0.3486,-0.3306,-0.3078,-0.3034,-0.2936,-0.2749,-0.2389,-0.2164,-0.2061,-0.1762,-0.1579,-0.1437,-0.1384,-0.1297,-0.1137,-0.0979,-0.0844,-0.0658,-0.0386,-0.0172,-0.0035,0.0205,0.0306,0.0238,0.0304,0.0168,0.0,-0.0336,0.0,0.0,0.0,0.0,0.0,0.0,0.0,0.0,-0.247,-0.2932,-0.3348,-0.3585,-0.382,-0.4159,-0.4837,-0.5461,-0.5984,-0.6612,-0.7196,-0.7744,-0.8043,-0.8301,-0.8572,-0.8806,-0.9026,-0.9166,-0.939,-0.9564,-0.9776,-0.9957,-1.0169,-1.0653,-1.0968,-1.1283,-1.1718,-1.2128,-1.2542,-1.3142,-1.3173,-1.3064,-1.3149,-1.2395,-1.1522,-1.1531,-1.088,-1.0351,-1.0286,-1.013,-0.9982,-0.9914,-1.0439,-1.0795,-1.073,-1.1043,-1.0633,-0.8775,-0.8136,-0.79,-0.7351,-0.7369,-0.7404,-0.7396,-0.7451,-0.7311,-0.7185,-0.7026,-0.7,-0.6929,-0.6882,-0.6837,-0.6657,-0.6391,-0.6332,-0.6332,-0.6178,-0.6173,-0.6114,-0.6,-0.591,-0.565,-0.5288,-0.5014,-0.4734,-0.44,-0.4141,-0.3928,-0.3704,-0.3619,-0.3486,-0.3306,-0.3078,-0.2976,0.0,0.0,0.0,0.0,-0.1779,-0.1663,-0.1663,-0.1561,-0.1488,-0.141,-0.1398,0.0,-0.1081,-0.0944,-0.0848,-0.0711,-0.0559,0.0,0.0,0.0,0.0,0.0,0.0,0.0,0.0,0.0,0.0,0.0,-0.3433,-0.3497,-0.2944,-0.3288,-0.366,-0.3859,-0.4112,-0.4349,-0.4651,-0.5182,-0.5723,-0.6197,-0.6745,-0.7244,-0.7666,-0.8025,-0.8272,-0.8499,-0.8767,-0.8987,-0.919,-0.9378,-0.9564,-0.9776,-1.0021,-1.0274,-1.0523,-1.0873,-1.1224,-1.1534,-1.2128,-1.2671,-1.3124,-1.3398,-1.3445,-1.3165,-1.316,-1.2828,-1.2358,-1.1683,-1.1213,-1.1203,-1.0658,-1.0403,-1.0953,-1.1153,-1.1457,-1.1927,-1.2124,-1.1828,-1.0812,-1.0496,-1.0209,-0.7757,0.0,-0.7726,-0.7749,0.0,0.0,-0.7663,-0.7551,-0.7335,-0.724,-0.7211,-0.7042,-0.6874,-0.6703,-0.6594,-0.644,-0.6282,-0.6332,-0.6223,-0.6114,-0.6059,-0.5896,-0.5637,-0.5293,-0.5052,-0.4853,-0.4451,-0.4183,-0.404,-0.3787,-0.3619,-0.349,-0.3306,-0.3123,-0.2987,-0.2623,-0.2266,-0.1884,-0.1885,-0.1826,-0.1745,-0.1784,-0.1762,-0.1635,0.0,0.0,0.0,0.0,0.0,0.0,0.0,0.0,0.0,0.0,0.0,-0.1987,-0.2208,-0.2498,-0.285,-0.3254,-0.3614,-0.3965,-0.4669,-0.4945,-0.4543,-0.4836,-0.5118,-0.532,-0.554,-0.5758,-0.5983,-0.6419,-0.6742,-0.6868,-0.7274,-0.7605,-0.7715,-0.7986,-0.8272,-0.8421,-0.8712,-0.896,-0.9135,-0.9339,-0.9526,-0.9736,-0.9944,-1.0173,-1.0399,-1.0753,-1.1132,-1.1586,-1.2107,-1.2591,-1.2947,-1.3361,-1.3666,-1.352,-1.3406,-1.3253,-1.3057,-1.2408,-1.1968,-1.2037,-1.1721,-1.1621,-1.1987,-1.2364,-1.2756,-1.3082,-1.3469,-1.3596,-1.3131,-1.229,-1.129,-0.8203,-0.8152,-0.8074,-0.8071,-0.8038,-0.8002,-0.8047,-0.8032,0.0,0.0,0.0,-0.731,-0.7145,-0.7094,-0.6865,-0.6708,-0.6494,-0.646,-0.6332,-0.6232,-0.6114,-0.6,-0.5991,-0.554,-0.5297,-0.528,-0.4747,-0.4432,-0.4396,-0.3987,-0.3728,-0.3626,-0.3486,-0.3306,-0.2993,-0.2682,-0.2335,-0.198,-0.2003,-0.1999,-0.1872,-0.1983,-0.1975,-0.1884,-0.1819,-0.1785,-0.1782,-0.1803,-0.1845,-0.1887,-0.1953,-0.2063,-0.2181,-0.2397,-0.2614,-0.2921,-0.3117,-0.339,-0.3778,-0.4123,-0.4557,-0.505,-0.5701,-0.605,-0.6072,-0.6286,-0.6476,-0.6731,-0.6956,-0.7137,-0.7245,-0.7594,-0.7731,-0.7557,-0.7797,-0.7932,-0.7831,-0.8016,-0.8244,-0.8393,-0.8673,-0.8933,-0.9081,-0.9259,-0.9487,-0.9672,-0.988,-1.011,-1.0361,-1.0729,-1.1164,-1.1674,-1.2086,-1.2483,-1.2815,-1.3176,-1.3555,-1.3803,-1.3599,-1.3453,-1.3533,-1.3127,-1.2781,-1.2829,-1.2791,-1.2749,-1.2994,-1.3457,-1.4009,-1.4143,-1.4698,-1.5198,-1.4945,-1.3754,-1.2333,-0.8583,-0.8568,-0.8329,-0.8223,-0.825,-0.8063,-0.8047,-0.8166,-0.8135,-0.8122,-0.8097,-0.8065,-0.7825,-0.7511,-0.7271,-0.7054,-0.6879,-0.6524,-0.6381,0.0,-0.6223,-0.6114,-0.5991,-0.5641,-0.5397,-0.5284,-0.4919,-0.4594,-0.4416,-0.433,-0.4108,-0.3718,-0.3622,-0.3357,-0.2909,-0.2773,-0.2534,-0.2242,-0.2213,-0.218,-0.2135,-0.2192,-0.2156,-0.2154,-0.2142,-0.2178,-0.2213,-0.2201,-0.2328,-0.2549,-0.2547,-0.2614,-0.2815,-0.2845,-0.3011,-0.3386,-0.3582,-0.3859,-0.4204,-0.458,-0.5159,-0.6024,-0.6481,-0.6612,-0.6438,-0.66,-0.6811,-0.7029,-0.724,-0.7388,-0.7531,-0.7778,-0.7982,-0.8078,-0.8018,-0.8055,-0.817,-0.8138,-0.8187,-0.8382,-0.8606,-0.8839,-0.9054,-0.9259,-0.9461,-0.9684,-0.988,-1.0148,-1.0548,-1.0944,-1.1279,-1.1659,-1.1961,-1.2291,-1.2665,-1.3016,-1.3362,-1.368,-1.3894,-1.4017,-1.4227,-1.3821,-1.349,-1.3538,-1.316,-1.3047,-1.3613,-1.3883,-1.4187,-1.4687,-1.4996,-1.5176,-1.5134,-1.4727,-1.4037,-0.8951,-0.9046,-0.8913,-0.8819,-0.8748,-0.8596,-0.8422,-0.8376,-0.8371,-0.8382,-0.8339,-0.8272,-0.8091,-0.7918,-0.7624,-0.7465,-0.7285,-0.6992,-0.6779,-0.6602,-0.6385,-0.6223,-0.6109,-0.5806,-0.5659,-0.5543,-0.5147,-0.4909,-0.4783,-0.4593,-0.4361,-0.4055,-0.375,-0.3445,-0.3084,-0.2909,-0.2729,-0.2504,-0.2328,-0.2241,-0.2201,-0.2201,-0.2201,-0.2201,-0.2201,-0.2241,-0.2277,-0.2457,-0.2593,-0.2776,-0.3029,-0.3215,-0.3298,-0.3531,-0.3784,-0.4028,-0.4285,-0.4573,-0.482,-0.5392,-0.5966,-0.6574,-0.6909,-0.7138,-0.7169,-0.7344,-0.7539,-0.7695,-0.7919,-0.8103,-0.8227,-0.8485,-0.8604,-0.8458,-0.8427,-0.8328,-0.8242,-0.8179,-0.8169,-0.8336,-0.8561,-0.8784,-0.901,-0.9259,-0.9461,-0.9632,-0.9918,-1.0236,-1.0534,-1.0849,-1.1164,-1.1534,-1.1897,-1.221,-1.2546,-1.2869,-1.3192,-1.351,-1.3789,-1.406,-1.4289,-1.4114,-1.411,-1.4227,-1.3985,-1.3863,-1.3976,-1.3919,-1.3989,-1.3796,-1.436,-1.4586,-1.4648,-1.4607,-1.4251,-0.915,-0.9364,-0.9385,-0.9294,-0.919,-0.9026,-0.8759,-0.8592,-0.8544,-0.8517,-0.8484,-0.8312,-0.8294,-0.8267,-0.7984,-0.7822,-0.7675,-0.7401,-0.7172,-0.6922,-0.6607,-0.6399,-0.6234,-0.5982,-0.5791,-0.5782,-0.5419,-0.5177,-0.5068,-0.4836,-0.4613,-0.4365,-0.3907,-0.3523,-0.3306,-0.3043,-0.2865,-0.2729,-0.2504,-0.2326,-0.2243,-0.2199,-0.2201,-0.2201,-0.2199,-0.2239,-0.237,-0.2593,-0.2821,-0.2954,-0.3357,-0.3626,-0.3714,-0.41,-0.4364,-0.4543,-0.4854,-0.5159,-0.5463,-0.6024,-0.6538,-0.6872,-0.7202,-0.7461,-0.7628,-0.7863,-0.807,-0.825,-0.8488,-0.8691,-0.8723,-0.9053,-0.9195,-0.8864,-0.8803,-0.8662,-0.8402,-0.8237,-0.8174,-0.8304,-0.8477,-0.8701,-0.8933,-0.9178,-0.9408,-0.9632,-0.9918,-1.0224,-1.0449,-1.0718,-1.1015,-1.1392,-1.1775,-1.2107,-1.2419,-1.2735,-1.3033,-1.3312,-1.3573,-1.3851,-1.4087,-1.4264,-1.4407,-1.4536,-1.4691,-1.4425,-1.3914,-1.3802,-1.3561,-1.3101,-1.3364,-1.3831,-1.4112,-1.4361,-1.4258,-0.9382,-0.9557,-0.9601,-0.9437,-0.9195,-0.9043,-0.8867,-0.8807,-0.8614,-0.8517,-0.8522,-0.849,-0.8479,-0.8447,-0.8226,-0.818,-0.8102,-0.7756,-0.7472,-0.72,-0.6937,-0.6672,-0.6421,-0.6147,-0.59,-0.5791,-0.5597,-0.5391,-0.5153,-0.5064,-0.4831,-0.4392,-0.3965,-0.3704,-0.3551,-0.317,-0.2951,-0.2865,-0.2729,-0.2551,-0.2281,-0.2241,-0.2201,-0.2201,-0.2284,-0.237,-0.246,-0.2729,-0.2954,-0.3173,-0.3442,-0.3759,-0.402,-0.4236,-0.4447,-0.4757,-0.4971,-0.5318,-0.589,-0.6202,-0.6538,-0.6872,-0.7209,-0.7405,-0.753,-0.7746,-0.8044,-0.8324,-0.8561,-0.8724,-0.8862,-0.9136,-0.9253,-0.9173,-0.9121,-0.9029,-0.878,-0.8458,-0.8247,-0.8228,-0.8368,-0.8512,-0.8784,-0.9042,-0.9286,-0.9632,-0.9854,-1.011,-1.0336,-1.0559,-1.0839,-1.1201,-1.1571,-1.1918,-1.2266,-1.2585,-1.2906,-1.3175,-1.3445,-1.3682,-1.3891,-1.4083,-1.4264,-1.4391,-1.4526,-1.4372,-1.3804,-1.3633,-1.3386,-1.2521,-1.2592,-1.3051,-1.3849,-1.4503,-1.4683,-0.9473,-0.976,-0.9739,-0.9642,-0.9427,-0.9324,-0.92,-0.9055,-0.8964,-0.8851,-0.8727,-0.8721,-0.8641,-0.8506,-0.8409,-0.8366,-0.835,-0.8062,-0.7822,-0.7502,-0.7225,-0.6881,-0.6525,-0.628,-0.6072,-0.5905,-0.5791,-0.5642,-0.5395,-0.5185,-0.4947,-0.4695,-0.4315,-0.3994,-0.3749,-0.3481,-0.3217,-0.2948,-0.2865,-0.2729,-0.2549,-0.2417,-0.2375,-0.2375,-0.2373,-0.2502,-0.2637,-0.286,-0.3081,-0.3306,-0.3619,-0.3884,-0.4192,-0.4408,-0.4622,-0.4893,-0.5188,-0.5539,-0.5976,-0.6239,-0.6502,-0.6757,-0.7083,-0.7328,-0.7454,-0.767,-0.787,-0.8118,-0.8365,-0.861,-0.8773,-0.8967,-0.9168,-0.9235,-0.9174,-0.9087,-0.9119,-0.8646,-0.8334,-0.847,-0.84,-0.8421,-0.8673,-0.9003,-0.9286,-0.9591,-0.9776,-1.0034,-1.0198,-1.0436,-1.0694,-1.0991,-1.1339,-1.1703,-1.2123,-1.2427,-1.2722,-1.3033,-1.3278,-1.3477,-1.368,-1.3894,-1.4064,-1.4201,-1.435,-1.3963,-1.2845,-1.2718,-1.2512,-1.1731,-1.1697,-1.2271,-1.3643,-1.4202,-1.4415,-0.9544,-0.9846,-0.9922,-0.9825,-0.9669,-0.9604,-0.9475,-0.9308,-0.9238,-0.9109,-0.8958,-0.8961,-0.8775,-0.8619,-0.8544,-0.8517,-0.849,-0.8328,-0.8059,-0.7792,-0.7517,-0.7141,-0.6705,-0.6462,-0.6233,-0.6101,-0.5922,-0.5791,-0.5664,-0.5441,-0.5181,-0.4996,-0.4717,-0.4399,-0.3976,-0.3774,-0.3478,-0.3173,-0.304,-0.2909,-0.2771,-0.2682,-0.2593,-0.2504,-0.2549,-0.2593,-0.2773,-0.2948,-0.317,-0.3442,-0.3751,-0.406,-0.432,-0.4491,-0.4753,-0.5072,-0.5371,-0.5669,-0.5976,-0.6239,-0.6496,-0.6708,-0.6963,-0.7209,-0.737,-0.7538,-0.7739,-0.7979,-0.8201,-0.8406,-0.8675,-0.8895,-0.9096,-0.9253,-0.9208,-0.9188,-0.9217,-0.8803,-0.8649,-0.876,-0.8582,-0.8445,-0.8622,-0.896,-0.9286,-0.942,-0.9658,-0.9892,-1.0021,-1.0261,-1.0523,-1.0791,-1.1108,-1.1482,-1.194,-1.2266,-1.2565,-1.285,-1.3086,-1.3312,-1.3493,-1.3702,-1.3888,-1.4019,-1.4149,-1.3866,-1.2942,-1.2427,-1.1729,-1.0644,-1.0646,-1.1691,-1.3054,-1.3561,-1.4244,-0.9695,-0.9846,-0.9922,-0.9906,-0.989,-0.968,-0.9577,-0.9545,-0.933,-0.9206,-0.9168,-0.898,-0.8929,-0.8824,-0.8624,-0.8522,-0.8511,-0.849,-0.828,-0.7996,-0.7749,-0.7519,-0.7164,-0.6728,-0.6416,-0.6256,-0.6087,-0.5896,-0.5791,-0.5782,-0.5578,-0.5305,-0.5095,-0.4827,-0.4376,-0.3976,-0.371,-0.3516,-0.3315,-0.3126,-0.2987,-0.299,-0.2812,-0.2593,-0.2637,-0.2773,-0.2909,-0.3084,-0.3306,-0.3578,-0.3799,-0.41,-0.4456,-0.4578,-0.484,-0.5241,-0.555,-0.5761,-0.5981,-0.6239,-0.6502,-0.6672,-0.6907,-0.7112,-0.7377,-0.7447,-0.7648,-0.7979,-0.8021,-0.8226,-0.8643,-0.8854,-0.9047,-0.9279,-0.9408,-0.9376,-0.9245,-0.9225,-0.9181,-0.9014,-0.878,-0.8672,-0.862,-0.8905,-0.9162,-0.9324,-0.9499,-0.9684,-0.9905,-1.0097,-1.0324,-1.0621,-1.092,-1.1293,-1.174,-1.2102,-1.2407,-1.2681,-1.294,-1.3173,-1.3312,-1.3477,-1.3669,-1.3853,-1.4012,-1.3779,-1.3082,-1.2274,-1.1342,-1.0639,-1.0536,-1.1395,-1.2306,-1.3201,-1.3876,-0.9695,-0.9922,-0.9922,-0.9922,-0.9911,-0.983,-0.9798,-0.9793,-0.9701,-0.9577,-0.9448,-0.9357,-0.9227,-0.8923,-0.8781,-0.8657,-0.8522,-0.8517,-0.8317,-0.8042,-0.7906,-0.7668,-0.7197,-0.6865,-0.6599,-0.6406,-0.6216,-0.6059,-0.595,-0.5845,-0.5764,-0.5573,-0.5352,-0.5114,-0.4819,-0.4415,-0.4044,-0.371,-0.3539,-0.335,-0.317,-0.3123,-0.3078,-0.2948,-0.2904,-0.2904,-0.2948,-0.3217,-0.3439,-0.366,-0.3792,-0.4096,-0.4535,-0.4888,-0.5106,-0.5285,-0.5583,-0.5847,-0.5981,-0.6239,-0.6459,-0.6666,-0.6829,-0.7076,-0.7328,-0.7454,-0.7579,-0.7863,-0.7979,-0.8144,-0.8447,-0.8692,-0.8926,-0.9177,-0.9328,-0.9403,-0.9483,-0.9375,-0.9316,-0.9301,-0.9041,-0.8818,-0.8899,-0.8956,-0.9015,-0.9205,-0.9405,-0.9617,-0.9802,-1.0008,-1.0236,-1.051,-1.0777,-1.1108,-1.1519,-1.1949,-1.2262,-1.2522,-1.2754,-1.2959,-1.3139,-1.3295,-1.346,-1.3667,-1.3853,-1.3626,-1.2918,-1.1992,-1.105,-1.0276,-1.0235,-1.0709,-1.1396,-1.2201,-1.3009,-0.9771,-0.9922,-0.9922,-0.9922,-0.9922,-0.9922,-0.9922,-0.9922,-0.9922,-0.983,-0.9696,-0.9615,-0.9394,-0.9098,-0.8937,-0.8786,-0.8624,-0.8554,-0.8317,-0.8047,-0.7982,-0.7777,-0.7307,-0.705,-0.6842,-0.6615,-0.63,-0.6173,-0.6059,-0.5955,-0.59,-0.5832,-0.5601,-0.5404,-0.5155,-0.4787,-0.443,-0.4033,-0.388,-0.3677,-0.336,-0.335,-0.3306,-0.3214,-0.3126,-0.3123,-0.3123,-0.335,-0.3575,-0.3744,-0.388,-0.4144,-0.4574,-0.5062,-0.5328,-0.5328,-0.5669,-0.589,-0.6024,-0.6239,-0.6496,-0.6672,-0.6793,-0.7005,-0.7293,-0.737,-0.7545,-0.7787,-0.7946,-0.8103,-0.8365,-0.8521,-0.8765,-0.9096,-0.9248,-0.9368,-0.9634,-0.959,-0.9601,-0.9561,-0.9251,-0.9066,-0.9034,-0.8872,-0.8856,-0.9058,-0.9286,-0.9499,-0.971,-0.9931,-1.0161,-1.0399,-1.0681,-1.0991,-1.1339,-1.1696,-1.206,-1.2347,-1.2585,-1.2794,-1.2979,-1.3123,-1.3295,-1.3476,-1.3459,-1.324,-1.2647,-1.1718,-1.0829,-0.9909,-0.9831,-1.0239,-1.0737,-1.1124,-1.205,-0.9922,-0.9922,-0.9922,-0.9922,-0.9922,-0.9922,-0.9922,-0.9922,-0.9922,-0.9906,-0.9852,-0.969,-0.9577,-0.9459,-0.9114,-0.8888,-0.8869,-0.8635,-0.8338,-0.8052,-0.7982,-0.7852,-0.7483,-0.7283,-0.6998,-0.6716,-0.636,-0.6178,-0.6173,-0.6178,-0.6119,-0.6005,-0.5991,-0.573,-0.531,-0.5151,-0.4835,-0.4459,-0.4279,-0.4004,-0.3646,-0.3585,-0.3486,-0.3306,-0.335,-0.3394,-0.3398,-0.353,-0.3663,-0.3884,-0.402,-0.4276,-0.4618,-0.5019,-0.5328,-0.5376,-0.5717,-0.5981,-0.6019,-0.6239,-0.6502,-0.6666,-0.6715,-0.6878,-0.7125,-0.7335,-0.7496,-0.7663,-0.7863,-0.8103,-0.8324,-0.8439,-0.8651,-0.8926,-0.9168,-0.9328,-0.9506,-0.9783,-0.9973,-0.979,-0.9472,-0.9192,-0.8922,-0.8731,-0.8695,-0.8855,-0.9101,-0.9393,-0.9605,-0.9828,-1.0059,-1.0299,-1.0572,-1.0849,-1.1155,-1.1429,-1.1811,-1.2185,-1.2412,-1.2646,-1.2815,-1.2982,-1.3175,-1.3362,-1.3589,-1.3342,-1.2305,-1.1455,-1.0849,-1.0132,-1.0055,-0.9861,-1.0272,-1.0748,-1.1321,-0.9922,-0.9922,-0.9922,-0.9922,-0.9922,-0.9922,-0.9922,-0.9922,-0.9922,-0.9922,-0.9906,-0.9841,-0.9728,-0.9577,-0.9405,-0.9174,-0.8872,-0.8781,-0.853,-0.8203,-0.8052,-0.7857,-0.7623,-0.7316,-0.6974,-0.6639,-0.6304,-0.6173,-0.6173,-0.6173,-0.6173,-0.6119,-0.6059,-0.5919,-0.5739,-0.5514,-0.5208,-0.4905,-0.4622,-0.4334,-0.4,-0.385,-0.3704,-0.3568,-0.3568,-0.3571,-0.3534,-0.3615,-0.3744,-0.3836,-0.4016,-0.4236,-0.4622,-0.5062,-0.5285,-0.5376,-0.5761,-0.6024,-0.6024,-0.6239,-0.6453,-0.6575,-0.6666,-0.6836,-0.7034,-0.7245,-0.7412,-0.7572,-0.778,-0.7995,-0.8111,-0.8324,-0.8537,-0.8871,-0.9016,-0.9168,-0.9417,-0.9744,-1.004,-1.0039,-0.9596,-0.9288,-0.9168,-0.8927,-0.8611,-0.8773,-0.9058,-0.9313,-0.9552,-0.9724,-0.9957,-1.0199,-1.0474,-1.0718,-1.1015,-1.127,-1.1586,-1.1955,-1.2231,-1.2491,-1.2684,-1.2871,-1.3034,-1.3261,-1.3493,-1.3095,-1.2052,-1.1382,-1.0884,-1.0166,-0.9733,-0.9771,-1.0026,-1.0406,-1.0878,-1.0062,-1.0051,-0.9954,-0.9922,-0.9922,-0.9922,-0.9922,-0.9922,-0.9922,-0.9922,-0.9922,-0.9916,-0.9846,-0.9707,-0.962,-0.9416,-0.912,-0.8958,-0.8714,-0.8427,-0.8138,-0.7927,-0.7697,-0.738,-0.6993,-0.6672,-0.6384,-0.6243,-0.6173,-0.6173,-0.6173,-0.6173,-0.6119,-0.6055,-0.5996,-0.577,-0.5527,-0.5263,-0.5014,-0.469,-0.4416,-0.4161,-0.3984,-0.3799,-0.3788,-0.3748,-0.3707,-0.3796,-0.3836,-0.388,-0.41,-0.436,-0.4618,-0.5062,-0.5328,-0.5371,-0.5669,-0.5933,-0.6024,-0.619,-0.6404,-0.6489,-0.6617,-0.6751,-0.695,-0.716,-0.737,-0.7489,-0.7663,-0.7878,-0.7995,-0.8201,-0.8414,-0.8667,-0.8903,-0.9136,-0.9417,-0.9704,-0.998,-0.9983,-0.9567,-0.9293,-0.9213,-0.8869,-0.8531,-0.8673,-0.8933,-0.9217,-0.9446,-0.9646,-0.9892,-1.0123,-1.0349,-1.0608,-1.0873,-1.1132,-1.1399,-1.1696,-1.2018,-1.2307,-1.2546,-1.2722,-1.2889,-1.3175,-1.3428,-1.2867,-1.1938,-1.1693,-1.125,-1.0422,-0.9546,-0.9631,-0.9822,-0.9828,-1.0175,-1.0309,-1.0283,-1.0046,-0.996,-0.9954,-0.9933,-0.9922,-0.9922,-0.9922,-0.9922,-0.9922,-0.9922,-0.9916,-0.9863,-0.9712,-0.9583,-0.9497,-0.9173,-0.8883,-0.8714,-0.8296,-0.7857,-0.7632,-0.7316,-0.705,-0.6865,-0.6624,-0.6431,-0.6234,-0.6192,-0.6173,-0.6173,-0.6173,-0.6119,-0.6055,-0.5996,-0.5846,-0.5553,-0.5388,-0.5098,-0.4673,-0.4521,-0.4291,-0.3965,-0.3958,-0.3902,-0.3884,-0.4016,-0.406,-0.4012,-0.436,-0.4574,-0.4709,-0.5062,-0.5328,-0.5328,-0.562,-0.5841,-0.5976,-0.6147,-0.6264,-0.6441,-0.6575,-0.6757,-0.6878,-0.7083,-0.7251,-0.737,-0.7587,-0.7753,-0.7878,-0.8044,-0.825,-0.8414,-0.8773,-0.9185,-0.9594,-0.9674,-0.9832,-0.9916,-0.9498,-0.9038,-0.9134,-0.8644,-0.8435,-0.8516,-0.8789,-0.9042,-0.9286,-0.9514,-0.9802,-1.0008,-1.0211,-1.0449,-1.0681,-1.092,-1.1178,-1.1452,-1.1768,-1.2066,-1.2407,-1.2588,-1.2815,-1.3122,-1.3244,-1.2622,-1.2131,-1.1846,-1.1229,-1.025,-0.9753,-0.9616,-0.9591,-0.9654,-0.9776,-1.0541,-1.0519,-1.0293,-1.0196,-1.0169,-1.0008,-0.9922,-0.9922,-0.9922,-0.9922,-0.9922,-0.9922,-0.9922,-0.9911,-0.9857,-0.9744,-0.9545,-0.926,-0.9007,-0.8845,-0.8285,-0.7862,-0.7553,-0.7321,-0.7135,-0.7026,-0.6733,-0.6445,-0.644,-0.6257,-0.6187,-0.6173,-0.6173,-0.6173,-0.6173,-0.6119,-0.6036,-0.5855,-0.5667,-0.547,-0.5288,-0.4992,-0.4701,-0.4453,-0.4337,-0.4127,-0.3987,-0.4144,-0.428,-0.4368,-0.4535,-0.4705,-0.4753,-0.5106,-0.5285,-0.5328,-0.5583,-0.5793,-0.5884,-0.6056,-0.6227,-0.627,-0.6489,-0.6617,-0.6757,-0.695,-0.7118,-0.7245,-0.7454,-0.7614,-0.7746,-0.7878,-0.8085,-0.8373,-0.8732,-0.9096,-0.9386,-0.9594,-0.9753,-0.9778,-0.9341,-0.9067,-0.8928,-0.8612,-0.8293,-0.8432,-0.8673,-0.8921,-0.9178,-0.9393,-0.9632,-0.9828,-1.0034,-1.0236,-1.0485,-1.0729,-1.0968,-1.121,-1.1505,-1.1775,-1.2154,-1.251,-1.2794,-1.3085,-1.3227,-1.2818,-1.2356,-1.1977,-1.1059,-1.0341,-1.0011,-0.9879,-0.9679,-0.9646,-0.9761,-1.0783,-1.0762,-1.0536,-1.0385,-1.0283,-1.0137,-1.0019,-0.9933,-0.9922,-0.9922,-0.9922,-0.9922,-0.9922,-0.9922,-0.9916,-0.9852,-0.9701,-0.947,-0.9233,-0.8906,-0.8332,-0.7867,-0.7558,-0.7383,-0.7307,-0.7202,-0.6913,-0.671,-0.6487,-0.6351,-0.6267,-0.6187,-0.6173,-0.6173,-0.6173,-0.6173,-0.6173,-0.6095,-0.594,-0.5747,-0.5544,-0.534,-0.5089,-0.4822,-0.464,-0.4409,-0.4216,-0.4324,-0.4412,-0.4499,-0.4622,-0.4753,-0.4845,-0.5062,-0.5285,-0.5285,-0.5539,-0.5707,-0.5836,-0.6013,-0.6142,-0.6227,-0.6398,-0.6532,-0.6708,-0.6872,-0.7041,-0.7209,-0.7328,-0.7454,-0.7614,-0.7829,-0.8085,-0.8373,-0.8692,-0.8975,-0.9168,-0.9377,-0.9594,-0.9559,-0.9262,-0.8911,-0.8984,-0.85,-0.8311,-0.8365,-0.8551,-0.8811,-0.9042,-0.9271,-0.9458,-0.9646,-0.9854,-1.0059,-1.0274,-1.051,-1.0801,-1.1048,-1.1392,-1.1659,-1.1988,-1.2412,-1.2681,-1.2906,-1.3105,-1.3059,-1.2574,-1.2155,-1.1763,-1.1141,-1.06,-1.0379,-1.0366,-1.0068,-1.0117,-1.1025,-1.1004,-1.0767,-1.0552,-1.039,-1.0315,-1.0164,-0.9986,-0.9938,-0.9922,-0.9922,-0.9922,-0.9922,-0.9922,-0.9922,-0.9916,-0.9895,-0.9642,-0.9383,-0.8944,-0.8358,-0.7902,-0.7587,-0.7502,-0.7412,-0.7288,-0.7245,-0.6951,-0.6705,-0.6587,-0.6379,-0.6317,-0.6206,-0.6173,-0.6173,-0.6173,-0.6173,-0.6173,-0.61,-0.5958,-0.5804,-0.5636,-0.5379,-0.5089,-0.4768,-0.4625,-0.4491,-0.4477,-0.4499,-0.4499,-0.4714,-0.4801,-0.4845,-0.5062,-0.5193,-0.5285,-0.5453,-0.562,-0.575,-0.5884,-0.6019,-0.6184,-0.6349,-0.6526,-0.666,-0.6793,-0.6963,-0.709,-0.7181,-0.7335,-0.7523,-0.7773,-0.8028,-0.8324,-0.8529,-0.8773,-0.8967,-0.9168,-0.9417,-0.9579,-0.9069,-0.8869,-0.8775,-0.8518,-0.813,-0.8244,-0.846,-0.8673,-0.8905,-0.9108,-0.9286,-0.9473,-0.9672,-0.9854,-1.0085,-1.0324,-1.0608,-1.092,-1.1316,-1.1615,-1.1918,-1.2251,-1.2506,-1.2738,-1.2944,-1.294,-1.2736,-1.2412,-1.2158,-1.1889,-1.1323,-1.1462,-1.1632,-1.1081,-1.0904,-1.1268,-1.1252,-1.1015,-1.088,-1.0778,-1.0455,-1.0266,-1.0186,-0.9992,-0.9922,-0.9922,-0.9922,-0.9922,-0.9922,-0.9922,-0.9922,-0.989,-0.9669,-0.9291,-0.8748,-0.8451,-0.8001,-0.7705,-0.7606,-0.7502,-0.7421,-0.7288,-0.7106,-0.6965,-0.671,-0.6516,-0.6403,-0.6317,-0.6173,-0.6173,-0.6173,-0.6173,-0.6173,-0.6173,-0.61,-0.6058,-0.5914,-0.5717,-0.5357,-0.4872,-0.4599,-0.4517,-0.4491,-0.4504,-0.4583,-0.4714,-0.4845,-0.4937,-0.5111,-0.5241,-0.5285,-0.541,-0.5583,-0.5712,-0.5798,-0.5922,-0.6062,-0.6179,-0.6355,-0.6526,-0.6666,-0.6793,-0.6963,-0.709,-0.7245,-0.7482,-0.7739,-0.7953,-0.8118,-0.8324,-0.857,-0.8765,-0.9079,-0.9337,-0.9391,-0.906,-0.8715,-0.8727,-0.8295,-0.8097,-0.8171,-0.8329,-0.8544,-0.8739,-0.8933,-0.9124,-0.9313,-0.9473,-0.9684,-0.9918,-1.0173,-1.0523,-1.0825,-1.1201,-1.1519,-1.1826,-1.2081,-1.2327,-1.2565,-1.2813,-1.2784,-1.2757,-1.2615,-1.2373,-1.2203,-1.209,-1.2138,-1.2109,-1.1787,-1.1672,-1.1267,-1.1251,-1.1209,-1.1025,-1.0799,-1.0557,-1.0326,-1.0121,-0.9986,-0.9922,-0.9922,-0.9922,-0.9922,-0.9922,-0.9922,-0.9922,-0.9868,-0.9685,-0.9459,-0.9076,-0.881,-0.8414,-0.8041,-0.7854,-0.7697,-0.7531,-0.7426,-0.7326,-0.7169,-0.6936,-0.6738,-0.6482,-0.6421,-0.6322,-0.6187,-0.6182,-0.6173,-0.6173,-0.6173,-0.6173,-0.6173,-0.6055,-0.5802,-0.5423,-0.4989,-0.4739,-0.4637,-0.4592,-0.4581,-0.4644,-0.4661,-0.4801,-0.498,-0.5067,-0.5159,-0.5285,-0.5371,-0.5501,-0.5674,-0.5755,-0.5841,-0.5976,-0.6142,-0.6307,-0.6435,-0.6568,-0.6708,-0.6872,-0.6999,-0.7167,-0.7447,-0.7663,-0.7829,-0.8028,-0.8242,-0.8496,-0.8683,-0.8967,-0.9208,-0.9234,-0.8913,-0.8697,-0.8484,-0.8153,-0.8029,-0.8093,-0.8197,-0.8404,-0.8589,-0.8795,-0.8944,-0.9135,-0.9298,-0.9485,-0.971,-1.0046,-1.0449,-1.0753,-1.1085,-1.1384,-1.1667,-1.1891,-1.2123,-1.2388,-1.2642,-1.2869,-1.2853,-1.2706,-1.2764,-1.2897,-1.2868,-1.275,-1.2642,-1.2598,-1.253,-1.1267,-1.1267,-1.1267,-1.1095,-1.0719,-1.0643,-1.039,-1.003,-0.9933,-0.9922,-0.9922,-0.9922,-0.9922,-0.9922,-0.9922,-0.9922,-0.9873,-0.9755,-0.9599,-0.9491,-0.9193,-0.8783,-0.847,-0.8165,-0.7942,-0.7579,-0.7517,-0.7416,-0.7312,-0.7154,-0.6951,-0.6681,-0.6534,-0.644,-0.6285,-0.6225,-0.622,-0.6187,-0.6173,-0.6119,-0.6119,-0.6005,-0.5757,-0.5439,-0.5168,-0.4889,-0.471,-0.4633,-0.4583,-0.4548,-0.4574,-0.4709,-0.4888,-0.4985,-0.5072,-0.5285,-0.5328,-0.542,-0.5631,-0.5755,-0.5841,-0.5976,-0.6099,-0.627,-0.6398,-0.6477,-0.6611,-0.6745,-0.6914,-0.7076,-0.7335,-0.7538,-0.7746,-0.7904,-0.816,-0.8414,-0.8651,-0.8814,-0.9007,-0.9173,-0.8838,-0.8544,-0.8398,-0.8165,-0.8079,-0.8025,-0.813,-0.8244,-0.846,-0.8628,-0.8767,-0.8878,-0.9042,-0.9339,-0.9567,-0.9892,-1.0324,-1.0645,-1.0968,-1.1224,-1.1489,-1.1711,-1.1933,-1.2226,-1.2487,-1.27,-1.2924,-1.2939,-1.3109,-1.3508,-1.3544,-1.3295,-1.3319,-1.344,-1.3333,-1.1267,-1.1267,-1.1267,-1.1182,-1.0912,-1.0719,-1.0466,-1.0223,-0.9992,-0.9922,-0.9922,-0.9922,-0.9922,-0.9922,-0.9922,-0.9922,-0.9906,-0.9836,-0.975,-0.9631,-0.9373,-0.9092,-0.8819,-0.8462,-0.8122,-0.7956,-0.7707,-0.7517,-0.7426,-0.7302,-0.7183,-0.7017,-0.6875,-0.6651,-0.652,-0.644,-0.6323,-0.6225,-0.6128,-0.6059,-0.6005,-0.5896,-0.5723,-0.5479,-0.5227,-0.4943,-0.4648,-0.4526,-0.4413,-0.434,-0.4364,-0.4491,-0.4622,-0.4757,-0.4932,-0.5154,-0.5285,-0.5371,-0.5539,-0.5674,-0.5755,-0.5841,-0.597,-0.6099,-0.627,-0.6392,-0.652,-0.6647,-0.6823,-0.7034,-0.7209,-0.7412,-0.7579,-0.7746,-0.7919,-0.8118,-0.8373,-0.857,-0.8805,-0.9107,-0.8764,-0.8417,-0.8313,-0.8137,-0.79,-0.787,-0.7986,-0.8101,-0.8272,-0.8414,-0.8555,-0.8673,-0.8773,-0.9101,-0.9449,-0.9776,-1.0135,-1.0449,-1.0753,-1.1052,-1.1285,-1.1489,-1.1755,-1.2018,-1.2287,-1.2526,-1.2757,-1.2997,-1.3192,-1.3379,-1.3557,-1.3746,-1.3693,-1.3665,-1.3841,-1.1267,-1.1251,-1.1219,-1.102,-1.0789,-1.0557,-1.0326,-1.0105,-0.997,-0.9922,-0.9922,-0.9922,-0.9922,-0.9922,-0.9922,-0.9922,-0.9922,-0.9922,-0.9852,-0.976,-0.9665,-0.9401,-0.9201,-0.8831,-0.8438,-0.8152,-0.7932,-0.7678,-0.7526,-0.7436,-0.7321,-0.7207,-0.7045,-0.6922,-0.6684,-0.6529,-0.6388,-0.6276,-0.6073,-0.595,-0.5896,-0.5791,-0.5567,-0.537,-0.5209,-0.4918,-0.4652,-0.4481,-0.4317,-0.4214,-0.4151,-0.4244,-0.4403,-0.4539,-0.4714,-0.5024,-0.5241,-0.5371,-0.5491,-0.5631,-0.5717,-0.5793,-0.5884,-0.6013,-0.6142,-0.6313,-0.6392,-0.652,-0.6732,-0.6992,-0.7076,-0.7245,-0.7412,-0.7579,-0.7704,-0.7961,-0.8209,-0.8365,-0.8683,-0.8979,-0.8571,-0.8316,-0.8351,-0.8117,-0.7751,-0.7725,-0.787,-0.7986,-0.8082,-0.8215,-0.8358,-0.8544,-0.8662,-0.8976,-0.9289,-0.9607,-0.9957,-1.0236,-1.0534,-1.0839,-1.1099,-1.1307,-1.1519,-1.1768,-1.2045,-1.2307,-1.2585,-1.2832,-1.3034,-1.3244,-1.3429,-1.3591,-1.3748,-1.3883,-1.398,-1.1278,-1.1257,-1.1015,-1.0778,-1.0557,-1.0379,-1.0159,-0.9954,-0.9922,-0.9922,-0.9922,-0.9922,-0.9922,-0.9922,-0.9922,-0.9922,-0.9922,-0.9922,-0.9911,-0.99,-0.982,-0.9718,-0.9527,-0.9244,-0.8929,-0.8548,-0.8117,-0.7932,-0.7559,-0.7507,-0.7421,-0.734,-0.7288,-0.7149,-0.6922,-0.6703,-0.6515,-0.6342,-0.607,-0.5903,-0.5694,-0.5572,-0.5399,-0.5124,-0.5069,-0.4927,-0.4595,-0.4481,-0.4304,-0.4142,-0.4009,-0.401,-0.4196,-0.4276,-0.4495,-0.4806,-0.5116,-0.5285,-0.5453,-0.5588,-0.5674,-0.5755,-0.5793,-0.5922,-0.605,-0.6179,-0.6307,-0.6477,-0.6653,-0.6823,-0.6907,-0.7076,-0.7202,-0.7363,-0.7538,-0.7753,-0.8002,-0.8201,-0.8447,-0.8484,-0.8217,-0.8193,-0.8234,-0.7849,-0.7457,-0.7558,-0.7676,-0.7783,-0.7909,-0.8015,-0.8148,-0.8404,-0.8617,-0.8878,-0.9166,-0.9422,-0.9738,-1.0034,-1.0336,-1.0608,-1.0873,-1.1132,-1.1347,-1.1549,-1.1768,-1.2045,-1.2352,-1.2646,-1.2889,-1.3105,-1.3278,-1.3446,-1.3608,-1.3748,-1.3868,-1.1025,-1.1004,-1.0778,-1.0546,-1.0353,-1.0299,-1.0148,-0.9938,-0.9922,-0.9922,-0.9922,-0.9922,-0.9922,-0.9922,-0.9922,-0.9922,-0.9922,-0.9922,-0.9922,-0.9922,-0.9916,-0.99,-0.9761,-0.9422,-0.9259,-0.8918,-0.8433,-0.7942,-0.7659,-0.7545,-0.7517,-0.7469,-0.7385,-0.7385,-0.7154,-0.6897,-0.675,-0.6515,-0.6078,-0.568,-0.5389,-0.5246,-0.5179,-0.5069,-0.4948,-0.4783,-0.4495,-0.4414,-0.4289,-0.4017,-0.399,-0.3982,-0.4006,-0.4188,-0.4276,-0.4495,-0.4762,-0.5116,-0.5285,-0.5458,-0.5588,-0.5669,-0.5755,-0.583,-0.5916,-0.6093,-0.6264,-0.6477,-0.6562,-0.6611,-0.6738,-0.6907,-0.7027,-0.7154,-0.728,-0.7496,-0.7746,-0.7995,-0.8201,-0.8238,-0.8068,-0.81,-0.8149,-0.7634,-0.7223,-0.7351,-0.7499,-0.7617,-0.7725,-0.7841,-0.8004,-0.8251,-0.8449,-0.8712,-0.8987,-0.9247,-0.9502,-0.9816,-1.011,-1.0386,-1.0656,-1.0897,-1.1132,-1.1347,-1.1571,-1.1743,-1.1968,-1.2281,-1.2695,-1.2961,-1.3122,-1.3312,-1.3496,-1.3608,-1.3698,-1.067,-1.0762,-1.0541,-1.0385,-1.0277,-1.0143,-1.0024,-0.9938,-0.9922,-0.9922,-0.9922,-0.9922,-0.9922,-0.9922,-0.9922,-0.9922,-0.9922,-0.9922,-0.9922,-0.9922,-0.9922,-0.9922,-0.982,-0.9734,-0.9575,-0.9249,-0.8913,-0.8443,-0.7991,-0.7583,-0.7526,-0.7526,-0.7526,-0.7447,-0.7307,-0.7067,-0.6845,-0.6511,-0.5981,-0.5477,-0.5212,-0.5072,-0.4959,-0.4849,-0.4736,-0.4583,-0.4362,-0.4161,-0.4033,-0.3904,-0.3889,-0.3897,-0.3876,-0.4009,-0.4172,-0.432,-0.4451,-0.4762,-0.5116,-0.5366,-0.5496,-0.5583,-0.5669,-0.575,-0.5836,-0.6007,-0.6227,-0.6313,-0.6435,-0.6526,-0.6575,-0.6745,-0.6865,-0.695,-0.707,-0.7286,-0.7496,-0.7704,-0.7874,-0.7903,-0.7913,-0.7891,-0.7815,-0.7392,-0.7033,-0.7095,-0.7253,-0.7372,-0.7519,-0.7666,-0.7889,-0.8138,-0.8308,-0.8505,-0.8784,-0.9031,-0.9289,-0.9581,-0.9854,-1.0135,-1.0411,-1.0656,-1.092,-1.1178,-1.1415,-1.1533,-1.1617,-1.1964,-1.2409,-1.2713,-1.2961,-1.2955,-1.2958,-1.3294,-1.3438,-1.0358,-1.0433,-1.0272,-1.0202,-1.0186,-0.9997,-0.9922,-0.9922,-0.9922,-0.9922,-0.9922,-0.9922,-0.9922,-0.9922,-0.9922,-0.9922,-0.9922,-0.9922,-0.9922,-0.9922,-0.9922,-0.9922,-0.9916,-0.9814,-0.9745,-0.9437,-0.9259,-0.8877,-0.8304,-0.7865,-0.7663,-0.7531,-0.7526,-0.7461,-0.7358,-0.7081,-0.6795,-0.6366,-0.5796,-0.5331,-0.5124,-0.4923,-0.4812,-0.4684,-0.4519,-0.4353,-0.4165,-0.3989,-0.3878,-0.3812,-0.3819,-0.3853,-0.3829,-0.3889,-0.4018,-0.419,-0.4325,-0.4495,-0.4806,-0.5111,-0.5366,-0.5453,-0.5583,-0.5669,-0.583,-0.6007,-0.6142,-0.6147,-0.6313,-0.6398,-0.6441,-0.6575,-0.6653,-0.6781,-0.6907,-0.7076,-0.7286,-0.7496,-0.769,-0.7751,-0.7723,-0.7556,-0.7408,-0.7074,-0.6876,-0.6859,-0.6966,-0.7125,-0.7312,-0.749,-0.7715,-0.7937,-0.8099,-0.828,-0.8533,-0.8811,-0.9074,-0.9354,-0.9619,-0.988,-1.0161,-1.0436,-1.0718,-1.0968,-1.119,-1.1133,-1.1081,-1.1596,-1.2042,-1.1901,-1.1855,-1.2171,-1.2373,-1.2707,-1.2868,-1.0164,-0.997,-0.996,-0.9954,-0.996,-0.9933,-0.9922,-0.9922,-0.9922,-0.9922,-0.9922,-0.9922,-0.9922,-0.9922,-0.9922,-0.9922,-0.9922,-0.9922,-0.9922,-0.9922,-0.9922,-0.9922,-0.9922,-0.9916,-0.9825,-0.9761,-0.9485,-0.9104,-0.8629,-0.8186,-0.7855,-0.7555,-0.7531,-0.7396,-0.7195,-0.6963,-0.6552,-0.6109,-0.5578,-0.5292,-0.5046,-0.4847,-0.4636,-0.4463,-0.4301,-0.4135,-0.4021,-0.3941,-0.3845,-0.3779,-0.3782,-0.3794,-0.377,-0.382,-0.3894,-0.4058,-0.4195,-0.4333,-0.4544,-0.4842,-0.5116,-0.5285,-0.5453,-0.5583,-0.575,-0.5793,-0.5884,-0.6019,-0.6184,-0.6227,-0.627,-0.6398,-0.6483,-0.6611,-0.6738,-0.6901,-0.7076,-0.7286,-0.7474,-0.7597,-0.758,-0.7413,-0.7198,-0.6912,-0.6755,-0.6744,-0.6772,-0.6893,-0.7125,-0.7303,-0.7519,-0.7715,-0.785,-0.8042,-0.828,-0.8533,-0.8784,-0.9058,-0.9339,-0.9619,-0.9867,-1.0186,-1.0485,-1.064,-1.0772,-1.0642,-1.0512,-1.0707,-1.0807,-1.0646,-1.0751,-1.127,-1.1515,-1.1706,-1.177,-1.0008,-0.9922,-0.9922,-0.9922,-0.9922,-0.9922,-0.9922,-0.9922,-0.9922,-0.9922,-0.9922,-0.9922,-0.9922,-0.9922,-0.9922,-0.9922,-0.9922,-0.9922,-0.9922,-0.9922,-0.9922,-0.9922,-0.9922,-0.9922,-0.9916,-0.9825,-0.9569,-0.9192,-0.8659,-0.8409,-0.7947,-0.7702,-0.7475,-0.7396,-0.7138,-0.6815,-0.6302,-0.594,-0.5487,-0.5175,-0.4865,-0.4532,-0.4301,-0.4187,-0.4018,-0.3965,-0.3852,-0.3802,-0.3715,-0.3684,-0.3776,-0.375,-0.3712,-0.378,-0.386,-0.3941,-0.4091,-0.4204,-0.4423,-0.4681,-0.498,-0.5198,-0.5323,-0.5453,-0.5626,-0.5669,-0.5755,-0.589,-0.6019,-0.6062,-0.6099,-0.6227,-0.6355,-0.6447,-0.6575,-0.6738,-0.6907,-0.7076,-0.7238,-0.737,-0.7389,-0.7309,-0.7047,-0.6789,-0.6669,-0.6567,-0.6616,-0.6681,-0.6915,-0.7095,-0.7273,-0.7451,-0.7588,-0.7782,-0.8023,-0.8251,-0.8449,-0.8767,-0.9069,-0.9354,-0.9633,-0.9919,-1.0197,-1.0321,-1.0304,-1.0094,-0.991,-0.9692,-0.969,-0.9838,-1.0159,-1.0607,-1.0734,-1.0733,-1.0818,-0.9922,-0.9922,-0.9922,-0.9922,-0.9922,-0.9922,-0.9922,-0.9922,-0.9922,-0.9922,-0.9922,-0.9922,-0.9922,-0.9922,-0.9922,-0.9922,-0.9922,-0.9922,-0.9922,-0.9922,-0.9922,-0.9922,-0.9922,-0.9846,-0.9846,-0.9771,-0.9669,-0.9252,-0.8719,-0.8487,-0.8029,-0.765,-0.7424,-0.7269,-0.7007,-0.6548,-0.6086,-0.5752,-0.5329,-0.4945,-0.4645,-0.4336,-0.4107,-0.3984,-0.3852,-0.3796,-0.3744,-0.3638,-0.3638,-0.363,-0.3674,-0.3695,-0.3687,-0.3732,-0.377,-0.3856,-0.3946,-0.4076,-0.4342,-0.4654,-0.4897,-0.5143,-0.5179,-0.5251,-0.5415,-0.5545,-0.5669,-0.5707,-0.5841,-0.5933,-0.5927,-0.6056,-0.619,-0.6276,-0.6447,-0.6575,-0.6702,-0.6829,-0.6992,-0.7147,-0.7134,-0.7169,-0.706,-0.6805,-0.6468,-0.6403,-0.6379,-0.649,-0.6681,-0.6824,-0.6966,-0.7154,-0.7333,-0.753,-0.7753,-0.7984,-0.8223,-0.8533,-0.8866,-0.9151,-0.9434,-0.9712,-0.9995,-1.0204,-1.0043,-0.9625,-0.9292,-0.9014,-0.907,-0.923,-0.9483,-0.9686,-0.9677,-0.9678,-0.9955,-0.9922,-0.9922,-0.9922,-0.9922,-0.9922,-0.9922,-0.9922,-0.9922,-0.9922,-0.9922,-0.9922,-0.9922,-0.9922,-0.9922,-0.9922,-0.9922,-0.9922,-0.9922,-0.9922,-0.9922,-0.9922,-0.9922,-0.9922,-0.9846,-0.9771,-0.962,-0.9523,-0.919,-0.8729,-0.8394,-0.8027,-0.7541,-0.7229,-0.7073,-0.6815,-0.6222,-0.576,-0.5404,-0.5132,-0.4803,-0.4476,-0.4271,-0.4032,-0.3822,-0.3796,-0.3688,-0.3635,-0.3638,-0.3585,-0.3641,-0.3641,-0.3677,-0.3712,-0.3627,-0.3682,-0.3816,-0.3808,-0.3906,-0.4072,-0.4447,-0.4752,-0.4965,-0.4978,-0.5067,-0.5208,-0.5366,-0.5496,-0.5539,-0.5669,-0.5793,-0.5836,-0.5927,-0.6019,-0.6105,-0.6276,-0.6404,-0.6496,-0.663,-0.6787,-0.6865,-0.6985,-0.7071,-0.7011,-0.687,-0.6378,-0.6183,-0.6191,-0.6276,-0.6429,-0.6551,-0.6665,-0.6846,-0.7035,-0.7235,-0.7462,-0.7753,-0.8013,-0.8326,-0.8634,-0.891,-0.922,-0.954,-0.9804,-1.0045,-0.9817,-0.9379,-0.8828,-0.8303,-0.8435,-0.8529,-0.8453,-0.8548,-0.8555,-0.876,-0.9184,-0.9922,-0.9922,-0.9922,-0.9922,-0.9922,-0.9922,-0.9922,-0.9922,-0.9922,-0.9922,-0.9922,-0.9922,-0.9922,-0.9922,-0.9922,-0.9922,-0.9922,-0.9922,-0.9922,-0.9922,-0.9922,-0.9922,-0.9846,-0.9771,-0.9695,-0.9549,-0.9382,-0.906,-0.868,-0.8289,-0.7929,-0.7509,-0.6985,-0.6626,-0.6482,-0.6086,-0.5693,-0.5401,-0.5084,-0.4687,-0.4305,-0.4115,-0.3932,-0.3699,-0.3691,-0.3635,-0.3583,-0.3585,-0.3585,-0.3585,-0.3585,-0.3638,-0.3691,-0.3627,-0.3678,-0.3781,-0.3827,-0.3889,-0.4071,-0.4333,-0.4489,-0.4633,-0.4763,-0.4884,-0.5062,-0.5116,-0.5241,-0.5366,-0.5491,-0.5577,-0.5626,-0.5793,-0.5884,-0.5922,-0.605,-0.6184,-0.6276,-0.641,-0.6538,-0.666,-0.6738,-0.6706,-0.6673,-0.668,-0.632,-0.6026,-0.5985,-0.6027,-0.616,-0.6276,-0.639,-0.6573,-0.6755,-0.6936,-0.7175,-0.7462,-0.7753,-0.807,-0.8344,-0.8651,-0.8992,-0.9328,-0.9633,-0.9868,-0.954,-0.9153,-0.865,-0.8201,-0.7872,-0.7798,-0.7942,-0.8111,-0.8337,-0.8511,-0.8739,-0.9922,-0.9922,-0.9922,-0.9922,-0.9922,-0.9922,-0.9922,-0.9922,-0.9922,-0.9922,-0.9922,-0.9922,-0.9922,-0.9922,-0.9922,-0.9922,-0.9922,-0.9922,-0.9922,-0.9922,-0.9922,-0.9846,-0.9771,-0.962,-0.9468,-0.9397,-0.916,-0.8859,-0.8594,-0.8161,-0.7633,-0.7181,-0.6643,-0.63,-0.6083,-0.5818,-0.5557,-0.5186,-0.4825,-0.4562,-0.418,-0.3938,-0.3817,-0.3674,-0.3585,-0.3585,-0.3585,-0.3585,-0.3585,-0.3585,-0.3585,-0.3585,-0.3585,-0.3641,-0.3638,-0.3691,-0.3796,-0.3904,-0.3975,-0.4114,-0.4244,-0.4306,-0.4495,-0.4629,-0.4781,-0.4856,-0.4994,-0.5149,-0.528,-0.5366,-0.5453,-0.5626,-0.5663,-0.5663,-0.5798,-0.5927,-0.6019,-0.6153,-0.6282,-0.6361,-0.6428,-0.6377,-0.6353,-0.6302,-0.6214,-0.6009,-0.58,-0.584,-0.5887,-0.6005,-0.6114,-0.6268,-0.6482,-0.6695,-0.6966,-0.7235,-0.753,-0.7782,-0.8099,-0.8428,-0.8745,-0.9085,-0.9396,-0.9624,-0.934,-0.8985,-0.8578,-0.8172,-0.7901,-0.7749,-0.7797,-0.7984,-0.8166,-0.834,-0.8521,-0.9922,-0.9922,-0.9922,-0.9922,-0.9922,-0.9922,-0.9922,-0.9922,-0.9922,-0.9922,-0.9922,-0.9922,-0.9922,-0.9922,-0.9922,-0.9922,-0.9922,-0.9922,-0.9922,-0.9922,-0.9922,-0.9771,-0.9695,-0.9544,-0.9316,-0.9099,-0.8865,-0.8694,-0.8362,-0.8019,-0.7451,-0.6846,-0.6368,-0.6036,-0.5815,-0.5617,-0.5355,-0.4989,-0.4758,-0.437,-0.4058,-0.3876,-0.376,-0.3621,-0.3585,-0.3585,-0.3585,-0.3585,-0.3585,-0.3585,-0.3585,-0.3585,-0.3585,-0.3585,-0.3585,-0.3638,-0.3744,-0.3799,-0.3849,-0.3941,-0.4005,-0.404,-0.4182,-0.4336,-0.4495,-0.4619,-0.4785,-0.4912,-0.5067,-0.5198,-0.529,-0.5328,-0.5371,-0.5458,-0.5588,-0.5674,-0.5723,-0.5852,-0.5976,-0.6099,-0.6184,-0.6162,-0.6259,-0.622,-0.6114,-0.6034,-0.5815,-0.569,-0.5723,-0.5732,-0.5842,-0.5998,-0.6214,-0.6482,-0.6725,-0.6975,-0.7264,-0.7549,-0.7908,-0.8213,-0.8533,-0.885,-0.9166,-0.9291,-0.9157,-0.8932,-0.8746,-0.8406,-0.799,-0.7893,-0.7839,-0.787,-0.8071,-0.8245,-0.8412,-0.9922,-0.9922,-0.9922,-0.9922,-0.9922,-0.9922,-0.9922,-0.9922,-0.9922,-0.9922,-0.9922,-0.9922,-0.9922,-0.9922,-0.9922,-0.9922,-0.9922,-0.9922,-0.9922,-0.9922,-0.9846,-0.9771,-0.9625,-0.9397,-0.9165,-0.8861,-0.8632,-0.8475,-0.8165,-0.7803,-0.7225,-0.6547,-0.6167,-0.5837,-0.5683,-0.5488,-0.5226,-0.4916,-0.4681,-0.4299,-0.3989,-0.3806,-0.3694,-0.3613,-0.3585,-0.3585,-0.3585,-0.3585,-0.3585,-0.3585,-0.3585,-0.3585,-0.3585,-0.3585,-0.3585,-0.3585,-0.3638,-0.3638,-0.3691,-0.3799,-0.3828,-0.383,-0.3939,-0.4041,-0.4197,-0.4369,-0.4558,-0.4674,-0.4851,-0.4939,-0.5043,-0.5111,-0.5149,-0.5236,-0.5328,-0.5371,-0.5458,-0.5545,-0.5669,-0.5755,-0.5836,-0.5964,-0.6027,-0.6095,-0.5991,-0.5953,-0.5886,-0.5731,-0.5607,-0.561,-0.5606,-0.5763,-0.5928,-0.6176,-0.6429,-0.6703,-0.6996,-0.7285,-0.7637,-0.7966,-0.8308,-0.8617,-0.8933,-0.9092,-0.9129,-0.9166,-0.9146,-0.8744,-0.8276,-0.7993,-0.7895,-0.793,-0.7986,-0.8135,-0.8319,-0.9922,-0.9922,-0.9922,-0.9922,-0.9922,-0.9922,-0.9922,-0.9922,-0.9922,-0.9922,-0.9922,-0.9922,-0.9922,-0.9922,-0.9922,-0.9922,-0.9922,-0.9922,-0.9922,-0.9846,-0.9846,-0.962,-0.9473,-0.9175,-0.8865,-0.8632,-0.8403,-0.8178,-0.7841,-0.7358,-0.6792,-0.6344,-0.5974,-0.5708,-0.5557,-0.5425,-0.5226,-0.4954,-0.4653,-0.4335,-0.4027,-0.3781,-0.3659,-0.3604,-0.3588,-0.3585,-0.3585,-0.3585,-0.3585,-0.3585,-0.3585,-0.3585,-0.3585,-0.3585,-0.3585,-0.3585,-0.3585,-0.3585,-0.3583,-0.3577,-0.363,-0.3669,-0.3724,-0.3752,-0.3902,-0.4084,-0.4243,-0.4363,-0.4546,-0.4723,-0.4803,-0.4888,-0.4975,-0.5014,-0.5062,-0.5106,-0.5149,-0.5236,-0.5323,-0.5361,-0.5491,-0.5626,-0.5755,-0.5804,-0.5905,-0.5925,-0.589,-0.5761,-0.564,-0.5592,-0.551,-0.5526,-0.5662,-0.5859,-0.6114,-0.6399,-0.6703,-0.6996,-0.7285,-0.7637,-0.8023,-0.8393,-0.8701,-0.9004,-0.9233,-0.9231,-0.9209,-0.9,-0.8604,-0.8317,-0.8038,-0.799,-0.799,-0.8025,-0.8256,-0.9922,-0.9922,-0.9922,-0.9846,-0.9841,-0.9846,-0.9846,-0.9846,-0.9846,-0.9922,-0.9922,-0.9922,-0.9922,-0.9922,-0.9922,-0.9922,-0.9846,-0.9846,-0.9846,-0.9846,-0.962,-0.9473,-0.9251,-0.8946,-0.8637,-0.8408,-0.8169,-0.7923,-0.7585,-0.7098,-0.653,-0.6138,-0.5836,-0.5557,-0.5425,-0.5428,-0.5289,-0.5048,-0.4671,-0.4311,-0.3999,-0.374,-0.3585,-0.3588,-0.3585,-0.3585,-0.353,-0.353,-0.3585,-0.3585,-0.353,-0.353,-0.353,-0.3585,-0.3585,-0.353,-0.353,-0.3471,-0.3416,-0.3357,-0.3413,-0.3413,-0.3466,-0.3555,-0.3655,-0.3945,-0.4115,-0.419,-0.4377,-0.4479,-0.4558,-0.4598,-0.4665,-0.4706,-0.4714,-0.4757,-0.4801,-0.4888,-0.4975,-0.5062,-0.5236,-0.5366,-0.5458,-0.555,-0.5674,-0.5817,-0.5828,-0.571,-0.5644,-0.556,-0.5488,-0.5392,-0.5566,-0.5698,-0.5797,-0.6083,-0.6368,-0.6673,-0.6996,-0.7314,-0.7695,-0.8099,-0.8505,-0.8799,-0.9107,-0.9212,-0.9169,-0.8996,-0.8822,-0.8558,-0.8318,-0.8107,-0.8056,-0.8034,-0.8135,-0.9922,-0.9846,-0.9771,-0.97,-0.962,-0.9473,-0.9473,-0.9473,-0.962,-0.9771,-0.9846,-0.9922,-0.9922,-0.9922,-0.9922,-0.9922,-0.9846,-0.9776,-0.9695,-0.962,-0.9473,-0.9246,-0.9099,-0.8789,-0.8484,-0.8178,-0.7936,-0.7622,-0.7208,-0.673,-0.6321,-0.5978,-0.5698,-0.5491,-0.5428,-0.5428,-0.5282,-0.5137,-0.4703,-0.4369,-0.4146,-0.3796,-0.3585,-0.3471,-0.3471,-0.336,-0.3302,-0.3246,-0.3246,-0.3246,-0.3246,-0.3246,-0.3246,-0.336,-0.336,-0.3302,-0.336,-0.3302,-0.3246,-0.319,-0.3188,-0.3188,-0.3244,-0.3342,-0.3507,-0.3834,-0.4039,-0.4079,-0.4132,-0.4241,-0.4334,-0.4333,-0.4369,-0.4386,-0.4408,-0.4408,-0.4408,-0.4539,-0.4626,-0.4801,-0.4932,-0.5067,-0.5203,-0.5333,-0.5458,-0.5534,-0.5561,-0.5545,-0.5471,-0.5431,-0.5466,-0.5423,-0.5543,-0.5691,-0.5727,-0.5797,-0.6114,-0.6399,-0.6703,-0.7017,-0.7364,-0.7869,-0.8336,-0.8673,-0.8946,-0.906,-0.9139,-0.912,-0.8932,-0.8731,-0.8552,-0.8346,-0.8096,-0.8028,-0.8122,-0.9922,-0.9841,-0.9695,-0.9549,-0.9473,-0.9322,-0.9322,-0.9322,-0.9397,-0.9544,-0.9695,-0.9771,-0.9922,-0.9922,-0.9922,-0.9771,-0.9771,-0.97,-0.9549,-0.9473,-0.9246,-0.9018,-0.8865,-0.856,-0.8255,-0.7944,-0.7681,-0.7244,-0.6789,-0.6487,-0.6127,-0.583,-0.5586,-0.5491,-0.5428,-0.5362,-0.5359,-0.5209,-0.4747,-0.4446,-0.4278,-0.3903,-0.3538,-0.3416,-0.336,-0.3246,-0.3188,-0.3132,-0.3132,-0.3132,-0.3132,-0.3132,-0.3132,-0.3246,-0.319,-0.3188,-0.3188,-0.319,-0.3079,-0.3023,-0.3021,-0.3023,-0.3023,-0.3128,-0.3234,-0.3531,-0.3694,-0.3813,-0.4022,-0.415,-0.4084,-0.4083,-0.4093,-0.4106,-0.4116,-0.4144,-0.4144,-0.4188,-0.432,-0.4491,-0.4622,-0.4757,-0.4893,-0.5024,-0.5149,-0.5241,-0.528,-0.5361,-0.5313,-0.5292,-0.5359,-0.5363,-0.545,-0.5607,-0.5671,-0.572,-0.5835,-0.6114,-0.6399,-0.6837,-0.7237,-0.7724,-0.8176,-0.8449,-0.8739,-0.8965,-0.9033,-0.9103,-0.9107,-0.8945,-0.8762,-0.8565,-0.8305,-0.8028,-0.8015,-0.9846,-0.9841,-0.962,-0.9397,-0.9246,-0.9246,-0.917,-0.9246,-0.9251,-0.9251,-0.9327,-0.9625,-0.9771,-0.9846,-0.9771,-0.9695,-0.9549,-0.9473,-0.9397,-0.9246,-0.9022,-0.8789,-0.8556,-0.825,-0.7999,-0.7681,-0.7335,-0.6945,-0.6406,-0.6234,-0.5944,-0.5641,-0.5491,-0.5428,-0.5428,-0.5428,-0.5359,-0.5232,-0.4871,-0.4593,-0.427,-0.3886,-0.3564,-0.3416,-0.3357,-0.3246,-0.3132,-0.3077,-0.3077,-0.3021,-0.3021,-0.3023,-0.3021,-0.3021,-0.3021,-0.3021,-0.3079,-0.3023,-0.2914,-0.286,-0.286,-0.286,-0.286,-0.297,-0.3077,-0.3219,-0.3392,-0.3579,-0.3803,-0.3904,-0.3857,-0.3809,-0.3869,-0.3835,-0.381,-0.384,-0.3884,-0.3884,-0.4012,-0.4184,-0.4316,-0.4451,-0.4539,-0.4714,-0.4801,-0.4893,-0.4985,-0.5067,-0.513,-0.5152,-0.5194,-0.5161,-0.5201,-0.5347,-0.5518,-0.5609,-0.5617,-0.5835,-0.6145,-0.6648,-0.7089,-0.7462,-0.7821,-0.8148,-0.8432,-0.8684,-0.896,-0.9092,-0.9077,-0.9071,-0.8876,-0.8658,-0.8333,-0.8082,-0.7893,-0.9846,-0.962,-0.9473,-0.9251,-0.9022,-0.8861,-0.878,-0.8856,-0.9018,-0.9022,-0.9099,-0.9251,-0.9397,-0.9397,-0.9397,-0.9397,-0.9322,-0.9246,-0.9099,-0.9027,-0.8713,-0.8556,-0.8313,-0.7982,-0.7698,-0.7335,-0.7094,-0.675,-0.6241,-0.606,-0.58,-0.5495,-0.5425,-0.5428,-0.5428,-0.5428,-0.5352,-0.5225,-0.4932,-0.4528,-0.4303,-0.3923,-0.35,-0.3302,-0.3132,-0.2968,-0.2856,-0.28,-0.2747,-0.2747,-0.28,-0.28,-0.28,-0.28,-0.28,-0.28,-0.2856,-0.2858,-0.2747,-0.2749,-0.2749,-0.2749,-0.2805,-0.2805,-0.2914,-0.297,-0.3164,-0.3272,-0.3493,-0.367,-0.3679,-0.3636,-0.3646,-0.3491,-0.3439,-0.3527,-0.3575,-0.3663,-0.3751,-0.3928,-0.406,-0.4148,-0.4236,-0.4324,-0.4403,-0.4495,-0.4587,-0.467,-0.4753,-0.4874,-0.4995,-0.4998,-0.4956,-0.5026,-0.5162,-0.5333,-0.5404,-0.5617,-0.5897,-0.6382,-0.6798,-0.7098,-0.7462,-0.7763,-0.8062,-0.8358,-0.8617,-0.8883,-0.907,-0.9046,-0.89,-0.8696,-0.8359,-0.8076,-0.7838]}]]